[[{"header":{"parameterUnit":"m.s-1","parameterCategory":1,"la1":31.0,"la2":29.5877,"lo1":-88.7671,"lo2":-86.6584,"dy":0.0162,"dx":0.0185,"nx":115,"ny":88,"refTime":"2023-09-09T18:00:00:Z","depth":0,"parameterNumber":2,"parameterNumberName":"U-component_of_WINDS"},"data":[0.0,0.0,0.0,0.0,0.0,0.0,0.0,0.0,0.0,0.0,0.0,0.0,0.0,0.0,0.0,0.0,0.0,0.0,0.0,0.0,0.0,0.0,0.0,0.0,0.0,0.0,0.0,0.0,0.0,0.0,0.0,0.0,0.0,0.0,0.0,0.0,0.0,0.0,0.0,0.0,0.0,0.0,0.0,0.0,0.0,0.0,0.0,0.0,0.0,0.0,0.0,0.0,0.0,0.0,0.0,0.0,0.0,0.0,0.0,0.0,0.0,0.0,0.0,0.0,0.0,0.0,0.0,0.0,0.0,0.0,0.0,0.0,0.0,0.0,0.0,0.0,0.0,0.0,0.0,0.0,0.0,0.0,0.0,0.0,0.0,0.0,0.0,0.0,0.0,0.0,0.0,0.0,0.0,0.0,0.0,0.0,0.0,0.0,0.0,0.0,0.0,0.0,0.0,0.0,0.0,0.0,0.0,0.0,0.0,0.0,0.0,0.0,0.0,0.0,0.0,0.0,0.0,0.0,0.0,0.0,0.0,0.0,0.0,0.0,0.0,0.0,0.0,0.0,0.0,0.0,0.0,0.0,0.0,0.0,0.0,0.0,0.0,0.0,0.0,0.0,0.0,0.0,0.0,0.0,0.0,0.0,0.0,0.0,0.0,0.0,0.0,0.0,0.0,0.0,0.0,0.0,0.0,0.0,0.0,0.0,0.0,0.0,0.0,0.0,0.0,0.0,0.0,0.0,0.0,0.0,0.0,0.0,0.0,0.0,0.0,0.0,0.0,0.0,0.0,0.0,0.0,0.0,0.0,0.0,0.0,0.0,0.0,0.0,0.0,0.0,0.0,0.0,0.0,0.0,0.0,0.0,0.0,0.0,0.0,0.0,0.0,0.0,0.0,0.0,0.0,0.0,0.0,0.0,0.0,0.0,0.0,0.0,0.0,0.0,0.0,0.0,0.0,0.0,0.0,0.0,0.0,0.0,0.0,0.0,0.0,0.0,0.0,0.0,0.0,0.0,0.0,0.0,0.0,0.0,0.0,0.0,0.0,0.0,0.0,0.0,0.0,0.0,0.0,0.0,0.0,0.0,0.0,0.0,0.0,0.0,0.0,0.0,0.0,0.0,0.0,0.0,0.0,0.0,0.0,0.0,0.0,0.0,0.0,0.0,0.0,0.0,0.0,0.0,0.0,0.0,0.0,0.0,0.0,0.0,0.0,0.0,0.0,0.0,0.0,0.0,0.0,0.0,0.0,0.0,0.0,0.0,0.0,0.0,0.0,0.0,0.0,0.0,0.0,0.0,0.0,0.0,0.0,0.0,0.0,0.0,0.0,0.0,0.0,0.0,0.0,0.0,0.0,0.0,0.0,0.0,0.0,0.0,0.0,0.0,0.0,0.0,0.0,0.0,0.0,0.0,0.0,0.0,0.0,0.0,0.0,0.0,0.0,0.0,0.0,0.0,0.0,0.0,0.0,0.0,0.0,0.0,0.0,0.0,0.0,0.0,0.0,0.0,0.0,0.0,0.0,0.0,0.0,0.0,0.0,0.0,0.0,0.0,0.0,0.0,0.0,0.0,0.0,0.0,0.0,0.0,0.0,0.0,0.0,0.0,0.0,0.0,0.0,0.0,0.0,0.0,0.0,0.0,0.0,0.0,0.0,0.0,0.0,0.0,0.0,0.0,0.0,0.0,0.0,0.0,0.0,0.0,0.0,0.0,0.0,0.0,0.0,0.0,0.0,0.0,0.0,0.0,0.0,0.0,0.0,0.0,0.0,0.0,0.0,0.0,0.0,0.0,0.0,0.0,0.0,0.0,0.0,0.0,0.0,0.0,0.0,0.0,0.0,0.0,0.0,0.0,0.0,0.0,0.0,0.0,0.0,0.0,0.0,0.0,0.0,0.0,0.0,0.0,0.0,0.0,0.0,0.0,0.0,0.0,0.0,0.0,0.0,0.0,0.0,0.0,0.0,0.0,0.0,0.0,0.0,0.0,0.0,0.0,0.0,0.0,0.0,0.0,0.0,0.0,0.0,0.0,0.0,0.0,0.0,0.0,0.0,0.0,0.0,0.0,0.0,0.0,0.0,0.0,0.0,0.0,0.0,0.0,0.0,0.0,0.0,0.0,0.0,0.0,0.0,0.0,0.0,0.0,0.0,0.0,0.0,0.0,0.0,0.0,0.0,0.0,0.0,0.0,0.0,0.0,0.0,0.0,0.0,0.0,0.0,0.0,0.0,0.0,0.0,0.0,0.0,0.0,0.0,0.0,0.0,0.0,0.0,0.0,0.0,0.0,0.0,0.0,0.0,0.0,0.0,0.0,0.0,0.0,0.0,0.0,0.0,0.0,0.0,0.0,0.0,0.0,0.0,0.0,0.0,0.0,0.0,0.0,0.0,0.0,0.0,0.0,0.0,0.0,0.0,0.0,0.0,0.0,0.0,0.0,0.0,0.0,0.0,0.0,0.0,0.0,0.0,0.0,0.0,0.0,0.0,0.0,0.0,0.0,0.0,0.0,0.0,0.0,0.0,0.0,0.0,0.0,0.0,0.0,0.0,0.0,0.0,0.0,0.0,0.0,0.0,0.0,0.0,0.0,0.0,0.0,0.0,0.0,0.0,0.0,0.0,0.0,0.0,0.0,0.0,0.0,0.0,0.0,0.0,0.0,0.0,0.0,0.0,0.0,0.0,0.0,0.0,0.0,0.0,0.0,0.0,0.0,0.0,0.0,0.0,0.0,0.0,0.0,0.0,0.0,0.0,0.0,0.0,0.0,0.0,0.0,0.0,0.0,0.0,0.0,0.0,0.0,0.0,0.0,0.0,0.0,0.0,0.0,0.0,0.0,0.0,0.0,0.0,0.0,0.0,0.0,0.0,0.0,0.0,0.0,0.0,0.0,0.0,0.0,0.0,0.0,0.0,0.0,0.0,0.0,0.0,0.0,0.0,0.0,0.0,0.0,0.0,0.0,0.0,0.0,0.0,0.0,0.0,0.0,0.0,0.0,0.0,0.0,0.0,0.0,0.0,0.0,0.0,0.0,0.0,0.0,0.0,0.0,0.0,0.0,0.0,0.0,0.0,0.0,0.0,0.0,0.0,0.0,0.0,0.0,0.0,0.0,0.0,0.0,0.0,0.0,0.0,0.0,0.0,0.0,0.0,0.0,0.0,0.0,0.0,0.0,0.0,0.0,0.0,0.0,0.0,0.0,0.0,0.0,0.0,0.0,0.0,0.0,0.0,0.0,0.0,0.0,0.0,0.0,0.0,0.0,0.0,0.0,0.0,0.0,0.0,0.0,0.0,0.0,0.0,0.0,0.0,0.0,0.0,0.0,0.0,0.0,0.0,0.0,0.0,0.0,0.0,0.0,0.0,0.0,0.0,0.0,0.0,0.0,0.0,0.0,0.0,0.0,0.0,0.0,0.0,0.0,0.0,0.0,0.0,0.0,0.0,0.0,0.0,0.0,0.0,0.0,0.0,0.0,0.0,0.0,0.0,0.0,0.0,0.0,0.0,0.0,0.0,0.0,0.0,0.0,0.0,0.0,0.0,0.0,0.0,0.0,0.0,0.0,0.0,0.0,0.0,0.0,0.0,0.0,0.0,0.0,0.0,0.0,0.0,0.0,0.0,0.0,0.0,0.0,0.0,0.0,0.0,0.0,0.0,0.0,0.0,0.0,0.0,0.0,0.0,0.0,0.0,0.0,0.0,0.0,0.0,0.0,0.0,0.0,0.0,0.0,0.0,0.0,0.0,0.0,0.0,0.0,0.0,0.0,0.0,0.0,0.0,0.0,0.0,0.0,0.0,0.0,0.0,0.0,0.0,0.0,0.0,0.0,0.0,0.0,0.0,0.0,0.0,0.0,0.0,0.0,0.0,0.0,0.0,0.0,0.0,0.0,0.0,0.0,0.0,0.0,0.0,0.0,0.0,0.0,0.0,0.0,0.0,0.0,0.0,0.0,0.0,0.0,0.0,0.0,0.0,0.0,0.0,0.0,0.0,0.0,0.0,0.0,0.0,0.0,0.0,0.0,0.0,0.0,0.0,0.0,0.0,0.0,0.0,0.0,0.0,0.0,0.0,0.0,0.0,0.0,0.0,0.0,0.0,0.0,0.0,0.0,0.0,0.0,0.0,0.0,0.0,0.0,0.0,0.0,0.0,0.0,0.0,0.0,0.0,0.0,0.0,0.0,0.0,0.0,0.0,0.0,0.0,0.0,0.0,0.0,0.0,0.0,0.0,0.0,0.0,0.0,0.0,0.0,0.0,0.0,0.0,0.0,-3.7613,0.0,0.0,0.0,0.0,0.0,0.0,0.0,0.0,0.0,0.0,0.0,0.0,0.0,0.0,0.0,0.0,0.0,0.0,0.0,0.0,0.0,0.0,0.0,0.0,0.0,0.0,0.0,0.0,0.0,0.0,0.0,0.0,0.0,0.0,0.0,0.0,0.0,0.0,0.0,0.0,0.0,0.0,0.0,0.0,0.0,0.0,0.0,0.0,0.0,0.0,0.0,0.0,0.0,0.0,0.0,0.0,0.0,0.0,0.0,0.0,0.0,0.0,0.0,0.0,0.0,0.0,0.0,0.0,0.0,0.0,0.0,0.0,0.0,0.0,0.0,0.0,0.0,0.0,0.0,0.0,0.0,0.0,0.0,0.0,0.0,0.0,0.0,0.0,0.0,0.0,0.0,0.0,0.0,0.0,0.0,0.0,0.0,0.0,0.0,0.0,0.0,0.0,0.0,0.0,0.0,0.0,0.0,0.0,0.0,0.0,-3.7522,-3.7649,-3.7613,-3.7577,-3.7577,0.0,0.0,0.0,0.0,0.0,0.0,0.0,0.0,0.0,0.0,0.0,0.0,0.0,0.0,0.0,0.0,0.0,0.0,0.0,0.0,0.0,0.0,0.0,0.0,0.0,0.0,0.0,0.0,0.0,0.0,0.0,0.0,0.0,0.0,0.0,0.0,0.0,0.0,0.0,0.0,0.0,0.0,0.0,0.0,0.0,0.0,0.0,0.0,0.0,0.0,0.0,0.0,0.0,0.0,0.0,0.0,0.0,0.0,0.0,0.0,0.0,0.0,0.0,0.0,0.0,0.0,0.0,0.0,0.0,0.0,0.0,0.0,0.0,0.0,0.0,0.0,0.0,0.0,0.0,0.0,0.0,0.0,0.0,0.0,0.0,0.0,0.0,0.0,0.0,0.0,0.0,0.0,0.0,0.0,0.0,0.0,0.0,0.0,0.0,0.0,0.0,0.0,0.0,0.0,0.0,0.0,0.0,0.0,0.0,0.0,0.0,0.0,-3.7613,-3.7594,-3.7521,0.0,0.0,0.0,0.0,0.0,0.0,0.0,0.0,0.0,0.0,0.0,0.0,0.0,0.0,0.0,0.0,0.0,0.0,0.0,0.0,0.0,0.0,0.0,0.0,0.0,0.0,0.0,0.0,0.0,0.0,0.0,0.0,0.0,0.0,0.0,0.0,0.0,0.0,0.0,0.0,0.0,0.0,0.0,0.0,0.0,0.0,0.0,0.0,0.0,0.0,0.0,0.0,0.0,0.0,0.0,0.0,0.0,0.0,0.0,0.0,0.0,0.0,0.0,0.0,0.0,0.0,0.0,0.0,0.0,0.0,0.0,0.0,0.0,0.0,0.0,0.0,0.0,0.0,0.0,0.0,0.0,0.0,0.0,0.0,0.0,0.0,0.0,0.0,0.0,0.0,0.0,0.0,0.0,0.0,0.0,0.0,0.0,0.0,0.0,0.0,0.0,0.0,0.0,0.0,0.0,0.0,0.0,0.0,0.0,0.0,-3.7577,-3.7613,-3.7577,0.0,-3.7334,0.0,0.0,0.0,0.0,0.0,0.0,0.0,0.0,0.0,0.0,0.0,0.0,0.0,0.0,0.0,0.0,0.0,0.0,0.0,0.0,0.0,0.0,0.0,0.0,0.0,0.0,0.0,0.0,0.0,0.0,0.0,0.0,0.0,0.0,0.0,0.0,0.0,0.0,0.0,0.0,0.0,0.0,0.0,0.0,0.0,0.0,0.0,0.0,0.0,0.0,0.0,0.0,0.0,0.0,0.0,0.0,0.0,0.0,0.0,0.0,0.0,0.0,0.0,0.0,0.0,0.0,0.0,0.0,0.0,0.0,0.0,0.0,0.0,0.0,0.0,0.0,0.0,0.0,0.0,0.0,0.0,0.0,0.0,0.0,0.0,0.0,0.0,0.0,0.0,0.0,0.0,0.0,0.0,0.0,0.0,0.0,0.0,0.0,0.0,0.0,0.0,0.0,0.0,0.0,0.0,0.0,0.0,0.0,0.0,0.0,-3.7521,-3.7577,-3.754,-3.7392,0.0,0.0,0.0,0.0,0.0,0.0,0.0,0.0,0.0,0.0,0.0,0.0,0.0,0.0,0.0,0.0,0.0,0.0,0.0,0.0,0.0,0.0,0.0,0.0,0.0,0.0,0.0,0.0,0.0,0.0,0.0,0.0,0.0,0.0,0.0,0.0,0.0,0.0,0.0,0.0,0.0,0.0,0.0,0.0,0.0,0.0,0.0,0.0,0.0,0.0,0.0,0.0,0.0,0.0,0.0,0.0,0.0,0.0,0.0,0.0,0.0,0.0,0.0,0.0,0.0,0.0,0.0,0.0,0.0,0.0,0.0,0.0,0.0,0.0,0.0,0.0,0.0,0.0,0.0,0.0,0.0,0.0,0.0,0.0,0.0,0.0,0.0,0.0,0.0,0.0,0.0,0.0,0.0,0.0,0.0,0.0,0.0,0.0,0.0,0.0,0.0,0.0,0.0,0.0,0.0,0.0,0.0,0.0,0.0,0.0,-3.7374,-3.7429,-3.7521,-3.7392,-3.7261,-3.7108,0.0,0.0,0.0,0.0,0.0,0.0,0.0,0.0,0.0,0.0,0.0,0.0,0.0,0.0,0.0,0.0,0.0,0.0,0.0,0.0,0.0,0.0,0.0,0.0,0.0,0.0,0.0,0.0,0.0,0.0,0.0,0.0,0.0,0.0,0.0,0.0,0.0,0.0,0.0,0.0,0.0,0.0,0.0,0.0,0.0,0.0,0.0,0.0,0.0,0.0,0.0,0.0,0.0,0.0,0.0,0.0,0.0,0.0,0.0,0.0,0.0,0.0,0.0,0.0,0.0,0.0,0.0,0.0,0.0,0.0,0.0,0.0,0.0,0.0,0.0,0.0,0.0,0.0,0.0,0.0,0.0,0.0,0.0,0.0,0.0,0.0,0.0,0.0,0.0,0.0,0.0,0.0,0.0,0.0,0.0,0.0,0.0,0.0,0.0,0.0,0.0,0.0,0.0,0.0,0.0,0.0,0.0,0.0,-3.7374,-3.7374,-3.7354,-3.7297,-3.7185,-3.7108,0.0,0.0,0.0,0.0,0.0,0.0,0.0,0.0,0.0,0.0,0.0,0.0,0.0,0.0,0.0,0.0,0.0,0.0,0.0,0.0,0.0,0.0,0.0,0.0,0.0,0.0,0.0,0.0,0.0,0.0,0.0,0.0,0.0,0.0,0.0,0.0,0.0,0.0,0.0,0.0,0.0,0.0,0.0,0.0,0.0,0.0,0.0,0.0,0.0,0.0,0.0,0.0,0.0,0.0,0.0,0.0,0.0,0.0,0.0,0.0,0.0,0.0,0.0,0.0,0.0,0.0,0.0,0.0,0.0,0.0,0.0,0.0,0.0,0.0,0.0,0.0,0.0,0.0,0.0,0.0,0.0,0.0,0.0,0.0,0.0,0.0,0.0,0.0,0.0,0.0,0.0,0.0,0.0,0.0,0.0,0.0,0.0,0.0,0.0,0.0,0.0,0.0,0.0,0.0,0.0,0.0,0.0,0.0,0.0,-3.7223,-3.7279,-3.7279,-3.7185,-3.7203,-3.7164,0.0,0.0,0.0,0.0,0.0,0.0,0.0,0.0,0.0,0.0,0.0,0.0,0.0,0.0,0.0,0.0,0.0,0.0,0.0,0.0,0.0,0.0,0.0,0.0,0.0,0.0,0.0,0.0,0.0,0.0,0.0,0.0,0.0,0.0,0.0,0.0,0.0,0.0,0.0,0.0,0.0,0.0,0.0,0.0,0.0,0.0,0.0,0.0,0.0,0.0,0.0,0.0,0.0,0.0,0.0,0.0,0.0,0.0,0.0,0.0,0.0,0.0,0.0,0.0,0.0,0.0,0.0,0.0,0.0,0.0,0.0,0.0,0.0,0.0,0.0,0.0,0.0,0.0,0.0,0.0,0.0,0.0,0.0,0.0,0.0,0.0,0.0,0.0,0.0,0.0,0.0,0.0,0.0,0.0,0.0,0.0,0.0,0.0,0.0,0.0,0.0,0.0,0.0,0.0,0.0,0.0,0.0,0.0,0.0,-3.7108,0.0,-3.7182,-3.7031,-3.7105,-3.7083,0.0,0.0,0.0,0.0,0.0,0.0,0.0,0.0,0.0,0.0,0.0,0.0,0.0,0.0,0.0,0.0,0.0,0.0,0.0,0.0,0.0,0.0,0.0,0.0,0.0,0.0,0.0,0.0,0.0,0.0,0.0,0.0,0.0,0.0,0.0,0.0,0.0,0.0,0.0,0.0,0.0,0.0,0.0,0.0,0.0,0.0,0.0,0.0,0.0,0.0,0.0,0.0,0.0,0.0,0.0,0.0,0.0,0.0,0.0,0.0,0.0,0.0,0.0,0.0,0.0,0.0,0.0,0.0,0.0,0.0,0.0,0.0,0.0,0.0,0.0,0.0,0.0,0.0,0.0,0.0,0.0,0.0,0.0,0.0,0.0,0.0,0.0,0.0,0.0,0.0,0.0,0.0,0.0,0.0,0.0,0.0,0.0,0.0,0.0,0.0,0.0,0.0,0.0,0.0,0.0,0.0,0.0,0.0,-3.7143,-3.7126,-3.7161,-3.7115,-3.6864,-3.6881,-3.6823,0.0,0.0,0.0,0.0,0.0,0.0,0.0,0.0,0.0,0.0,0.0,0.0,0.0,0.0,0.0,0.0,0.0,0.0,0.0,0.0,0.0,0.0,0.0,0.0,0.0,0.0,0.0,0.0,0.0,0.0,0.0,0.0,0.0,0.0,0.0,0.0,0.0,0.0,0.0,0.0,0.0,0.0,0.0,0.0,0.0,0.0,0.0,0.0,0.0,0.0,0.0,0.0,0.0,0.0,0.0,0.0,0.0,0.0,0.0,0.0,0.0,0.0,0.0,0.0,0.0,0.0,0.0,0.0,0.0,0.0,0.0,0.0,0.0,0.0,0.0,0.0,0.0,0.0,0.0,0.0,0.0,0.0,0.0,0.0,0.0,0.0,0.0,0.0,0.0,0.0,0.0,0.0,0.0,0.0,0.0,0.0,0.0,0.0,0.0,0.0,0.0,0.0,0.0,0.0,0.0,0.0,0.0,0.0,0.0,-3.7817,-3.8327,-3.8544,-3.8384,-3.7895,-3.7574,0.0,0.0,0.0,0.0,0.0,0.0,0.0,0.0,0.0,0.0,0.0,0.0,0.0,0.0,0.0,0.0,0.0,0.0,0.0,0.0,0.0,0.0,0.0,0.0,0.0,0.0,0.0,0.0,0.0,0.0,0.0,0.0,0.0,0.0,0.0,0.0,0.0,0.0,0.0,0.0,0.0,0.0,0.0,0.0,0.0,0.0,0.0,0.0,0.0,0.0,0.0,0.0,0.0,0.0,0.0,0.0,0.0,0.0,0.0,0.0,0.0,0.0,0.0,0.0,0.0,0.0,0.0,0.0,0.0,0.0,0.0,0.0,0.0,0.0,0.0,0.0,0.0,0.0,0.0,0.0,0.0,0.0,0.0,0.0,0.0,0.0,0.0,0.0,0.0,0.0,0.0,0.0,0.0,0.0,0.0,0.0,0.0,0.0,0.0,0.0,0.0,0.0,0.0,0.0,0.0,0.0,0.0,0.0,0.0,-3.8856,-3.9311,-3.9512,-3.9408,-3.8676,-3.8251,-3.8105,0.0,0.0,0.0,0.0,0.0,0.0,0.0,0.0,0.0,0.0,0.0,0.0,0.0,0.0,0.0,0.0,0.0,0.0,0.0,0.0,0.0,0.0,0.0,0.0,0.0,0.0,0.0,0.0,0.0,0.0,0.0,0.0,0.0,0.0,0.0,0.0,0.0,0.0,0.0,0.0,0.0,0.0,0.0,0.0,0.0,0.0,0.0,0.0,0.0,0.0,0.0,0.0,0.0,0.0,0.0,0.0,0.0,0.0,0.0,0.0,0.0,0.0,0.0,0.0,0.0,0.0,0.0,0.0,0.0,0.0,0.0,0.0,0.0,0.0,0.0,0.0,0.0,0.0,0.0,0.0,0.0,0.0,0.0,0.0,0.0,0.0,0.0,0.0,0.0,0.0,0.0,0.0,0.0,0.0,0.0,0.0,0.0,0.0,0.0,0.0,0.0,0.0,0.0,0.0,0.0,0.0,0.0,0.0,-4.0137,-4.0242,-4.0197,-3.9967,-3.9292,-3.8832,0.0,0.0,0.0,0.0,0.0,0.0,0.0,0.0,0.0,0.0,0.0,0.0,0.0,0.0,0.0,0.0,0.0,0.0,0.0,0.0,0.0,0.0,0.0,0.0,0.0,0.0,0.0,0.0,0.0,0.0,0.0,0.0,0.0,0.0,0.0,0.0,0.0,0.0,0.0,0.0,0.0,0.0,0.0,0.0,0.0,0.0,0.0,0.0,0.0,0.0,0.0,0.0,0.0,0.0,0.0,0.0,0.0,0.0,0.0,0.0,0.0,0.0,0.0,0.0,0.0,0.0,0.0,0.0,0.0,0.0,0.0,0.0,0.0,0.0,0.0,0.0,0.0,0.0,0.0,0.0,0.0,0.0,0.0,0.0,0.0,0.0,0.0,0.0,0.0,0.0,0.0,0.0,0.0,0.0,0.0,0.0,0.0,0.0,0.0,0.0,0.0,0.0,0.0,0.0,0.0,0.0,0.0,0.0,0.0,-4.0706,-4.1795,-4.1895,-4.0851,-4.0591,-3.9859,0.0,0.0,0.0,0.0,0.0,0.0,0.0,0.0,0.0,0.0,0.0,0.0,0.0,0.0,0.0,0.0,0.0,0.0,0.0,0.0,0.0,0.0,0.0,0.0,0.0,0.0,0.0,0.0,0.0,0.0,0.0,0.0,0.0,0.0,0.0,0.0,0.0,0.0,0.0,0.0,0.0,0.0,0.0,0.0,0.0,0.0,0.0,0.0,0.0,0.0,0.0,0.0,0.0,0.0,0.0,0.0,0.0,0.0,0.0,0.0,0.0,0.0,0.0,0.0,0.0,0.0,0.0,0.0,0.0,0.0,0.0,0.0,0.0,0.0,0.0,0.0,0.0,0.0,0.0,0.0,0.0,0.0,0.0,0.0,0.0,0.0,0.0,0.0,0.0,0.0,0.0,0.0,0.0,0.0,0.0,0.0,0.0,0.0,0.0,0.0,0.0,0.0,0.0,0.0,0.0,0.0,0.0,0.0,-4.0543,-4.0871,-4.2322,-4.2528,-4.1436,-4.1664,-4.1219,0.0,0.0,0.0,0.0,0.0,0.0,0.0,0.0,0.0,0.0,0.0,0.0,0.0,0.0,0.0,0.0,0.0,0.0,0.0,0.0,0.0,0.0,0.0,0.0,0.0,0.0,0.0,0.0,0.0,0.0,0.0,0.0,0.0,0.0,0.0,0.0,0.0,0.0,0.0,0.0,0.0,0.0,0.0,0.0,0.0,0.0,0.0,0.0,0.0,0.0,0.0,0.0,0.0,0.0,0.0,0.0,0.0,0.0,0.0,0.0,0.0,0.0,0.0,0.0,0.0,0.0,0.0,0.0,0.0,0.0,0.0,0.0,0.0,0.0,0.0,0.0,0.0,0.0,0.0,0.0,0.0,0.0,0.0,0.0,0.0,0.0,0.0,0.0,0.0,0.0,0.0,0.0,0.0,0.0,0.0,0.0,0.0,0.0,0.0,0.0,0.0,0.0,0.0,0.0,0.0,0.0,0.0,0.0,-4.0164,-4.0871,-4.2102,-4.2465,-4.1864,-4.2602,-4.2501,0.0,0.0,0.0,0.0,0.0,0.0,0.0,0.0,0.0,0.0,0.0,0.0,0.0,0.0,0.0,0.0,0.0,0.0,0.0,0.0,0.0,0.0,0.0,0.0,0.0,0.0,0.0,0.0,0.0,0.0,0.0,0.0,0.0,0.0,0.0,0.0,0.0,0.0,0.0,0.0,0.0,0.0,0.0,0.0,0.0,0.0,0.0,0.0,0.0,0.0,0.0,0.0,0.0,0.0,0.0,0.0,0.0,0.0,0.0,0.0,0.0,0.0,0.0,0.0,0.0,0.0,0.0,0.0,0.0,0.0,0.0,0.0,0.0,0.0,0.0,0.0,0.0,0.0,0.0,0.0,0.0,0.0,0.0,0.0,0.0,0.0,0.0,0.0,0.0,0.0,0.0,0.0,0.0,0.0,0.0,0.0,0.0,0.0,0.0,0.0,0.0,0.0,0.0,0.0,0.0,0.0,0.0,0.0,-4.0716,-4.0888,-4.1621,-4.1917,-4.168,-4.298,-4.2723,0.0,0.0,0.0,0.0,0.0,0.0,0.0,0.0,0.0,0.0,0.0,0.0,0.0,0.0,0.0,0.0,0.0,0.0,0.0,0.0,0.0,0.0,0.0,0.0,0.0,0.0,0.0,0.0,0.0,0.0,0.0,0.0,0.0,0.0,0.0,0.0,0.0,0.0,0.0,0.0,0.0,0.0,0.0,0.0,0.0,0.0,0.0,0.0,-3.8809,0.0,0.0,0.0,0.0,0.0,0.0,0.0,0.0,0.0,0.0,0.0,0.0,0.0,0.0,0.0,0.0,0.0,0.0,0.0,0.0,0.0,0.0,0.0,0.0,0.0,0.0,0.0,0.0,0.0,0.0,0.0,0.0,0.0,0.0,0.0,0.0,0.0,0.0,0.0,0.0,0.0,0.0,0.0,0.0,0.0,0.0,0.0,0.0,0.0,0.0,0.0,0.0,0.0,0.0,0.0,0.0,0.0,0.0,0.0,-4.0871,-4.081,-4.1435,-4.1663,-4.1529,-4.2567,-4.2413,0.0,0.0,0.0,0.0,0.0,0.0,0.0,0.0,0.0,0.0,0.0,0.0,0.0,0.0,0.0,0.0,0.0,0.0,0.0,0.0,0.0,0.0,0.0,0.0,0.0,0.0,0.0,0.0,0.0,0.0,0.0,0.0,0.0,0.0,0.0,0.0,0.0,0.0,0.0,0.0,0.0,0.0,0.0,0.0,0.0,0.0,0.0,0.0,0.0,0.0,0.0,0.0,0.0,0.0,0.0,0.0,0.0,0.0,0.0,0.0,0.0,0.0,0.0,0.0,0.0,0.0,0.0,0.0,0.0,0.0,0.0,0.0,0.0,0.0,0.0,0.0,0.0,0.0,0.0,0.0,0.0,0.0,0.0,0.0,0.0,0.0,0.0,0.0,0.0,0.0,0.0,0.0,0.0,0.0,0.0,0.0,0.0,0.0,0.0,0.0,0.0,0.0,0.0,0.0,0.0,0.0,0.0,-3.9974,-4.0672,-4.0714,-4.1167,-4.1341,-4.124,-4.1731,-4.161,-4.0882,0.0,0.0,0.0,0.0,0.0,0.0,0.0,0.0,0.0,0.0,0.0,0.0,0.0,0.0,0.0,0.0,0.0,0.0,0.0,0.0,0.0,0.0,0.0,0.0,0.0,0.0,0.0,0.0,0.0,0.0,0.0,0.0,0.0,0.0,0.0,0.0,0.0,0.0,-3.7186,-3.8945,0.0,0.0,0.0,0.0,0.0,0.0,0.0,0.0,-3.9967,0.0,0.0,0.0,0.0,0.0,0.0,0.0,0.0,0.0,0.0,0.0,0.0,0.0,0.0,0.0,0.0,0.0,0.0,0.0,0.0,0.0,0.0,0.0,0.0,0.0,0.0,0.0,0.0,0.0,0.0,0.0,0.0,0.0,0.0,0.0,0.0,0.0,0.0,0.0,0.0,0.0,0.0,0.0,0.0,0.0,0.0,0.0,0.0,0.0,0.0,0.0,0.0,0.0,0.0,0.0,0.0,-3.8431,-3.9272,-3.9963,-4.0517,-4.0506,-4.0475,-4.0475,-4.0493,-4.0104,-3.9394,0.0,0.0,0.0,0.0,0.0,0.0,0.0,0.0,0.0,0.0,0.0,0.0,0.0,0.0,0.0,0.0,0.0,0.0,0.0,0.0,0.0,0.0,0.0,0.0,0.0,0.0,0.0,0.0,0.0,0.0,0.0,0.0,0.0,0.0,0.0,0.0,0.0,0.0,0.0,-3.9224,-3.965,0.0,0.0,0.0,0.0,0.0,0.0,0.0,0.0,-4.0926,0.0,0.0,0.0,0.0,0.0,0.0,0.0,0.0,0.0,0.0,0.0,0.0,0.0,0.0,0.0,0.0,0.0,0.0,0.0,0.0,0.0,0.0,0.0,0.0,0.0,0.0,0.0,0.0,0.0,0.0,0.0,0.0,0.0,0.0,0.0,0.0,0.0,0.0,0.0,0.0,0.0,0.0,0.0,0.0,0.0,0.0,0.0,0.0,0.0,0.0,0.0,0.0,0.0,0.0,0.0,-3.8414,-3.9059,-3.9764,-4.0353,-4.0337,-4.0238,-4.0188,-4.0121,-3.9732,0.0,0.0,0.0,0.0,0.0,0.0,0.0,0.0,0.0,0.0,0.0,0.0,0.0,0.0,0.0,0.0,0.0,0.0,0.0,0.0,0.0,0.0,0.0,0.0,0.0,0.0,0.0,0.0,0.0,0.0,0.0,0.0,0.0,0.0,0.0,0.0,0.0,0.0,0.0,0.0,-3.9599,-3.9936,-3.9801,0.0,0.0,0.0,0.0,0.0,0.0,-4.1421,-4.1389,0.0,0.0,0.0,0.0,0.0,0.0,0.0,0.0,0.0,0.0,0.0,0.0,0.0,0.0,0.0,0.0,0.0,0.0,0.0,0.0,0.0,0.0,0.0,0.0,0.0,0.0,0.0,0.0,0.0,0.0,0.0,0.0,0.0,0.0,0.0,0.0,0.0,0.0,0.0,0.0,0.0,0.0,0.0,0.0,0.0,0.0,0.0,0.0,0.0,0.0,0.0,0.0,0.0,0.0,0.0,-3.81,-3.876,-3.9416,-4.0,-4.017,-4.0188,-4.007,-3.9935,-3.9512,0.0,0.0,0.0,0.0,0.0,0.0,0.0,0.0,0.0,0.0,0.0,0.0,0.0,0.0,0.0,0.0,0.0,0.0,0.0,0.0,0.0,0.0,0.0,0.0,0.0,0.0,0.0,0.0,0.0,0.0,0.0,0.0,0.0,0.0,0.0,0.0,0.0,0.0,0.0,0.0,0.0,-4.0171,-4.0176,-4.0815,0.0,0.0,0.0,0.0,-4.1738,-4.1752,0.0,0.0,0.0,0.0,0.0,0.0,0.0,0.0,0.0,0.0,0.0,0.0,0.0,0.0,0.0,0.0,0.0,0.0,0.0,0.0,0.0,0.0,0.0,0.0,0.0,0.0,0.0,0.0,0.0,0.0,0.0,0.0,0.0,0.0,0.0,0.0,0.0,0.0,0.0,0.0,0.0,0.0,0.0,0.0,0.0,0.0,0.0,0.0,0.0,0.0,0.0,0.0,0.0,0.0,0.0,0.0,-3.7087,-3.7789,-3.8506,-3.9156,-3.9799,-4.0121,-4.007,-3.9462,-3.8768,0.0,0.0,0.0,0.0,0.0,0.0,0.0,0.0,0.0,0.0,0.0,0.0,0.0,0.0,0.0,0.0,0.0,0.0,0.0,0.0,0.0,0.0,0.0,0.0,0.0,0.0,0.0,0.0,0.0,0.0,0.0,0.0,0.0,0.0,0.0,0.0,0.0,0.0,0.0,0.0,0.0,-4.01,-4.0642,-4.1342,-4.1771,0.0,0.0,-4.1738,-4.1654,-4.1588,0.0,0.0,0.0,0.0,0.0,0.0,0.0,0.0,0.0,0.0,0.0,0.0,0.0,0.0,0.0,0.0,0.0,0.0,0.0,0.0,0.0,0.0,0.0,0.0,0.0,0.0,0.0,0.0,0.0,0.0,0.0,0.0,0.0,0.0,0.0,0.0,0.0,0.0,0.0,0.0,0.0,0.0,0.0,0.0,0.0,0.0,0.0,0.0,0.0,0.0,0.0,0.0,0.0,0.0,0.0,-3.6263,-3.6905,-3.7577,-3.8292,-3.8971,-3.9698,-4.0087,-4.007,-3.9377,-3.8633,0.0,0.0,0.0,0.0,0.0,0.0,0.0,0.0,0.0,0.0,0.0,0.0,0.0,0.0,0.0,0.0,0.0,0.0,0.0,0.0,0.0,0.0,0.0,0.0,0.0,0.0,0.0,0.0,0.0,0.0,0.0,0.0,0.0,0.0,0.0,0.0,0.0,0.0,0.0,0.0,0.0,0.0,-4.1149,-4.1561,0.0,0.0,0.0,-4.1654,-4.1604,0.0,0.0,0.0,0.0,0.0,0.0,0.0,0.0,0.0,0.0,0.0,0.0,0.0,0.0,0.0,0.0,0.0,0.0,0.0,0.0,0.0,0.0,0.0,0.0,0.0,0.0,0.0,0.0,0.0,0.0,0.0,0.0,0.0,0.0,0.0,0.0,0.0,0.0,0.0,0.0,0.0,0.0,0.0,0.0,0.0,0.0,0.0,0.0,0.0,0.0,0.0,0.0,0.0,0.0,0.0,0.0,0.0,-3.6605,-3.7276,-3.7973,-3.87,-3.9428,-3.9817,-3.98,-3.9106,0.0,0.0,0.0,0.0,0.0,0.0,0.0,0.0,0.0,0.0,0.0,0.0,0.0,0.0,0.0,0.0,0.0,0.0,0.0,0.0,0.0,0.0,0.0,0.0,0.0,0.0,0.0,-3.1164,0.0,0.0,0.0,0.0,0.0,0.0,0.0,0.0,0.0,0.0,0.0,0.0,0.0,0.0,-4.0166,-4.1399,-4.1588,-4.1588,0.0,0.0,-4.1588,-4.1588,-4.1588,-4.1304,0.0,0.0,0.0,0.0,0.0,0.0,0.0,0.0,0.0,0.0,0.0,0.0,0.0,0.0,0.0,0.0,0.0,0.0,0.0,0.0,0.0,0.0,0.0,0.0,0.0,0.0,0.0,0.0,0.0,0.0,0.0,0.0,0.0,0.0,0.0,0.0,0.0,0.0,0.0,0.0,0.0,0.0,0.0,0.0,0.0,0.0,0.0,0.0,0.0,0.0,0.0,0.0,0.0,0.0,0.0,-3.5723,-3.6451,-3.7229,-3.7956,-3.8684,-3.9056,-3.9056,-3.8362,-3.7635,0.0,0.0,0.0,0.0,0.0,0.0,0.0,0.0,0.0,0.0,0.0,0.0,0.0,0.0,0.0,0.0,0.0,0.0,0.0,0.0,0.0,0.0,0.0,0.0,0.0,0.0,0.0,0.0,0.0,0.0,0.0,0.0,0.0,0.0,0.0,0.0,0.0,0.0,0.0,0.0,0.0,-4.0008,-4.1399,-4.1588,-4.1588,0.0,0.0,-4.1588,-4.1588,-4.1588,-4.113,-3.9613,0.0,0.0,0.0,0.0,0.0,0.0,0.0,0.0,0.0,0.0,0.0,0.0,0.0,0.0,0.0,0.0,0.0,0.0,0.0,0.0,0.0,0.0,0.0,0.0,0.0,0.0,0.0,0.0,0.0,0.0,0.0,0.0,0.0,0.0,0.0,0.0,0.0,0.0,0.0,0.0,0.0,0.0,0.0,0.0,0.0,0.0,0.0,0.0,0.0,0.0,0.0,0.0,0.0,-3.5667,-3.5639,-3.6383,-3.6924,-3.7212,-3.7939,-3.8328,-3.8328,-3.7584,-3.7077,0.0,0.0,0.0,0.0,0.0,0.0,0.0,0.0,0.0,0.0,0.0,0.0,0.0,0.0,0.0,0.0,0.0,0.0,0.0,0.0,0.0,0.0,0.0,0.0,0.0,0.0,0.0,0.0,-3.2987,-3.3236,-3.3419,0.0,0.0,0.0,0.0,0.0,0.0,0.0,0.0,0.0,0.0,-4.0008,-4.1383,-4.1588,0.0,0.0,-4.1588,-4.1588,-4.1588,-4.116,-4.0431,-3.9296,-3.8541,0.0,0.0,0.0,0.0,0.0,0.0,0.0,0.0,0.0,0.0,0.0,0.0,0.0,0.0,0.0,0.0,0.0,0.0,0.0,0.0,0.0,0.0,0.0,0.0,0.0,0.0,0.0,0.0,0.0,0.0,0.0,0.0,0.0,0.0,0.0,0.0,0.0,0.0,0.0,0.0,0.0,0.0,0.0,0.0,0.0,0.0,0.0,0.0,0.0,0.0,0.0,0.0,-3.5639,-3.5639,-3.6163,-3.6535,-3.6789,-3.7297,-3.7567,-3.755,-3.706,-3.6671,0.0,0.0,0.0,0.0,0.0,0.0,0.0,0.0,0.0,0.0,0.0,0.0,0.0,0.0,0.0,0.0,0.0,0.0,0.0,0.0,0.0,0.0,0.0,0.0,0.0,0.0,0.0,0.0,-3.3201,-3.3398,-3.3293,0.0,0.0,0.0,0.0,0.0,0.0,0.0,0.0,0.0,0.0,-4.0008,-4.1383,-4.1588,-4.1588,-4.1588,-4.1588,-4.1573,-4.1522,-4.0981,-4.0156,-3.8942,0.0,0.0,0.0,0.0,0.0,0.0,0.0,0.0,0.0,0.0,0.0,0.0,0.0,0.0,0.0,0.0,0.0,0.0,0.0,0.0,0.0,0.0,0.0,0.0,0.0,0.0,0.0,0.0,0.0,0.0,0.0,0.0,0.0,0.0,0.0,0.0,0.0,0.0,0.0,0.0,0.0,0.0,0.0,0.0,0.0,0.0,0.0,0.0,0.0,0.0,0.0,0.0,0.0,-3.5639,-3.5639,-3.5656,-3.6011,-3.6738,-3.6789,-3.6806,-3.6789,-3.6789,-3.64,-3.5639,0.0,0.0,0.0,0.0,0.0,0.0,0.0,0.0,0.0,0.0,0.0,0.0,0.0,0.0,0.0,0.0,0.0,0.0,0.0,0.0,0.0,0.0,0.0,0.0,0.0,0.0,-3.3328,-3.3398,-3.3309,0.0,0.0,0.0,0.0,0.0,0.0,0.0,0.0,0.0,0.0,-3.9487,-4.0008,-4.1383,-4.1588,-4.1604,-4.1588,-4.1588,-4.1522,-4.1323,-4.1158,-4.0437,0.0,0.0,0.0,0.0,0.0,0.0,0.0,0.0,0.0,0.0,0.0,0.0,0.0,0.0,0.0,0.0,0.0,0.0,0.0,0.0,0.0,0.0,0.0,0.0,0.0,0.0,0.0,-3.8719,-3.7349,0.0,0.0,0.0,0.0,0.0,0.0,0.0,0.0,0.0,0.0,0.0,-3.7491,-3.7491,0.0,0.0,0.0,0.0,0.0,0.0,0.0,0.0,0.0,0.0,0.0,0.0,-3.5639,-3.5639,-3.5639,-3.574,-3.6011,-3.6028,-3.6011,-3.6011,-3.6011,-3.5419,-3.4184,0.0,0.0,0.0,0.0,0.0,0.0,0.0,0.0,0.0,0.0,0.0,0.0,0.0,0.0,0.0,0.0,0.0,0.0,0.0,0.0,0.0,0.0,0.0,0.0,0.0,-3.1926,0.0,0.0,0.0,0.0,0.0,0.0,0.0,0.0,0.0,0.0,0.0,-3.6059,-3.8432,-3.8984,-3.9532,-4.0473,-4.1006,-4.1288,0.0,0.0,0.0,0.0,0.0,0.0,0.0,0.0,0.0,0.0,0.0,0.0,0.0,0.0,-3.3111,-3.2815,-3.2202,-3.1707,-3.1575,0.0,0.0,0.0,0.0,0.0,0.0,0.0,0.0,0.0,0.0,0.0,0.0,0.0,0.0,0.0,0.0,-3.7707,0.0,0.0,0.0,0.0,0.0,0.0,0.0,0.0,-3.8249,-3.8112,-3.787,-3.7853,-3.7318,0.0,-3.6577,-3.6559,0.0,0.0,0.0,0.0,0.0,0.0,0.0,0.0,-3.5639,-3.5639,-3.5639,-3.5639,-3.5639,-3.5639,-3.5639,-3.5622,-3.5368,-3.4658,-3.344,-3.2638,-3.1854,0.0,0.0,0.0,0.0,0.0,0.0,0.0,0.0,0.0,0.0,0.0,0.0,0.0,0.0,0.0,0.0,0.0,0.0,0.0,0.0,0.0,0.0,0.0,-3.1781,0.0,0.0,0.0,0.0,0.0,0.0,0.0,0.0,0.0,-3.5115,-3.53,-3.5998,-3.7764,-3.8324,-3.8709,-3.9408,0.0,0.0,0.0,0.0,0.0,0.0,0.0,-3.844,-3.7833,-3.703,-3.6256,-3.547,-3.4975,-3.4651,-3.4581,0.0,0.0,-3.3232,-3.2642,-3.2145,-3.2234,-3.2291,-3.2222,-3.1903,-3.1929,-3.1873,0.0,0.0,0.0,0.0,0.0,0.0,0.0,0.0,-4.0324,-3.9712,0.0,-3.8001,0.0,0.0,0.0,0.0,0.0,0.0,0.0,0.0,-3.9612,-3.9267,-3.8612,-3.8543,-3.7749,-3.6387,-3.706,-3.7025,-3.6318,-3.6284,0.0,0.0,0.0,0.0,0.0,0.0,-3.5639,-3.5639,-3.5639,-3.5639,-3.5639,-3.5639,-3.5605,-3.5554,-3.4844,-3.41,-3.3389,-3.2487,-3.1739,-3.1049,-3.0814,0.0,0.0,0.0,0.0,0.0,0.0,0.0,0.0,0.0,0.0,0.0,0.0,0.0,0.0,0.0,0.0,0.0,0.0,0.0,0.0,-3.0861,0.0,0.0,0.0,0.0,0.0,0.0,0.0,0.0,0.0,0.0,-3.4701,-3.5341,-3.6151,-3.734,0.0,0.0,0.0,0.0,-3.8411,-3.831,-3.8411,-3.8361,-3.8059,-3.7827,-3.7263,-3.6123,0.0,0.0,-3.4853,-3.5282,-3.5538,-3.5449,-3.4781,-3.4271,-3.369,-3.3241,-3.3113,-3.3598,-3.3135,-3.2952,-3.3321,-3.2818,-3.2431,-4.6978,0.0,0.0,0.0,0.0,-4.3188,-4.2599,-4.2203,-4.1286,-4.0416,-3.9596,-3.8701,0.0,0.0,0.0,0.0,0.0,0.0,-3.8991,-3.9646,-3.9146,-3.8801,-3.856,-3.8043,-3.7267,-3.6335,-3.6525,-3.6525,-3.6301,-3.6284,-3.6233,-3.614,0.0,0.0,0.0,0.0,-3.5639,-3.5639,-3.5639,-3.5639,-3.5639,-3.5639,-3.5351,-3.481,-3.41,-3.3372,-3.2628,-3.1763,-3.1234,-3.0992,-3.0733,0.0,0.0,0.0,0.0,0.0,0.0,0.0,0.0,0.0,0.0,0.0,0.0,0.0,0.0,0.0,0.0,0.0,0.0,0.0,-3.0165,-3.0812,-3.1426,0.0,0.0,0.0,0.0,0.0,0.0,0.0,0.0,0.0,-3.3804,-3.5018,-3.61,0.0,0.0,-3.7352,-3.7014,-3.7443,-3.776,-3.776,0.0,0.0,0.0,-3.7282,-3.6931,-3.6266,-3.5352,-3.4697,-3.4612,-3.4299,-3.3988,-3.3917,-3.3776,-3.3565,-3.3269,-3.3072,-3.2973,-3.2866,-3.2942,-3.2937,-3.27,-3.2736,-3.2744,-4.7897,-4.7226,-4.6477,-4.5869,-4.5293,-4.4224,-4.343,-4.2882,-4.1768,-4.0948,-4.036,-3.9461,-3.9026,-3.9008,-3.8715,0.0,0.0,0.0,-3.8974,-3.9664,-3.8922,-3.8422,-3.8129,-3.768,-3.706,-3.6301,-3.6284,-3.6284,-3.6284,-3.6284,-3.6233,-3.6122,0.0,0.0,-3.5711,-3.5622,-3.5639,-3.5639,-3.5639,-3.5639,-3.5622,-3.5318,-3.4945,-3.4489,-3.3491,-3.2747,-3.2249,-3.1402,-3.0935,-3.0895,-3.0609,-3.0443,0.0,0.0,0.0,0.0,0.0,0.0,0.0,0.0,0.0,0.0,0.0,-2.892,-2.8795,0.0,0.0,0.0,-2.8811,-2.9234,-3.0069,-3.0462,0.0,0.0,0.0,0.0,0.0,0.0,0.0,-3.1951,-3.2269,-3.2631,-3.3072,-3.4207,-3.5165,-3.5821,-3.6172,-3.6223,-3.5852,0.0,-3.6439,-3.6387,-3.6439,-3.6372,-3.6099,-3.5977,-3.5682,-3.5004,-3.4082,-3.3393,-3.3309,-3.2889,-3.2609,-3.2595,-3.2581,-3.2498,-3.2194,-3.2208,-3.2332,-3.2695,-3.2796,-3.2763,-3.2608,-3.2643,-3.2589,-4.819,-4.7974,-4.7875,-4.7127,-4.6032,-4.5104,-4.4146,-4.3094,-4.1911,-4.1318,-4.1139,-4.0118,-3.9698,-3.9646,-3.8991,0.0,0.0,-3.8922,-3.8957,-3.9577,-3.8853,-3.8146,-3.7491,-3.7465,-3.7008,-3.6284,-3.6284,-3.6284,-3.6284,-3.6284,-3.6191,-3.6036,-3.6036,-3.5888,-3.5622,-3.5639,-3.5639,-3.5639,-3.5639,-3.5605,-3.552,-3.4844,-3.4438,-3.4286,-3.3,-3.2215,-3.1991,-3.1304,-3.0831,-3.0692,-3.0501,-3.0333,-3.0189,0.0,0.0,0.0,0.0,0.0,0.0,0.0,0.0,0.0,0.0,0.0,0.0,0.0,0.0,0.0,-2.8684,0.0,-2.9814,-3.0019,0.0,0.0,0.0,-3.2133,-3.2336,-3.2079,-3.1868,-3.1495,0.0,0.0,-3.2514,0.0,-3.3675,-3.4567,-3.4684,-3.4714,-3.4551,-3.464,-3.4655,-3.4537,-3.4589,-3.4574,-3.4321,-3.4187,-3.3893,-3.2919,-3.2103,-3.1782,-3.1664,-3.1569,-3.1513,-3.1569,-3.1499,-3.1366,-3.1003,-3.0991,-3.1351,-3.2718,-3.2491,-3.2182,-3.2548,-3.2304,-3.1979,-4.8286,-4.7992,-4.7951,-4.7578,-4.688,-4.5362,-4.4466,-4.3864,-4.2139,-4.1318,-4.1157,-4.0164,-3.9698,-3.9681,-3.9526,-3.9526,-3.9664,-3.8939,-3.8681,-3.8801,-3.8094,-3.7663,-3.7456,-3.687,-3.649,-3.6301,-3.6284,-3.6284,-3.6284,-3.6284,-3.6174,-3.6019,-3.6036,-3.5888,-3.5622,-3.5639,-3.5639,-3.5639,-3.5639,-3.5334,-3.4776,-3.4573,-3.3947,-3.2831,-3.2377,-3.1881,-3.1284,-3.0938,-3.0692,-3.0568,-3.0359,-3.0189,-3.006,-2.9842,0.0,0.0,0.0,0.0,0.0,0.0,0.0,0.0,0.0,-2.8668,-2.8621,0.0,-2.8444,0.0,-2.8589,-2.8762,-2.9076,-3.0014,0.0,0.0,-3.1712,-3.2228,-3.1966,-3.1739,-3.1509,-3.1234,-3.1131,-3.1229,-3.156,-3.1729,-3.206,-3.2601,-3.3223,-3.3434,-3.2985,-3.2962,-3.3027,-3.2941,-3.2956,-3.2818,-3.2665,-3.2425,-3.225,-3.1962,-3.1688,-3.1551,-3.1485,-3.1485,-3.1485,-3.1485,-3.1338,-3.1177,-3.0934,-3.0855,-3.0761,-3.1073,-3.092,-3.0866,-3.1002,-3.0934,-3.0839,-4.8304,-4.7955,-4.7591,-4.722,-4.6726,-4.5394,-4.4446,-4.3651,-4.2176,-4.1363,-4.1174,-4.0498,-4.0026,-3.9698,-3.9698,-3.9508,-3.9163,-3.8439,-3.8094,-3.806,-3.7301,-3.6956,-3.6922,-3.6508,-3.6284,-3.6284,-3.6284,-3.6284,-3.6284,-3.6284,-3.6174,-3.6019,-3.6036,-3.5888,-3.5622,-3.5639,-3.5639,-3.556,-3.5284,-3.4912,-3.4489,-3.3846,-3.3119,-3.2347,-3.183,-3.1395,-3.0952,-3.079,-3.0609,-3.0443,-3.0274,-3.0103,-2.9913,-2.9665,-2.9502,0.0,0.0,0.0,0.0,0.0,0.0,0.0,0.0,0.0,0.0,0.0,-2.8411,0.0,-2.8444,-2.8664,-2.9104,-2.9754,-3.0196,-3.0366,-3.0952,-3.118,-3.0839,-3.0839,-3.0893,-3.097,-3.0747,-3.0768,-3.1205,-3.0922,-3.0725,-3.1019,-3.1425,-3.1804,-3.2148,-3.2241,-3.2256,-3.2177,-3.2177,-3.2112,-3.1917,-3.1466,-3.1166,-3.1152,-3.089,-3.0642,-3.0656,-3.0656,-3.0656,-3.0656,-3.0499,-3.0369,-3.0107,-2.9976,-2.9791,-2.9658,-2.9604,-2.9794,-3.0296,-3.0405,-3.0405,-4.8159,-4.7795,-4.6971,-4.6368,-4.5888,-4.5144,-4.4174,-4.305,-4.2053,-4.1453,-4.1163,-4.1012,-4.044,-3.9698,-3.9595,-3.9146,-3.8405,-3.7663,-3.7335,-3.7284,-3.6628,-3.6284,-3.6284,-3.6284,-3.6284,-3.6284,-3.6284,-3.6284,-3.6284,-3.6284,-3.6216,-3.6019,-3.6019,-3.5837,-3.5487,-3.5487,-3.5487,-3.547,-3.4827,-3.4404,-3.4201,-3.2974,-3.2239,-3.2121,-3.1392,-3.0952,-3.0871,-3.0733,-3.0568,-3.0316,-3.0231,-3.006,-2.9766,-2.947,-2.9213,0.0,-2.892,0.0,0.0,0.0,0.0,0.0,0.0,0.0,0.0,-2.8411,-2.8411,-2.8411,-2.8411,-2.8691,-2.936,-2.9369,-2.9597,-3.0114,-3.0075,-2.9818,-2.9594,-2.9781,-3.0102,-3.0529,-3.0261,-3.0326,-3.0826,-3.0221,-2.9709,-2.9865,-2.9888,-3.0395,-3.1404,-3.1654,-3.164,-3.174,-3.174,-3.1454,-3.1324,-3.0777,-3.0417,-3.0347,-3.0038,-2.9617,-2.9673,-2.9673,-2.9645,-2.9582,-2.9512,-2.9344,-2.9099,-2.8949,-2.8757,-2.8746,-2.8695,-2.8994,-2.9821,-3.0066,-3.0174,-4.7482,-4.7148,-4.6227,-4.5303,-4.4451,-4.4165,-4.3674,-4.305,-4.2176,-4.1515,-4.114,-4.0982,-4.0457,-3.9664,-3.9077,-3.8387,-3.7663,-3.687,-3.6525,-3.6508,-3.637,-3.6284,-3.6284,-3.6284,-3.6284,-3.6284,-3.6284,-3.6284,-3.6284,-3.6284,-3.6233,-3.6165,-3.6165,-3.5728,-3.4933,0.0,0.0,0.0,-3.4573,-3.3914,-3.2788,-3.2466,-3.2043,-3.1427,-3.1099,0.0,-3.0749,-3.0526,-3.0274,-2.9941,-2.9897,0.0,0.0,0.0,0.0,0.0,0.0,0.0,0.0,0.0,0.0,0.0,-2.8444,-2.8396,-2.8411,-2.8411,-2.8411,-2.8411,-2.8411,-2.8458,-2.8596,-2.9008,-2.9175,-2.9107,-2.9448,-2.9564,-2.9222,-2.916,-2.911,-2.9071,-2.8929,-2.8986,-2.9366,-2.9188,-2.9195,-2.9496,-2.9651,-2.9749,-3.0037,-3.031,-3.042,-3.0253,-3.0227,-3.0122,-3.0003,-2.9869,-2.9771,-2.9757,-2.9729,-2.9588,-2.9546,-2.9546,-2.9526,-2.9435,-2.9289,-2.9071,-2.8881,-2.8716,-2.8583,-2.8573,-2.8573,-2.8668,-2.8885,-2.894,-2.8926,-4.7058,0.0,-4.5423,-4.4651,0.0,-4.3462,-4.3,-4.269,-4.2086,-4.1533,-4.1093,-4.0935,-4.025,-3.9129,-3.875,-3.7974,-3.6887,-3.649,-3.6284,-3.6284,-3.6284,-3.6284,-3.6284,-3.6284,-3.6284,-3.6266,-3.5939,-3.5749,-3.5732,-3.5387,-3.5173,-3.505,-3.5067,-3.4761,-3.4218,-3.4193,-3.4092,-3.3947,-3.3575,-3.3034,-3.2347,-3.1894,-3.1466,-3.1128,0.0,0.0,0.0,0.0,0.0,0.0,0.0,0.0,0.0,0.0,0.0,-2.8967,-2.8732,-2.8556,-2.8493,-2.8493,-2.8493,-2.8411,-2.8411,-2.8411,-2.8411,-2.8411,-2.8348,-2.8299,-2.8299,-2.8299,-2.8217,-2.8408,-2.844,-2.8252,-2.833,-2.8329,-2.8145,-2.8232,-2.8373,-2.8566,-2.844,-2.8512,-2.889,-2.8559,-2.8457,-2.8647,-2.8703,-2.8731,-2.8774,-2.936,-2.9789,-2.9727,-2.9651,-2.949,-2.9223,-2.9153,-2.9026,-2.8802,-2.8703,-2.8717,-2.8703,-2.8629,-2.8554,-2.8432,-2.8263,-2.8078,-2.7954,-2.7843,-2.7732,-2.7759,-2.7949,-2.8139,-2.818,-2.8383,-2.8587,-4.6651,-4.5645,-4.4675,-4.4144,-4.3862,-4.3018,-4.253,-4.2246,0.0,0.0,0.0,-4.0827,-3.9951,-3.8594,-3.8456,-3.7629,-3.6318,-3.6284,-3.6284,-3.6284,-3.6284,-3.6232,-3.6111,-3.6111,-3.6042,-3.5887,-3.5301,-3.499,-3.499,-3.4387,-3.4037,-3.394,-3.394,-3.3831,-3.3573,-3.3332,-3.3158,-3.3042,-3.2527,-3.2205,-3.207,-3.1375,-3.0975,-3.0975,-3.0692,-3.0526,-3.0485,-3.0316,-3.006,-2.9766,-2.9722,-2.9589,-2.9243,-2.9013,-2.8858,-2.8794,-2.8556,-2.8411,-2.8411,-2.8411,-2.8411,-2.8411,-2.8411,-2.8411,-2.8411,-2.8411,-2.8348,-2.8186,-2.8186,-2.8137,-2.8005,-2.789,-2.774,-2.7575,-2.7321,-2.7144,-2.7047,-2.7268,-2.7628,-2.8008,-2.7868,-2.7982,-2.8434,-2.802,-2.7664,-2.7762,-2.7888,-2.7776,-2.7888,-2.8619,-2.9167,-2.9167,-2.9111,-2.9055,-2.8675,-2.8535,-2.8324,-2.7959,-2.7846,-2.7776,-2.7776,-2.7645,-2.7499,-2.7551,-2.729,-2.7166,-2.7092,-2.6965,-2.6823,-2.6823,-2.7203,-2.7556,-2.7596,-2.7936,-2.8302,-4.5925,-4.5047,-4.4046,-4.3504,-4.3287,-4.2992,-4.2573,-4.2103,-4.1762,-4.1471,-4.1111,-4.0366,-3.9496,-3.8543,-3.7922,-3.7146,-3.6301,-3.6284,-3.6284,0.0,-3.6284,-3.5956,-3.537,-3.5352,-3.5007,-3.4421,-3.4283,-3.4249,-3.4231,-3.4111,-3.4076,-3.4059,-3.4093,-3.367,-3.2899,-3.2188,-3.173,-3.1635,-3.2083,-3.1928,-3.12,-3.1066,-3.0975,-3.0912,-3.0749,-3.0568,-3.0417,-3.029,-2.9989,-2.9563,-2.9547,-2.935,-2.8951,-2.8858,-2.8732,-2.8636,-2.8493,-2.8411,-2.8411,-2.8411,-2.8411,-2.8411,-2.8411,-2.8411,-2.8411,-2.8411,-2.8348,-2.8235,-2.8186,-2.8137,-2.8005,-2.784,-2.769,-2.7452,-2.7284,-2.7078,-2.6884,-2.6732,-2.6687,-2.6723,-2.6489,-2.6594,-2.706,-2.7017,-2.7144,-2.7593,-2.7579,-2.7706,-2.7678,-2.7917,-2.8029,-2.8029,-2.8029,-2.8001,-2.7931,-2.7902,-2.7818,-2.7804,-2.7692,-2.7621,-2.7621,-2.7477,-2.7301,-2.7308,-2.7047,-2.6969,-2.6802,-2.6823,-2.6714,-2.6687,-2.6823,-2.6945,-2.6959,-2.7094,-2.7447,-4.5127,-4.4325,-4.3731,-4.3428,-4.3305,-4.2994,-4.2609,-4.2205,-4.1927,-4.1376,-4.069,-4.0145,-3.9212,-3.8061,-3.7672,-3.7042,-3.6266,-3.5887,-3.5697,-3.5663,-3.5283,-3.4938,-3.4611,-3.4611,-3.4421,-3.4059,-3.3645,-3.3455,-3.3421,-3.3041,-3.2835,-3.2852,-3.2852,-3.2624,-3.2149,-3.1747,-3.1483,-3.1406,-3.1652,-3.1534,-3.1112,-3.0992,-3.0935,-3.0895,-3.0651,-3.0459,-3.029,-3.0087,-2.9842,-2.9518,-2.9473,-2.9259,-2.892,-2.8858,-2.8747,-2.8636,-2.8493,-2.8411,-2.8411,-2.8411,-2.8411,-2.8411,-2.8411,-2.8411,-2.8411,-2.8411,-2.8314,-2.8103,-2.8137,-2.8088,-2.7855,-2.779,-2.769,-2.735,-2.7233,-2.7093,-2.6832,-2.6712,-2.6553,-2.634,-2.6218,-2.6238,-2.6273,-2.6315,-2.6385,-2.6708,-2.6764,-2.6764,-2.6778,-2.6778,-2.7017,-2.768,-2.7776,-2.7621,-2.734,-2.7242,-2.7116,-2.6835,-2.6764,-2.675,-2.6764,-2.6595,-2.6452,-2.6323,-2.6164,-2.5963,-2.586,-2.5846,-2.5833,-2.5873,-2.6131,-2.6267,-2.6335,-2.6565,-2.7135,-4.4624,-4.3786,-4.3652,-4.3481,-4.3305,-4.2956,-4.2649,-4.231,-4.1961,-4.1153,-4.0184,-3.9834,-3.8937,-3.7663,-3.7214,-3.6671,-3.6008,-3.5283,-3.4956,-3.4869,-3.4352,-3.399,-3.3835,-3.3818,-3.3731,-3.3542,-3.2955,-3.2645,-3.2576,-3.2076,-3.18,-3.18,-3.18,-3.1763,-3.1654,-3.1671,-3.1596,-3.1538,-3.1445,-3.1312,-3.119,-3.1032,-3.0952,-3.0831,-3.0609,-3.0375,-3.0189,-2.9957,-2.9738,-2.9518,-2.9366,-2.9167,-2.8873,-2.8826,-2.8747,-2.8589,-2.8444,-2.8411,-2.8411,-2.8411,-2.8411,-2.8411,-2.8411,-2.8411,-2.8411,-2.8411,-2.8314,-2.8103,-2.8137,-2.8024,-2.774,-2.7725,-2.764,-2.7269,-2.7167,-2.7078,-2.6832,-2.6765,-2.6621,-2.634,-2.6286,-2.6179,-2.5948,-2.5893,-2.5936,-2.595,-2.5893,-2.5893,-2.5893,-2.5893,-2.6357,-2.6989,-2.7355,-2.713,-2.668,-2.661,-2.6427,-2.5936,-2.5936,-2.6006,-2.5951,-2.5744,-2.5522,-2.5535,-2.5312,-2.517,-2.5046,-2.5059,-2.5086,-2.5168,-2.5453,-2.5683,-2.571,-2.6158,-2.6769,-4.4721,-4.3939,-4.3804,-4.355,-4.3214,-4.2975,-4.2691,-4.2266,-4.152,-4.057,-3.9535,-3.9308,-3.8546,-3.749,-3.6208,-3.5503,-3.5249,-3.4525,-3.4197,-3.418,-3.4128,-3.3714,-3.3059,-3.3007,-3.2662,-3.2127,-3.1972,-3.1972,-3.1972,-3.1852,-3.18,-3.18,-3.18,-3.18,-3.18,-3.18,-3.1726,-3.1579,-3.1579,-3.1445,-3.123,-3.119,-3.1015,-3.0733,-3.0692,-3.0526,-3.0231,-3.006,-2.9858,-2.9518,-2.9366,-2.9121,-2.8842,-2.881,-2.87,-2.8444,-2.8411,-2.8411,-2.8411,-2.8411,-2.8411,-2.8411,-2.8411,-2.8411,-2.8411,-2.8411,-2.8348,-2.8235,-2.8186,-2.8088,-2.784,-2.779,-2.764,-2.7269,-2.7233,-2.7093,-2.6832,-2.6645,-2.6472,-2.634,-2.6218,-2.6056,-2.5948,-2.5893,-2.5893,-2.5893,-2.5893,-2.5893,-2.5893,-2.5893,-2.5921,-2.6104,-2.6104,-2.6132,-2.6034,-2.5992,-2.6006,-2.5907,-2.5893,-2.5893,-2.5853,-2.5702,-2.5508,-2.5453,-2.5244,-2.5005,-2.5005,-2.5005,-2.5005,-2.5005,-2.51,-2.5127,-2.5168,-2.5575,-2.6172,-4.4276,-4.3897,-4.3883,-4.3686,-4.3393,-4.3105,-4.2609,-4.1931,-4.1354,-4.0085,-3.8475,-3.806,-3.7399,-3.6423,-3.5717,-3.5134,-3.4552,-3.377,-3.3386,-3.3335,-3.2938,-3.2559,-3.2283,-3.2248,-3.2076,-3.1817,-3.18,-3.18,-3.18,-3.18,-3.18,-3.18,-3.18,-3.18,-3.18,-3.18,-3.1783,-3.1709,-3.1709,-3.1391,-3.0823,-3.1048,-3.1072,-3.0831,-3.0733,-3.0526,-3.0231,-3.0,-2.9754,-2.9518,-2.9321,-2.9029,-2.8794,-2.881,-2.87,-2.846,-2.8411,-2.8411,-2.8411,-2.8411,-2.8411,-2.8411,-2.8411,-2.8411,-2.8411,-2.8411,-2.8396,-2.8444,-2.8332,-2.8201,-2.7955,-2.792,-2.7755,-2.7386,-2.735,-2.7196,-2.6832,-2.6817,-2.6712,-2.6486,-2.6272,-2.6179,-2.6056,-2.5948,-2.5893,-2.5893,-2.5893,-2.5893,-2.5893,-2.5893,-2.5893,-2.5893,-2.5893,-2.5893,-2.5893,-2.5893,-2.5893,-2.5893,-2.5893,-2.5893,-2.5907,-2.5702,-2.5508,-2.5508,-2.5257,-2.5005,-2.5005,-2.5005,-2.5005,-2.5005,-2.5005,-2.5005,-2.5005,-2.5195,-2.5493,-4.3974,-4.3929,-4.3897,-4.3734,-4.3479,-4.3032,-4.2432,-4.1596,-4.0684,-3.926,-3.763,-3.6893,-3.605,-3.5209,-3.4965,-3.4501,-3.3835,-3.3031,-3.2631,-3.2541,-3.2024,-3.18,-3.18,-3.18,-3.18,-3.18,-3.18,-3.18,-3.18,-3.18,-3.18,-3.18,-3.18,-3.18,-3.18,-3.18,-3.18,-3.18,-3.18,-3.145,-3.0817,-3.087,-3.0746,-3.0342,-3.0212,-2.9987,-2.9641,-2.9371,-2.9157,-2.8942,-2.8862,-2.8761,-2.8561,-2.8717,-2.8732,-2.8556,-2.8508,-2.8508,-2.8493,-2.8508,-2.8508,-2.8493,-2.8508,-2.8508,-2.8508,-2.8508,-2.8541,-2.8636,-2.8541,-2.8411,-2.8152,-2.8069,-2.7855,-2.7488,-2.7437,-2.7248,-2.6974,-2.6989,-2.6884,-2.6645,-2.6379,-2.6233,-2.6056,-2.5948,-2.5893,-2.5893,-2.5893,-2.5893,-2.5893,-2.5893,-2.5893,-2.5893,-2.5893,-2.5893,-2.5893,-2.5893,-2.5893,-2.5893,-2.5893,-2.5893,-2.5893,-2.5702,-2.555,-2.5494,-2.5257,-2.5075,-2.5005,-2.5005,-2.5005,-2.5005,-2.5005,-2.5005,-2.5005,-2.5018,-2.5018,-4.4005,-4.3974,-4.3851,-4.3667,-4.3424,-4.2587,-4.2012,-4.1325,-3.9262,-3.7969,-3.7274,-3.5954,-3.4746,-3.3847,-3.365,-3.3363,-3.3075,-3.2362,-3.196,-3.1903,-3.1834,-3.18,-3.18,-3.18,-3.18,-3.18,-3.18,-3.18,-3.18,-3.18,-3.18,-3.18,-3.18,-3.18,-3.18,-3.18,-3.18,-3.18,-3.18,-3.162,-3.135,-3.0748,-2.9915,-2.8988,-2.8812,-2.8671,-2.823,-2.8054,-2.7883,-2.7534,-2.8013,-2.817,-2.8025,-2.8481,-2.8748,-2.8716,-2.87,-2.8732,-2.8669,-2.8638,-2.8669,-2.8716,-2.8654,-2.8732,-2.8747,-2.8763,-2.8747,-2.8794,-2.8747,-2.8652,-2.8334,-2.8122,-2.789,-2.764,-2.7488,-2.7335,-2.7167,-2.7093,-2.6951,-2.6779,-2.65,-2.6218,-2.5948,-2.5893,-2.5893,-2.5893,-2.5893,-2.5893,-2.5893,-2.5893,-2.5893,-2.5893,-2.5893,-2.5893,-2.5893,-2.5893,-2.5893,-2.5893,-2.5893,-2.5893,-2.5839,-2.5784,-2.5633,-2.5481,-2.53,-2.5118,-2.5061,-2.5005,-2.5005,-2.5005,-2.5005,-2.5005,-2.5005,-2.5005,-2.5005,-4.4005,-4.4005,-4.3897,-4.349,-4.2838,-4.1901,-4.0833,-3.9553,-3.8041,-3.6714,-3.5666,-3.484,-3.3995,-3.3199,-3.2964,-3.2704,-3.2437,-3.2052,-3.1858,-3.18,-3.18,-3.18,-3.18,-3.18,-3.18,-3.18,-3.18,-3.18,-3.18,-3.18,-3.18,-3.18,-3.18,-3.18,-3.18,-3.18,-3.18,-3.18,-3.18,-3.1465,-3.0837,-3.0065,-2.917,-2.8152,-2.8464,-2.8472,-2.7994,-2.7939,-2.7753,-2.7474,-2.7604,-2.7588,-2.7359,-2.7447,-2.7514,-2.7484,-2.7484,-2.7439,-2.7469,-2.7439,-2.7671,-2.8061,-2.8108,-2.8311,-2.8685,-2.881,-2.8842,-2.8826,-2.8826,-2.8591,-2.814,-2.8119,-2.8103,-2.779,-2.7675,-2.7479,-2.7284,-2.7248,-2.7159,-2.6937,-2.6568,-2.6233,-2.6028,-2.5948,-2.5893,-2.5893,-2.5893,-2.5893,-2.5893,-2.5893,-2.5893,-2.5893,-2.5893,-2.5893,-2.5893,-2.5893,-2.5893,-2.5893,-2.5893,-2.5893,-2.5893,-2.5784,-2.5688,-2.5578,-2.5397,-2.523,-2.5118,-2.5005,-2.5005,-2.5005,-2.5005,-2.5005,-2.5005,-2.5005,-2.5005,-4.4005,-4.3899,-4.3373,-4.2791,-4.2081,-4.0583,-3.9282,-3.8016,-3.6789,-3.5628,-3.4648,-3.4087,-3.353,-3.2955,-3.2707,-3.2439,-3.2196,-3.202,-3.1912,-3.1819,-3.1819,-3.18,-3.18,-3.18,-3.18,-3.18,-3.18,-3.18,-3.18,-3.18,-3.18,-3.18,-3.18,-3.18,-3.18,-3.18,-3.18,-3.18,-3.18,-3.1468,-3.0717,-2.9775,-2.8934,-2.8174,-2.8048,-2.7811,-2.7454,-2.7316,-2.716,-2.6937,-2.7033,-2.7093,-2.7047,-2.691,-2.6823,-2.6839,-2.6854,-2.6839,-2.6839,-2.6839,-2.7027,-2.7433,-2.7512,-2.7731,-2.8185,-2.8232,-2.8262,-2.8292,-2.8292,-2.7981,-2.764,-2.769,-2.7672,-2.7352,-2.7255,-2.7109,-2.6862,-2.6783,-2.6618,-2.628,-2.6145,-2.605,-2.5909,-2.6011,-2.6042,-2.6002,-2.6056,-2.6002,-2.5948,-2.5948,-2.5948,-2.5893,-2.5893,-2.5893,-2.5893,-2.5879,-2.5851,-2.5851,-2.5893,-2.5893,-2.5893,-2.5839,-2.5729,-2.5674,-2.5564,-2.5342,-2.523,-2.5118,-2.5005,-2.5005,-2.5005,-2.5005,-2.5005,-2.5005,-2.5005,-4.3968,-4.3726,-4.2187,-4.1508,-4.1051,-3.8844,-3.7573,-3.7063,-3.5648,-3.479,-3.4395,-3.3743,-3.3273,-3.2948,-3.282,-3.2641,-3.2371,-3.2196,-3.2037,-3.1912,-3.1819,-3.1783,-3.18,-3.18,-3.18,-3.18,-3.18,-3.18,-3.18,-3.18,-3.18,-3.18,-3.18,-3.18,-3.18,-3.18,-3.18,-3.18,-3.18,-3.1654,-3.1329,-3.0048,-2.9138,-2.8629,-2.7444,-2.6599,-2.6336,-2.6195,-2.604,-2.5848,-2.6257,-2.6784,-2.6962,-2.692,-2.6988,-2.6867,-2.6945,-2.7036,-2.6945,-2.6898,-2.6835,-2.7056,-2.7056,-2.7103,-2.7292,-2.7277,-2.7277,-2.7308,-2.7261,-2.7076,-2.6942,-2.6811,-2.6696,-2.6305,-2.6336,-2.6213,-2.6075,-2.583,-2.5456,-2.5199,-2.5423,-2.564,-2.5563,-2.5716,-2.592,-2.5948,-2.5977,-2.5962,-2.5799,-2.5785,-2.5875,-2.5821,-2.5584,-2.5416,-2.564,-2.5851,-2.5823,-2.5795,-2.5865,-2.5893,-2.5893,-2.5839,-2.5839,-2.5729,-2.5633,-2.5467,-2.523,-2.5118,-2.5005,-2.5005,-2.5005,-2.5005,-2.5005,-2.5005,-2.5005,-4.323,-4.2983,-4.1412,-4.0362,-3.9581,-3.7711,-3.65,-3.5735,-3.4614,-3.4082,-3.3933,-3.356,-3.3304,-3.3152,-3.2965,-3.2755,-3.2506,-3.2371,-3.2144,-3.1948,-3.1875,-3.1839,-3.1783,-3.18,-3.18,-3.18,-3.18,-3.18,-3.18,-3.18,-3.18,-3.18,-3.18,-3.18,-3.18,-3.18,-3.18,-3.18,-3.18,-3.1726,-3.1476,-3.0067,-2.9208,-2.8861,-2.7415,-2.6537,-2.6485,-2.617,-2.5901,-2.568,-2.5875,-2.595,-2.5902,-2.5775,-2.571,-2.5629,-2.5629,-2.5629,-2.5686,-2.5677,-2.5914,-2.623,-2.6356,-2.6609,-2.702,-2.7067,-2.7051,-2.7067,-2.7099,-2.6898,-2.6356,-2.6114,-2.61,-2.6227,-2.6229,-2.6016,-2.5895,-2.5694,-2.5506,-2.5269,-2.5155,-2.5026,-2.4905,-2.5062,-2.5126,-2.5126,-2.5112,-2.5061,-2.4967,-2.5,-2.4793,-2.469,-2.4718,-2.485,-2.4962,-2.5047,-2.4994,-2.5149,-2.5359,-2.55,-2.5584,-2.5626,-2.5669,-2.563,-2.5549,-2.5439,-2.5231,-2.5118,-2.5061,-2.5005,-2.5005,-2.5005,-2.5005,-2.5005,-2.5005,-4.2225,-4.1739,-4.0123,-3.8962,-3.7979,-3.6385,-3.5325,-3.4684,-3.4107,-3.3788,-3.3716,-3.3549,-3.3422,-3.3292,-3.306,-3.2834,-3.2705,-3.2541,-3.2301,-3.2055,-3.1948,-3.1875,-3.1819,-3.1783,-3.18,-3.18,-3.18,-3.18,-3.18,-3.18,-3.18,-3.18,-3.18,-3.18,-3.18,-3.18,-3.18,-3.18,-3.18,-3.1608,-3.1033,-2.9966,-2.9107,-2.8558,-2.7333,-2.6673,-2.6589,-2.626,-2.601,-2.5811,-2.5663,-2.5492,-2.5333,-2.5217,-2.5068,-2.5005,-2.5021,-2.5037,-2.5005,-2.5084,-2.5163,-2.5535,-2.5614,-2.5787,-2.6214,-2.6309,-2.6309,-2.6325,-2.6261,-2.6135,-2.5658,-2.5491,-2.5545,-2.5734,-2.5636,-2.5551,-2.5391,-2.5182,-2.4912,-2.4685,-2.4614,-2.4524,-2.4438,-2.4615,-2.4575,-2.4589,-2.4589,-2.454,-2.4476,-2.4469,-2.4298,-2.4248,-2.4317,-2.4337,-2.4239,-2.4188,-2.4174,-2.4455,-2.4765,-2.4826,-2.4924,-2.491,-2.4938,-2.4998,-2.4947,-2.5023,-2.486,-2.5107,-2.5118,-2.5061,-2.4896,-2.5005,-2.5005,-2.5005,-2.5005,-4.1101,-4.017,-3.8469,-3.7355,-3.6538,-3.4946,-3.4266,-3.4111,-3.3991,-3.3868,-3.378,-3.3671,-3.352,-3.3345,-3.3152,-3.2979,-3.2884,-3.2674,-3.2473,-3.2284,-3.2091,-3.1948,-3.1893,-3.1819,-3.18,-3.18,-3.18,-3.18,-3.18,-3.18,-3.18,-3.18,-3.18,-3.18,-3.18,-3.18,-3.18,-3.18,-3.1731,-3.1298,-3.057,-2.9641,-2.8851,-2.8066,-2.713,-2.6606,-2.6606,-2.6365,-2.6189,-2.5974,-2.5642,-2.5416,-2.5317,-2.5185,-2.5068,-2.5005,-2.5005,-2.5005,-2.5005,-2.5005,-2.5037,-2.51,-2.5116,-2.5005,-2.5211,-2.5306,-2.529,-2.5258,-2.5211,-2.5148,-2.5061,-2.4997,-2.4948,-2.4829,-2.4895,-2.4699,-2.4405,-2.4269,-2.4195,-2.3908,-2.3941,-2.4143,-2.4034,-2.436,-2.453,-2.4554,-2.451,-2.4341,-2.4293,-2.4158,-2.4324,-2.4183,-2.3885,-2.373,-2.3512,-2.3512,-2.3463,-2.3498,-2.3864,-2.4103,-2.432,-2.439,-2.4455,-2.4488,-2.4441,-2.4521,-2.4555,-2.4655,-2.4668,-2.4489,-2.4571,-2.4856,-2.4815,-2.4611,-2.4571,-3.9815,-3.9276,-3.7084,-3.5999,-3.5665,-3.46,-3.4148,-3.408,-3.4074,-3.3972,-3.3868,-3.378,-3.3643,-3.3462,-3.3364,-3.3135,-3.2916,-3.2773,-3.2608,-3.2473,-3.2249,-3.2001,-3.1856,-3.1837,-3.18,-3.18,-3.18,-3.18,-3.18,-3.18,-3.18,-3.18,-3.18,-3.18,-3.18,-3.18,-3.18,-3.1696,-3.1214,-3.092,-3.0418,-2.9144,-2.8357,-2.8066,-2.7165,-2.6708,-2.664,-2.6435,-2.6189,-2.5917,-2.5738,-2.5513,-2.5333,-2.524,-2.5162,-2.5005,-2.5005,-2.5005,-2.5005,-2.5005,-2.5005,-2.5005,-2.5005,-2.5005,-2.5005,-2.5005,-2.5005,-2.5005,-2.5005,-2.5005,-2.5021,-2.4982,-2.4942,-2.4942,-2.4766,-2.4564,-2.4441,-2.4317,-2.4135,-2.3827,-2.3789,-2.3689,-2.3568,-2.3549,-2.3679,-2.3572,-2.354,-2.3525,-2.3594,-2.3533,-2.354,-2.331,-2.3059,-2.2965,-2.2857,-2.281,-2.2734,-2.2597,-2.2879,-2.321,-2.3631,-2.4103,-2.4146,-2.4216,-2.4007,-2.4007,-2.3879,-2.3832,-2.3849,-2.4014,-2.3906,-2.3987,-2.3757,-2.3581,-2.3649,-3.8626,-3.8055,-3.6254,-3.5324,-3.4903,-3.442,-3.4173,-3.4148,-3.4099,-3.4049,-3.3965,-3.3842,-3.3726,-3.3577,-3.3452,-3.3274,-3.306,-3.2902,-3.2722,-3.2523,-3.2284,-3.2037,-3.1893,-3.1819,-3.18,-3.18,-3.18,-3.18,-3.18,-3.18,-3.18,-3.18,-3.18,-3.18,-3.18,-3.18,-3.161,-3.1317,-3.0869,-3.0437,-2.9679,-2.875,-2.8032,-2.7691,-2.7063,-2.6759,-2.6657,-2.6503,-2.6241,-2.5954,-2.5754,-2.5567,-2.5333,-2.5294,-2.5217,-2.5005,-2.5005,-2.5005,-2.5005,-2.5005,-2.5005,-2.5005,-2.5005,-2.5005,-2.5005,-2.5005,-2.5005,-2.5005,-2.5005,-2.5005,-2.5005,-2.5005,-2.5005,-2.4966,-2.4846,-2.4726,-2.4677,-2.4498,-2.4261,-2.4036,-2.3782,-2.3566,-2.3334,-2.3201,-2.3082,-2.3022,-2.3078,-2.3004,-2.2989,-2.2872,-2.2826,-2.2781,-2.2795,-2.2818,-2.2723,-2.2676,-2.2583,-2.2437,-2.2372,-2.2634,-2.2929,-2.3512,-2.3414,-2.3364,-2.3434,-2.3459,-2.3308,-2.333,-2.3585,-2.3589,-2.3294,-2.3121,-2.3094,-2.2891,-2.2931,-3.7455,-3.6603,-3.5802,-3.4976,-3.429,-3.4216,-3.4197,-3.4197,-3.4148,-3.4055,-3.3998,-3.3868,-3.367,-3.357,-3.3247,-3.3164,-3.2967,-3.2509,-3.2378,-3.2097,-3.1846,-3.1672,-3.1722,-3.1768,-3.1783,-3.18,-3.18,-3.18,-3.18,-3.18,-3.18,-3.18,-3.18,-3.18,-3.1748,-3.1696,-3.13,-3.0817,-3.0368,-2.9696,-2.8816,-2.8217,-2.7739,-2.7212,-2.6994,-2.6775,-2.664,-2.6503,-2.631,-2.5954,-2.5791,-2.5621,-2.5371,-2.5294,-2.5217,-2.5045,-2.5005,-2.5005,-2.5005,-2.5005,-2.5005,-2.5005,-2.5005,-2.5005,-2.5005,-2.5005,-2.5005,-2.5005,-2.5005,-2.5005,-2.5005,-2.5005,-2.5005,-2.5005,-2.4966,-2.4926,-2.4806,-2.4661,-2.4498,-2.4317,-2.3909,-2.3724,-2.3523,-2.3363,-2.3171,-2.3082,-2.2992,-2.2933,-2.2933,-2.2888,-2.2857,-2.2843,-2.2826,-2.2809,-2.2718,-2.2612,-2.252,-2.2399,-2.2306,-2.24,-2.2339,-2.2578,-2.2395,-2.2423,-2.2782,-2.2881,-2.2797,-2.2962,-2.3128,-2.3012,-2.26,-2.2739,-2.2864,-2.2461,-2.2339,-3.6162,-3.5856,-3.495,-3.4455,-3.4216,-3.4216,-3.4216,-3.4216,-3.4154,-3.4049,-3.4037,-3.3979,-3.3482,-3.2818,-3.2648,-3.2237,-3.1653,-3.1332,-3.095,-3.0706,-3.0527,-3.0832,-3.1202,-3.1548,-3.1748,-3.1783,-3.18,-3.18,-3.18,-3.18,-3.1783,-3.1765,-3.1679,-3.1765,-3.1662,-3.1127,-3.0886,-3.0506,-2.9575,-2.8851,-2.8403,-2.7751,-2.731,-2.7007,-2.6859,-2.6725,-2.6606,-2.652,-2.638,-2.6168,-2.5934,-2.5696,-2.541,-2.5294,-2.5217,-2.5045,-2.5005,-2.5005,-2.5005,-2.5005,-2.5005,-2.5005,-2.5005,-2.5005,-2.5005,-2.5005,-2.5005,-2.5005,-2.5005,-2.5005,-2.5005,-2.5005,-2.5005,-2.5005,-2.5005,-2.5005,-2.4942,-2.4822,-2.462,-2.44,-2.4219,-2.3994,-2.3696,-2.3566,-2.3363,-2.3171,-2.3082,-2.2978,-2.2933,-2.2933,-2.2888,-2.2888,-2.2888,-2.2826,-2.2795,-2.2689,-2.2583,-2.2431,-2.2324,-2.2231,-2.2184,-2.217,-2.217,-2.2184,-2.2283,-2.2376,-2.2462,-2.2249,-2.238,-2.2136,-2.201,-2.2061,-2.2079,-2.1839,-2.1866,-3.5799,-3.5633,-3.4759,-3.4293,-3.4245,-3.4221,-3.4216,-3.4104,-3.377,-3.3616,-3.3451,-3.3142,-3.2607,-3.2089,-3.195,-3.1563,-3.1093,-3.0686,-3.0481,-3.0353,-3.0166,-3.0217,-3.0464,-3.0838,-3.1114,-3.1666,-3.1819,-3.18,-3.18,-3.1731,-3.1593,-3.13,-3.1265,-3.0972,-3.0765,-3.0351,-2.9937,-2.9523,-2.8885,-2.8265,-2.7851,-2.7474,-2.7137,-2.7007,-2.6876,-2.6759,-2.6657,-2.6537,-2.6399,-2.6222,-2.6026,-2.577,-2.5486,-2.5317,-2.5201,-2.5084,-2.5005,-2.5005,-2.5005,-2.5005,-2.5005,-2.5005,-2.5005,-2.5005,-2.5005,-2.5005,-2.5005,-2.5005,-2.5005,-2.5005,-2.5005,-2.5005,-2.5005,-2.5005,-2.5005,-2.5005,-2.4966,-2.4846,-2.4726,-2.4523,-2.4385,-2.4219,-2.4009,-2.3782,-2.361,-2.3363,-2.3246,-2.3142,-2.3037,-2.2992,-2.2933,-2.2933,-2.2888,-2.2902,-2.2872,-2.2781,-2.2644,-2.2523,-2.237,-2.2278,-2.2231,-2.217,-2.217,-2.2184,-2.2245,-2.2198,-2.2216,-2.1949,-2.1807,-2.1835,-2.1794,-2.1512,-2.1415,-2.1578,-2.1605,-3.57,-3.5556,-3.4753,-3.4381,-3.4293,-3.4245,-3.4128,-3.3881,-3.3305,-3.2966,-3.2641,-3.1974,-3.1732,-3.1354,-3.1237,-3.1075,-3.0613,-3.0322,-2.9944,-2.9816,-2.9589,-2.966,-2.9808,-2.9924,-3.035,-3.1497,-3.1391,-3.1372,-3.1372,-3.1457,-3.0992,-3.0611,-3.0542,-3.0265,-2.9696,-2.9351,-2.9127,-2.8644,-2.8299,-2.7937,-2.7489,-2.7316,-2.7186,-2.704,-2.6942,-2.6876,-2.6759,-2.6623,-2.6468,-2.6312,-2.6063,-2.5824,-2.5637,-2.541,-2.524,-2.5107,-2.5045,-2.5005,-2.5005,-2.5005,-2.5005,-2.5005,-2.5005,-2.5005,-2.5005,-2.5005,-2.5005,-2.5005,-2.5005,-2.5005,-2.5005,-2.5005,-2.5005,-2.5005,-2.5005,-2.5005,-2.4966,-2.4886,-2.4806,-2.4726,-2.4564,-2.44,-2.4219,-2.3994,-2.3782,-2.3595,-2.3436,-2.3319,-2.3201,-2.3082,-2.3037,-2.2978,-2.2933,-2.2888,-2.2857,-2.2841,-2.2689,-2.2583,-2.2417,-2.2324,-2.2231,-2.2231,-2.2217,-2.217,-2.2184,-2.2184,-2.2137,-2.1996,-2.1902,-2.1793,-2.165,-2.1506,-2.1458,-2.141,-2.141,-3.4975,-3.4789,-3.4617,-3.4473,-3.4316,-3.4293,-3.3817,-3.3273,-3.299,-3.2581,-3.1982,-3.1733,-3.1168,-3.0706,-3.0441,-2.9917,-2.937,-2.9151,-2.8945,-2.879,-2.8656,-2.8811,-2.92,-2.9198,-2.9614,-3.0047,-3.0227,-3.0177,-3.0265,-3.0091,-3.0161,-2.9868,-2.9799,-2.9592,-2.9281,-2.8937,-2.8556,-2.8246,-2.7866,-2.7503,-2.74,-2.7299,-2.725,-2.7087,-2.704,-2.6942,-2.6876,-2.6742,-2.6607,-2.6468,-2.617,-2.5954,-2.5787,-2.5524,-2.5278,-2.5146,-2.5045,-2.5005,-2.5005,-2.5005,-2.5005,-2.5005,-2.5005,-2.5005,-2.5005,-2.5005,-2.5005,-2.5005,-2.5005,-2.5005,-2.5005,-2.5005,-2.5005,-2.5005,-2.5005,-2.5005,-2.5021,-2.4982,-2.4902,-2.4806,-2.4726,-2.462,-2.44,-2.4219,-2.3994,-2.3824,-2.3653,-2.348,-2.3319,-2.3201,-2.3127,-2.3037,-2.2992,-2.2933,-2.2888,-2.2826,-2.2749,-2.2689,-2.2583,-2.2417,-2.2324,-2.2217,-2.2217,-2.217,-2.217,-2.217,-2.2123,-2.2044,-2.1949,-2.1793,-2.165,-2.1506,-2.1458,-2.141,-2.141,-3.4849,-3.4728,-3.4645,-3.4295,-3.387,-3.3724,-3.3189,-3.2441,-3.1953,-3.1541,-3.1132,-3.072,-3.0287,-2.9887,-2.9724,-2.9263,-2.8828,-2.8605,-2.8484,-2.8353,-2.8282,-2.8324,-2.8667,-2.8599,-2.867,-2.8863,-2.8895,-2.9228,-2.9723,-2.9845,-2.9499,-2.9171,-2.9069,-2.8895,-2.8499,-2.8117,-2.7962,-2.784,-2.7584,-2.7362,-2.7362,-2.733,-2.7233,-2.7152,-2.7087,-2.704,-2.6942,-2.6775,-2.664,-2.6503,-2.6258,-2.6079,-2.5844,-2.5637,-2.541,-2.5262,-2.5107,-2.5029,-2.5045,-2.5029,-2.5005,-2.5005,-2.5005,-2.5005,-2.5005,-2.5005,-2.5005,-2.5005,-2.5005,-2.5005,-2.5005,-2.5005,-2.5005,-2.5005,-2.5005,-2.5005,-2.5005,-2.5005,-2.4966,-2.4886,-2.4806,-2.4686,-2.462,-2.4441,-2.4204,-2.4036,-2.3882,-2.3696,-2.348,-2.3363,-2.329,-2.3127,-2.3037,-2.2947,-2.2933,-2.2857,-2.2826,-2.2781,-2.2644,-2.2523,-2.237,-2.2263,-2.2217,-2.217,-2.217,-2.217,-2.2137,-2.2091,-2.1949,-2.1855,-2.1712,-2.1554,-2.1458,-2.141,-2.141,-3.4661,-3.4623,-3.4293,-3.3759,-3.3173,-3.297,-3.2434,-3.1607,-3.0971,-3.0578,-3.0281,-2.9779,-2.9439,-2.932,-2.9233,-2.9062,-2.8834,-2.8712,-2.8605,-2.851,-2.8406,-2.8318,-2.8254,-2.8182,-2.8205,-2.8291,-2.8187,-2.8433,-2.905,-2.9196,-2.892,-2.8557,-2.8383,-2.814,-2.7687,-2.7639,-2.7496,-2.7465,-2.7452,-2.7407,-2.7407,-2.7376,-2.7296,-2.7198,-2.7166,-2.7152,-2.7023,-2.6892,-2.6742,-2.6589,-2.6347,-2.6049,-2.5806,-2.5684,-2.5535,-2.5255,-2.5166,-2.5169,-2.5146,-2.5107,-2.5084,-2.5045,-2.5005,-2.5005,-2.5005,-2.5005,-2.5005,-2.5005,-2.5005,-2.5005,-2.5005,-2.5005,-2.5005,-2.5005,-2.5005,-2.5005,-2.5005,-2.5005,-2.5005,-2.4926,-2.4886,-2.4806,-2.4726,-2.4661,-2.4426,-2.4261,-2.4094,-2.3967,-2.3782,-2.3551,-2.3436,-2.3187,-2.3068,-2.2992,-2.2947,-2.2933,-2.2857,-2.2812,-2.2721,-2.2569,-2.2417,-2.231,-2.2263,-2.217,-2.217,-2.217,-2.2137,-2.2091,-2.1996,-2.1902,-2.1759,-2.1616,-2.1471,-2.141,-2.141,-3.3883,-3.3771,-3.2996,-3.2505,-3.2274,-3.2214,-3.1701,-3.0865,-3.0679,-3.0209,-2.9649,-2.9481,-2.9365,-2.9302,-2.9175,-2.9067,-2.8952,-2.8834,-2.8712,-2.8612,-2.8536,-2.8458,-2.8371,-2.8318,-2.8219,-2.8182,-2.8099,-2.8039,-2.8317,-2.8245,-2.7997,-2.7844,-2.7831,-2.7644,-2.7579,-2.7526,-2.7496,-2.7496,-2.7496,-2.7496,-2.7465,-2.7483,-2.7434,-2.7404,-2.739,-2.7313,-2.7184,-2.7006,-2.6859,-2.6657,-2.6418,-2.5944,-2.5423,-2.5642,-2.533,-2.507,-2.5013,-2.5278,-2.5262,-2.524,-2.5201,-2.5123,-2.5107,-2.5084,-2.5045,-2.5045,-2.5045,-2.5005,-2.5005,-2.5005,-2.5005,-2.5005,-2.5005,-2.5005,-2.5005,-2.5005,-2.5005,-2.5005,-2.5005,-2.5005,-2.4926,-2.4886,-2.4806,-2.4766,-2.4701,-2.4523,-2.4359,-2.4219,-2.3994,-2.3782,-2.3595,-2.3348,-2.3201,-2.3127,-2.2992,-2.2992,-2.2933,-2.2902,-2.2706,-2.2569,-2.2463,-2.237,-2.2217,-2.217,-2.217,-2.217,-2.217,-2.2137,-2.2044,-2.1949,-2.1807,-2.1616,-2.1423,-2.1423,-2.141,-3.2659,-3.2991,-3.2578,-3.2052,-3.1544,-3.1467,-3.0939,-3.0242,-3.0012,-2.9746,-2.9427,-2.9388,-2.9347,-2.9302,-2.9197,-2.9108,-2.8998,-2.8905,-2.881,-2.8737,-2.8687,-2.8612,-2.8536,-2.8458,-2.8406,-2.8273,-2.8182,-2.8116,-2.7986,-2.7853,-2.7766,-2.7689,-2.7642,-2.7677,-2.76,-2.763,-2.763,-2.76,-2.7569,-2.7509,-2.7496,-2.7496,-2.7496,-2.7496,-2.7438,-2.7376,-2.7296,-2.7135,-2.699,-2.6723,-2.6303,-2.5681,-2.5178,-2.4908,-2.4541,-2.4272,-2.4688,-2.5093,-2.5297,-2.5285,-2.5278,-2.524,-2.5201,-2.5201,-2.5178,-2.5178,-2.5123,-2.5068,-2.5068,-2.5029,-2.5005,-2.5005,-2.5005,-2.5005,-2.5045,-2.5005,-2.5005,-2.5005,-2.5005,-2.5005,-2.5005,-2.4926,-2.4886,-2.4806,-2.4782,-2.4701,-2.4523,-2.44,-2.4177,-2.3909,-2.3696,-2.3523,-2.3363,-2.3305,-2.3171,-2.3037,-2.2992,-2.2902,-2.2706,-2.2615,-2.2569,-2.2417,-2.2263,-2.2217,-2.217,-2.217,-2.217,-2.217,-2.2077,-2.1996,-2.1855,-2.1664,-2.152,-2.1423,-2.1423,-3.1455,-3.1936,-3.1834,-3.1404,-3.082,-3.0678,-3.0284,-2.9739,-2.9568,-2.9451,-2.9412,-2.9411,-2.9368,-2.9323,-2.9262,-2.9156,-2.9085,-2.8998,-2.8929,-2.8881,-2.8834,-2.8785,-2.8687,-2.8637,-2.851,-2.838,-2.8273,-2.8182,-2.8099,-2.7986,-2.7882,-2.7748,-2.7701,-2.7701,-2.7701,-2.7701,-2.7701,-2.7689,-2.7659,-2.76,-2.7569,-2.7569,-2.7539,-2.7526,-2.7483,-2.7438,-2.7373,-2.6971,-2.6762,-2.6514,-2.5742,-2.5076,-2.4579,-2.4364,-2.3984,-2.3836,-2.4213,-2.4762,-2.5102,-2.5314,-2.5362,-2.5371,-2.5294,-2.5294,-2.5294,-2.5294,-2.5294,-2.5146,-2.5146,-2.5123,-2.5084,-2.5084,-2.5084,-2.5123,-2.5084,-2.5045,-2.5029,-2.5045,-2.5005,-2.5005,-2.5005,-2.5005,-2.4926,-2.4886,-2.4862,-2.4862,-2.4742,-2.4564,-2.4343,-2.4094,-2.3909,-2.3739,-2.3566,-2.3466,-2.3334,-2.3201,-2.3127,-2.2947,-2.2752,-2.2615,-2.2569,-2.2463,-2.231,-2.2217,-2.2217,-2.217,-2.217,-2.217,-2.2123,-2.1983,-2.1841,-2.1746,-2.1602,-2.152,-2.1423,-3.0407,-3.0343,-3.0224,-3.0146,-3.004,-2.9901,-2.983,-2.9588,-2.9551,-2.9438,-2.923,-2.9395,-2.9279,-2.933,-2.9289,-2.9283,-2.928,-2.9218,-2.913,-2.9044,-2.8998,-2.8929,-2.8834,-2.8712,-2.863,-2.8536,-2.8406,-2.8273,-2.8182,-2.8099,-2.7986,-2.7888,-2.7777,-2.773,-2.7701,-2.7701,-2.7701,-2.7701,-2.7672,-2.7601,-2.7584,-2.7566,-2.7549,-2.7502,-2.7512,-2.7539,-2.7396,-2.6584,-2.6117,-2.6007,-2.5139,-2.4391,-2.3978,-2.3838,-2.3546,-2.3302,-2.3669,-2.4232,-2.4622,-2.5163,-2.5594,-2.5546,-2.5448,-2.5333,-2.5333,-2.5317,-2.5278,-2.5294,-2.5278,-2.524,-2.524,-2.5256,-2.5256,-2.5217,-2.5217,-2.5162,-2.5123,-2.5107,-2.5068,-2.5005,-2.5005,-2.5045,-2.5045,-2.4966,-2.4926,-2.4942,-2.4822,-2.4645,-2.4564,-2.4359,-2.4204,-2.4036,-2.3782,-2.3653,-2.3566,-2.3407,-2.3246,-2.3023,-2.2843,-2.2752,-2.2615,-2.2463,-2.231,-2.2263,-2.2217,-2.2217,-2.217,-2.217,-2.2123,-2.203,-2.1888,-2.1746,-2.1602,-2.1458,-2.141,-2.9248,-2.8715,-2.8611,-2.9102,-2.9975,-2.9891,-2.954,-2.9058,-2.8913,-2.8484,-2.8035,-2.8445,-2.8725,-2.8816,-2.9202,-2.931,-2.9289,-2.924,-2.9181,-2.9175,-2.913,-2.9062,-2.8952,-2.8858,-2.8779,-2.8637,-2.851,-2.838,-2.8246,-2.8209,-2.8126,-2.8014,-2.7882,-2.7795,-2.7748,-2.7701,-2.7701,-2.7683,-2.7631,-2.7508,-2.7052,-2.6999,-2.6806,-2.6314,-2.6212,-2.6184,-2.6057,-2.5739,-2.55,-2.5188,-2.4457,-2.3874,-2.3413,-2.3313,-2.2958,-2.2698,-2.3159,-2.3549,-2.3967,-2.464,-2.5248,-2.5647,-2.5562,-2.5486,-2.5448,-2.5486,-2.5448,-2.541,-2.5371,-2.5355,-2.5278,-2.5294,-2.5294,-2.5294,-2.5294,-2.5278,-2.524,-2.5185,-2.5201,-2.5123,-2.5123,-2.5162,-2.5123,-2.5068,-2.5045,-2.5005,-2.4886,-2.4766,-2.4661,-2.458,-2.4426,-2.4287,-2.4036,-2.3824,-2.3739,-2.3523,-2.3319,-2.3157,-2.2978,-2.2843,-2.2706,-2.2509,-2.2356,-2.231,-2.2263,-2.2217,-2.2217,-2.217,-2.2123,-2.2077,-2.1888,-2.1712,-2.1554,-2.1458,-2.141,-2.8371,-2.7827,-2.7745,-2.8311,-2.9224,-2.9181,-2.8815,-2.8296,-2.8139,-2.7715,-2.7064,-2.768,-2.7923,-2.8072,-2.8332,-2.8553,-2.8572,-2.8716,-2.886,-2.895,-2.904,-2.9141,-2.9108,-2.9017,-2.89,-2.8737,-2.8612,-2.851,-2.8406,-2.8291,-2.8209,-2.8099,-2.8014,-2.7882,-2.7795,-2.7701,-2.7701,-2.7683,-2.7403,-2.7192,-2.6637,-2.6332,-2.6121,-2.5559,-2.5505,-2.5477,-2.538,-2.5112,-2.4847,-2.4521,-2.3977,-2.3464,-2.3095,-2.279,-2.2417,-2.2434,-2.2584,-2.2899,-2.3345,-2.4133,-2.5078,-2.557,-2.5659,-2.56,-2.5616,-2.5616,-2.554,-2.5486,-2.5486,-2.5432,-2.5371,-2.541,-2.541,-2.5448,-2.5448,-2.541,-2.5355,-2.5317,-2.5278,-2.5256,-2.524,-2.524,-2.5201,-2.5162,-2.5084,-2.5045,-2.4966,-2.4886,-2.4846,-2.4726,-2.4605,-2.4467,-2.4343,-2.4078,-2.3852,-2.3653,-2.3494,-2.3363,-2.3187,-2.2978,-2.2797,-2.2601,-2.2417,-2.237,-2.2324,-2.2217,-2.2217,-2.217,-2.217,-2.217,-2.1983,-2.1759,-2.1602,-2.1458,-2.141,-2.7836,-2.7791,-2.7727,-2.7689,-2.7651,-2.7547,-2.7506,-2.7403,-2.7266,-2.7073,-2.6873,-2.7062,-2.71,-2.7101,-2.7326,-2.7457,-2.7569,-2.8016,-2.8239,-2.8293,-2.8606,-2.9029,-2.9,-2.8795,-2.8503,-2.8837,-2.864,-2.842,-2.8453,-2.8388,-2.8282,-2.8138,-2.8002,-2.7908,-2.7853,-2.773,-2.7683,-2.7578,-2.6992,-2.6623,-2.6237,-2.5727,-2.5393,-2.5094,-2.5024,-2.4945,-2.4787,-2.4445,-2.42,-2.3981,-2.3432,-2.3023,-2.284,-2.2708,-2.2497,-2.2466,-2.2389,-2.2676,-2.3261,-2.4298,-2.4985,-2.5513,-2.5554,-2.5642,-2.56,-2.5616,-2.5616,-2.5578,-2.5578,-2.5578,-2.5578,-2.5578,-2.5578,-2.554,-2.5524,-2.5524,-2.5448,-2.5394,-2.541,-2.541,-2.5333,-2.5294,-2.524,-2.5201,-2.5123,-2.5045,-2.5005,-2.4966,-2.4966,-2.4886,-2.4766,-2.4645,-2.4523,-2.4343,-2.4078,-2.3824,-2.3653,-2.3523,-2.3348,-2.3142,-2.2978,-2.2797,-2.2615,-2.2477,-2.237,-2.2324,-2.2217,-2.217,-2.217,-2.217,-2.1996,-2.1807,-2.1602,-2.1506,-2.1458,-2.6746,-2.6198,-2.6158,-2.6102,-2.6155,-2.7143,-2.7186,-2.654,-2.5963,-2.5622,-2.5702,-2.6062,-2.6362,-2.6459,-2.6781,-2.6969,-2.7063,-2.7139,-2.7401,-2.7457,-2.7792,-2.7678,-2.7729,-2.7777,-2.7598,-2.7585,-2.7689,-2.7955,-2.7773,-2.8041,-2.836,-2.8273,-2.7665,-2.7636,-2.7667,-2.7505,-2.7116,-2.6947,-2.6347,-2.5712,-2.5253,-2.4935,-2.4582,-2.4134,-2.4116,-2.4134,-2.4101,-2.3749,-2.3646,-2.3552,-2.3005,-2.2911,-2.2842,-2.2721,-2.2659,-2.2579,-2.2532,-2.2717,-2.33,-2.4044,-2.4596,-2.505,-2.5513,-2.5668,-2.568,-2.5637,-2.56,-2.5616,-2.5616,-2.5616,-2.5578,-2.5578,-2.5578,-2.5578,-2.5578,-2.5578,-2.554,-2.554,-2.554,-2.554,-2.5502,-2.5394,-2.5355,-2.5317,-2.5201,-2.5162,-2.5123,-2.5045,-2.5005,-2.4966,-2.4886,-2.4806,-2.4686,-2.4523,-2.4302,-2.4078,-2.3824,-2.3696,-2.3523,-2.3348,-2.3187,-2.2978,-2.2797,-2.2601,-2.2463,-2.237,-2.2278,-2.217,-2.217,-2.2123,-2.1996,-2.1855,-2.1712,-2.1616,-2.152,-2.5951,-2.5425,-2.5332,-2.5273,-2.539,-2.6339,-2.6363,-2.5736,-2.512,-2.4836,-2.4956,-2.5377,-2.5568,-2.5702,-2.6008,-2.6272,-2.6293,-2.6575,-2.6615,-2.6671,-2.6953,-2.7084,-2.7028,-2.6822,-2.6982,-2.6843,-2.7016,-2.7273,-2.7159,-2.7556,-2.7603,-2.7309,-2.7018,-2.6897,-2.6934,-2.6641,-2.6366,-2.6154,-2.5623,-2.5039,-2.464,-2.4251,-2.3861,-2.3519,-2.3377,-2.336,-2.3307,-2.3265,-2.3217,-2.3151,-2.3102,-2.3045,-2.297,-2.285,-2.2773,-2.2685,-2.263,-2.2705,-2.2992,-2.393,-2.4413,-2.4596,-2.5346,-2.5762,-2.5738,-2.568,-2.5659,-2.5637,-2.56,-2.5616,-2.5616,-2.5616,-2.5616,-2.5616,-2.5616,-2.5616,-2.5616,-2.5578,-2.5578,-2.5616,-2.5578,-2.5524,-2.547,-2.5394,-2.5317,-2.5278,-2.5201,-2.5123,-2.5045,-2.5005,-2.4966,-2.4886,-2.4822,-2.4645,-2.4523,-2.4343,-2.4078,-2.3867,-2.3696,-2.3566,-2.3348,-2.3142,-2.2963,-2.2723,-2.2601,-2.2417,-2.2263,-2.217,-2.217,-2.217,-2.2137,-2.1949,-2.1759,-2.1664,-2.1568,-2.5511,-2.5495,-2.537,-2.5293,-2.5312,-2.5378,-2.5222,-2.5029,-2.4931,-2.4842,-2.4825,-2.4862,-2.4907,-2.4782,-2.4804,-2.4898,-2.5048,-2.5665,-2.582,-2.603,-2.635,-2.6578,-2.6655,-2.6563,-2.6321,-2.6484,-2.6624,-2.6597,-2.6554,-2.6786,-2.6607,-2.6201,-2.6093,-2.5967,-2.5797,-2.5565,-2.5488,-2.5382,-2.4896,-2.4477,-2.4193,-2.3762,-2.3531,-2.3336,-2.3319,-2.3319,-2.3336,-2.3313,-2.3313,-2.3271,-2.3241,-2.3151,-2.3102,-2.3045,-2.2893,-2.2738,-2.2579,-2.2556,-2.2671,-2.3714,-2.4219,-2.4463,-2.5274,-2.5694,-2.5881,-2.5791,-2.577,-2.5696,-2.5659,-2.5637,-2.5616,-2.5616,-2.5616,-2.5616,-2.5616,-2.5616,-2.5616,-2.5616,-2.5616,-2.5616,-2.5616,-2.5578,-2.5524,-2.5486,-2.5432,-2.5394,-2.5317,-2.5224,-2.5162,-2.5029,-2.5029,-2.4982,-2.4902,-2.4822,-2.4686,-2.4523,-2.4343,-2.4078,-2.3909,-2.3739,-2.3523,-2.3304,-2.3083,-2.2859,-2.2692,-2.2509,-2.231,-2.2217,-2.217,-2.217,-2.2184,-2.2091,-2.1902,-2.1698,-2.1602,-2.5543,-2.5511,-2.5459,-2.5369,-2.5293,-2.5217,-2.5113,-2.5018,-2.4977,-2.4903,-2.4817,-2.4806,-2.4772,-2.4689,-2.4692,-2.4707,-2.4801,-2.4914,-2.5011,-2.5239,-2.5504,-2.5415,-2.5383,-2.5406,-2.5261,-2.5411,-2.5597,-2.5852,-2.5899,-2.6048,-2.5903,-2.5524,-2.5326,-2.501,-2.4631,-2.4283,-2.4605,-2.4682,-2.4195,-2.3999,-2.3875,-2.3549,-2.3424,-2.3407,-2.3407,-2.3407,-2.3407,-2.3407,-2.3407,-2.336,-2.3336,-2.3289,-2.3168,-2.3119,-2.2995,-2.2773,-2.2685,-2.264,-2.2685,-2.3277,-2.3938,-2.4418,-2.5146,-2.559,-2.5812,-2.5917,-2.5881,-2.5844,-2.5754,-2.5696,-2.5675,-2.5675,-2.5654,-2.5654,-2.5654,-2.56,-2.56,-2.5616,-2.5616,-2.5616,-2.5616,-2.5616,-2.5578,-2.5578,-2.5524,-2.5486,-2.5432,-2.5355,-2.5262,-2.5146,-2.5068,-2.5005,-2.4982,-2.4902,-2.4822,-2.4686,-2.4523,-2.4302,-2.4135,-2.3909,-2.3638,-2.3436,-2.3216,-2.3008,-2.2723,-2.254,-2.2356,-2.231,-2.217,-2.217,-2.217,-2.2137,-2.2044,-2.1841,-2.1698,-2.4529,-2.4522,-2.4489,-2.4416,-2.4312,-2.4273,-2.4189,-2.4193,-2.4727,-2.4945,-2.4889,-2.4861,-2.4798,-2.4753,-2.4738,-2.4742,-2.4742,-2.4745,-2.4767,-2.4786,-2.4695,-2.4792,-2.4685,-2.4615,-2.4694,-2.4739,-2.4854,-2.5116,-2.5207,-2.5254,-2.5171,-2.4819,-2.4663,-2.4306,-2.3985,-2.3898,-2.3975,-2.4014,-2.3843,-2.357,-2.3517,-2.3517,-2.3494,-2.3517,-2.3517,-2.3517,-2.3517,-2.3517,-2.3453,-2.3448,-2.3424,-2.3378,-2.3265,-2.3151,-2.3052,-2.2876,-2.2816,-2.2764,-2.2779,-2.3254,-2.3891,-2.4503,-2.5088,-2.5698,-2.5994,-2.6151,-2.6079,-2.6007,-2.5881,-2.5791,-2.577,-2.5733,-2.5749,-2.5712,-2.5675,-2.5621,-2.5637,-2.56,-2.5616,-2.5616,-2.5616,-2.5616,-2.5616,-2.5616,-2.5616,-2.5578,-2.5524,-2.547,-2.5339,-2.5185,-2.5107,-2.5084,-2.5005,-2.4982,-2.4902,-2.4822,-2.4686,-2.4523,-2.4317,-2.4094,-2.3809,-2.3551,-2.3348,-2.2994,-2.2678,-2.254,-2.2402,-2.2263,-2.217,-2.217,-2.217,-2.217,-2.2077,-2.1983,-2.1841,-2.3042,-2.3065,-2.292,-2.2997,-2.2813,-2.2917,-2.2882,-2.2872,-2.4136,-2.4822,-2.482,-2.4893,-2.487,-2.4794,-2.4817,-2.4787,-2.4787,-2.4738,-2.4723,-2.467,-2.4723,-2.4726,-2.4711,-2.4717,-2.4666,-2.4615,-2.4622,-2.474,-2.454,-2.4617,-2.4614,-2.419,-2.4145,-2.399,-2.391,-2.381,-2.3855,-2.3829,-2.3741,-2.3562,-2.3522,-2.3499,-2.3517,-2.3522,-2.3539,-2.3539,-2.3539,-2.3517,-2.3499,-2.3494,-2.3471,-2.3448,-2.336,-2.3265,-2.3126,-2.3028,-2.2995,-2.2919,-2.2946,-2.3273,-2.3984,-2.4641,-2.5306,-2.5893,-2.6236,-2.633,-2.6258,-2.6187,-2.6063,-2.599,-2.597,-2.5881,-2.586,-2.5824,-2.5787,-2.5733,-2.5749,-2.5675,-2.5637,-2.56,-2.5616,-2.5616,-2.5616,-2.5616,-2.5616,-2.5616,-2.5578,-2.5508,-2.5432,-2.5262,-2.5185,-2.5107,-2.5068,-2.5005,-2.4966,-2.4886,-2.4822,-2.4686,-2.4482,-2.4317,-2.4078,-2.3767,-2.3421,-2.3083,-2.2768,-2.2586,-2.2463,-2.2356,-2.2217,-2.217,-2.217,-2.217,-2.2123,-2.2077,-2.1935,-2.3052,-2.3003,-2.2939,-2.2894,-2.2871,-2.2832,-2.2763,-2.2795,-2.3073,-2.3599,-2.4094,-2.4638,-2.4864,-2.4676,-2.4643,-2.4615,-2.4643,-2.4425,-2.4727,-2.4614,-2.4576,-2.4392,-2.4637,-2.4456,-2.4557,-2.4695,-2.4647,-2.4396,-2.4238,-2.4244,-2.4266,-2.4154,-2.3967,-2.3798,-2.3701,-2.3678,-2.3619,-2.3506,-2.3458,-2.3462,-2.353,-2.362,-2.3674,-2.3652,-2.3652,-2.3652,-2.3652,-2.3652,-2.3634,-2.3634,-2.3616,-2.3611,-2.3544,-2.3424,-2.3313,-2.3241,-2.3144,-2.3095,-2.309,-2.325,-2.3796,-2.4607,-2.5286,-2.5987,-2.6396,-2.6489,-2.6485,-2.6415,-2.631,-2.6222,-2.6115,-2.6043,-2.6007,-2.597,-2.5897,-2.5897,-2.586,-2.577,-2.5659,-2.5637,-2.5616,-2.5616,-2.5616,-2.5616,-2.5616,-2.5616,-2.5616,-2.5578,-2.5524,-2.5432,-2.5262,-2.5185,-2.5091,-2.5052,-2.4989,-2.4966,-2.4902,-2.4822,-2.4661,-2.4482,-2.4261,-2.3867,-2.3465,-2.3172,-2.2918,-2.2737,-2.2555,-2.2449,-2.2356,-2.2263,-2.217,-2.217,-2.217,-2.2123,-2.1983,-2.1921,-2.1895,-2.1856,-2.1828,-2.1804,-2.1758,-2.1741,-2.1787,-2.2036,-2.2403,-2.2849,-2.3526,-2.3904,-2.384,-2.3808,-2.3858,-2.3798,-2.3658,-2.3531,-2.3606,-2.3827,-2.3606,-2.37,-2.3818,-2.3559,-2.361,-2.3585,-2.3453,-2.358,-2.3347,-2.3209,-2.3289,-2.3253,-2.3199,-2.3069,-2.2994,-2.2992,-2.2863,-2.2932,-2.3017,-2.3244,-2.3473,-2.3664,-2.3718,-2.3718,-2.3718,-2.3718,-2.3718,-2.3718,-2.37,-2.3678,-2.3634,-2.3589,-2.3517,-2.3448,-2.336,-2.3289,-2.3265,-2.3193,-2.3295,-2.3622,-2.4444,-2.5164,-2.5796,-2.645,-2.6578,-2.6808,-2.6759,-2.6503,-2.6399,-2.6364,-2.6329,-2.6293,-2.6222,-2.6132,-2.6023,-2.5934,-2.5844,-2.5733,-2.568,-2.5659,-2.5637,-2.5637,-2.5616,-2.5616,-2.5616,-2.5616,-2.5616,-2.5578,-2.5562,-2.5394,-2.5262,-2.5169,-2.513,-2.5052,-2.5005,-2.4982,-2.4862,-2.4782,-2.4564,-2.4302,-2.3909,-2.3508,-2.3231,-2.3024,-2.2828,-2.2692,-2.2383,-2.236,-2.231,-2.2263,-2.217,-2.217,-2.217,-2.2091,-2.0572,-2.0499,-2.0549,-2.0531,-2.0502,-2.0454,-2.0463,-2.056,-2.1082,-2.1358,-2.146,-2.2048,-2.228,-2.2471,-2.2455,-2.2424,-2.252,-2.2817,-2.259,-2.2533,-2.2539,-2.2778,-2.2741,-2.252,-2.2639,-2.2631,-2.2557,-2.2497,-2.2476,-2.2402,-2.2359,-2.2033,-2.1916,-2.1854,-2.18,-2.1822,-2.1953,-2.2008,-2.2045,-2.2117,-2.2585,-2.3229,-2.3512,-2.3631,-2.3721,-2.3721,-2.3721,-2.3721,-2.3721,-2.3721,-2.3743,-2.37,-2.3656,-2.3652,-2.3567,-2.3499,-2.3476,-2.343,-2.336,-2.3324,-2.3753,-2.432,-2.4963,-2.5607,-2.6307,-2.6797,-2.7026,-2.7055,-2.6825,-2.664,-2.664,-2.6555,-2.6537,-2.6485,-2.631,-2.6168,-2.6043,-2.5917,-2.5844,-2.5754,-2.5717,-2.5696,-2.5659,-2.56,-2.5616,-2.5616,-2.5616,-2.5616,-2.5578,-2.5562,-2.547,-2.5378,-2.5301,-2.5208,-2.513,-2.5068,-2.5005,-2.4942,-2.4822,-2.4605,-2.4343,-2.3994,-2.3649,-2.3241,-2.3054,-2.2673,-2.2336,-2.1971,-2.2081,-2.2175,-2.2055,-2.1921,-2.217,-2.217,-2.2137,-2.0516,-2.0503,-2.0508,-2.0511,-2.0488,-2.0429,-2.0383,-2.0405,-2.054,-2.0583,-2.0646,-2.0749,-2.1301,-2.2569,-2.2566,-2.2399,-2.2068,-2.2166,-2.2386,-2.2481,-2.2104,-2.2262,-2.2262,-2.1916,-2.2325,-2.2231,-2.2034,-2.2182,-2.1746,-2.1878,-2.2025,-2.1835,-2.1875,-2.1816,-2.1789,-2.1719,-2.1557,-2.1487,-2.1456,-2.1587,-2.1881,-2.2535,-2.3218,-2.3485,-2.3792,-2.3792,-2.3792,-2.3774,-2.3774,-2.3792,-2.3771,-2.375,-2.3747,-2.3743,-2.37,-2.3656,-2.3634,-2.3585,-2.3517,-2.3471,-2.3833,-2.4282,-2.4943,-2.5676,-2.6367,-2.7064,-2.7265,-2.74,-2.7198,-2.6957,-2.6892,-2.6742,-2.6674,-2.6606,-2.6485,-2.6345,-2.6239,-2.6151,-2.6079,-2.5917,-2.5791,-2.5754,-2.5663,-2.5642,-2.5616,-2.5616,-2.5616,-2.5616,-2.5616,-2.5578,-2.5513,-2.5454,-2.5346,-2.5262,-2.513,-2.5091,-2.5029,-2.4966,-2.4784,-2.4458,-2.424,-2.4173,-2.3815,-2.3023,-2.2547,-2.216,-2.183,-2.1614,-2.1498,-2.1552,-2.1563,-2.1586,-2.1893,-2.2034,-2.1833]},{"header":{"parameterUnit":"m.s-1","parameterCategory":1,"la1":31.0,"la2":29.5877,"lo1":-88.7671,"lo2":-86.6584,"dy":0.0162,"dx":0.0185,"nx":115,"ny":88,"refTime":"2023-09-09T18:00:00:Z","depth":0,"parameterNumber":3,"parameterNumberName":"V-component_of_WINDS"},"data":[0.0,0.0,0.0,0.0,0.0,0.0,0.0,0.0,0.0,0.0,0.0,0.0,0.0,0.0,0.0,0.0,0.0,0.0,0.0,0.0,0.0,0.0,0.0,0.0,0.0,0.0,0.0,0.0,0.0,0.0,0.0,0.0,0.0,0.0,0.0,0.0,0.0,0.0,0.0,0.0,0.0,0.0,0.0,0.0,0.0,0.0,0.0,0.0,0.0,0.0,0.0,0.0,0.0,0.0,0.0,0.0,0.0,0.0,0.0,0.0,0.0,0.0,0.0,0.0,0.0,0.0,0.0,0.0,0.0,0.0,0.0,0.0,0.0,0.0,0.0,0.0,0.0,0.0,0.0,0.0,0.0,0.0,0.0,0.0,0.0,0.0,0.0,0.0,0.0,0.0,0.0,0.0,0.0,0.0,0.0,0.0,0.0,0.0,0.0,0.0,0.0,0.0,0.0,0.0,0.0,0.0,0.0,0.0,0.0,0.0,0.0,0.0,0.0,0.0,0.0,0.0,0.0,0.0,0.0,0.0,0.0,0.0,0.0,0.0,0.0,0.0,0.0,0.0,0.0,0.0,0.0,0.0,0.0,0.0,0.0,0.0,0.0,0.0,0.0,0.0,0.0,0.0,0.0,0.0,0.0,0.0,0.0,0.0,0.0,0.0,0.0,0.0,0.0,0.0,0.0,0.0,0.0,0.0,0.0,0.0,0.0,0.0,0.0,0.0,0.0,0.0,0.0,0.0,0.0,0.0,0.0,0.0,0.0,0.0,0.0,0.0,0.0,0.0,0.0,0.0,0.0,0.0,0.0,0.0,0.0,0.0,0.0,0.0,0.0,0.0,0.0,0.0,0.0,0.0,0.0,0.0,0.0,0.0,0.0,0.0,0.0,0.0,0.0,0.0,0.0,0.0,0.0,0.0,0.0,0.0,0.0,0.0,0.0,0.0,0.0,0.0,0.0,0.0,0.0,0.0,0.0,0.0,0.0,0.0,0.0,0.0,0.0,0.0,0.0,0.0,0.0,0.0,0.0,0.0,0.0,0.0,0.0,0.0,0.0,0.0,0.0,0.0,0.0,0.0,0.0,0.0,0.0,0.0,0.0,0.0,0.0,0.0,0.0,0.0,0.0,0.0,0.0,0.0,0.0,0.0,0.0,0.0,0.0,0.0,0.0,0.0,0.0,0.0,0.0,0.0,0.0,0.0,0.0,0.0,0.0,0.0,0.0,0.0,0.0,0.0,0.0,0.0,0.0,0.0,0.0,0.0,0.0,0.0,0.0,0.0,0.0,0.0,0.0,0.0,0.0,0.0,0.0,0.0,0.0,0.0,0.0,0.0,0.0,0.0,0.0,0.0,0.0,0.0,0.0,0.0,0.0,0.0,0.0,0.0,0.0,0.0,0.0,0.0,0.0,0.0,0.0,0.0,0.0,0.0,0.0,0.0,0.0,0.0,0.0,0.0,0.0,0.0,0.0,0.0,0.0,0.0,0.0,0.0,0.0,0.0,0.0,0.0,0.0,0.0,0.0,0.0,0.0,0.0,0.0,0.0,0.0,0.0,0.0,0.0,0.0,0.0,0.0,0.0,0.0,0.0,0.0,0.0,0.0,0.0,0.0,0.0,0.0,0.0,0.0,0.0,0.0,0.0,0.0,0.0,0.0,0.0,0.0,0.0,0.0,0.0,0.0,0.0,0.0,0.0,0.0,0.0,0.0,0.0,0.0,0.0,0.0,0.0,0.0,0.0,0.0,0.0,0.0,0.0,0.0,0.0,0.0,0.0,0.0,0.0,0.0,0.0,0.0,0.0,0.0,0.0,0.0,0.0,0.0,0.0,0.0,0.0,0.0,0.0,0.0,0.0,0.0,0.0,0.0,0.0,0.0,0.0,0.0,0.0,0.0,0.0,0.0,0.0,0.0,0.0,0.0,0.0,0.0,0.0,0.0,0.0,0.0,0.0,0.0,0.0,0.0,0.0,0.0,0.0,0.0,0.0,0.0,0.0,0.0,0.0,0.0,0.0,0.0,0.0,0.0,0.0,0.0,0.0,0.0,0.0,0.0,0.0,0.0,0.0,0.0,0.0,0.0,0.0,0.0,0.0,0.0,0.0,0.0,0.0,0.0,0.0,0.0,0.0,0.0,0.0,0.0,0.0,0.0,0.0,0.0,0.0,0.0,0.0,0.0,0.0,0.0,0.0,0.0,0.0,0.0,0.0,0.0,0.0,0.0,0.0,0.0,0.0,0.0,0.0,0.0,0.0,0.0,0.0,0.0,0.0,0.0,0.0,0.0,0.0,0.0,0.0,0.0,0.0,0.0,0.0,0.0,0.0,0.0,0.0,0.0,0.0,0.0,0.0,0.0,0.0,0.0,0.0,0.0,0.0,0.0,0.0,0.0,0.0,0.0,0.0,0.0,0.0,0.0,0.0,0.0,0.0,0.0,0.0,0.0,0.0,0.0,0.0,0.0,0.0,0.0,0.0,0.0,0.0,0.0,0.0,0.0,0.0,0.0,0.0,0.0,0.0,0.0,0.0,0.0,0.0,0.0,0.0,0.0,0.0,0.0,0.0,0.0,0.0,0.0,0.0,0.0,0.0,0.0,0.0,0.0,0.0,0.0,0.0,0.0,0.0,0.0,0.0,0.0,0.0,0.0,0.0,0.0,0.0,0.0,0.0,0.0,0.0,0.0,0.0,0.0,0.0,0.0,0.0,0.0,0.0,0.0,0.0,0.0,0.0,0.0,0.0,0.0,0.0,0.0,0.0,0.0,0.0,0.0,0.0,0.0,0.0,0.0,0.0,0.0,0.0,0.0,0.0,0.0,0.0,0.0,0.0,0.0,0.0,0.0,0.0,0.0,0.0,0.0,0.0,0.0,0.0,0.0,0.0,0.0,0.0,0.0,0.0,0.0,0.0,0.0,0.0,0.0,0.0,0.0,0.0,0.0,0.0,0.0,0.0,0.0,0.0,0.0,0.0,0.0,0.0,0.0,0.0,0.0,0.0,0.0,0.0,0.0,0.0,0.0,0.0,0.0,0.0,0.0,0.0,0.0,0.0,0.0,0.0,0.0,0.0,0.0,0.0,0.0,0.0,0.0,0.0,0.0,0.0,0.0,0.0,0.0,0.0,0.0,0.0,0.0,0.0,0.0,0.0,0.0,0.0,0.0,0.0,0.0,0.0,0.0,0.0,0.0,0.0,0.0,0.0,0.0,0.0,0.0,0.0,0.0,0.0,0.0,0.0,0.0,0.0,0.0,0.0,0.0,0.0,0.0,0.0,0.0,0.0,0.0,0.0,0.0,0.0,0.0,0.0,0.0,0.0,0.0,0.0,0.0,0.0,0.0,0.0,0.0,0.0,0.0,0.0,0.0,0.0,0.0,0.0,0.0,0.0,0.0,0.0,0.0,0.0,0.0,0.0,0.0,0.0,0.0,0.0,0.0,0.0,0.0,0.0,0.0,0.0,0.0,0.0,0.0,0.0,0.0,0.0,0.0,0.0,0.0,0.0,0.0,0.0,0.0,0.0,0.0,0.0,0.0,0.0,0.0,0.0,0.0,0.0,0.0,0.0,0.0,0.0,0.0,0.0,0.0,0.0,0.0,0.0,0.0,0.0,0.0,0.0,0.0,0.0,0.0,0.0,0.0,0.0,0.0,0.0,0.0,0.0,0.0,0.0,0.0,0.0,0.0,0.0,0.0,0.0,0.0,0.0,0.0,0.0,0.0,0.0,0.0,0.0,0.0,0.0,0.0,0.0,0.0,0.0,0.0,0.0,0.0,0.0,0.0,0.0,0.0,0.0,0.0,0.0,0.0,0.0,0.0,0.0,0.0,0.0,0.0,0.0,0.0,0.0,0.0,0.0,0.0,0.0,0.0,0.0,0.0,0.0,0.0,0.0,0.0,0.0,0.0,0.0,0.0,0.0,0.0,0.0,0.0,0.0,0.0,0.0,0.0,0.0,0.0,0.0,0.0,0.0,0.0,0.0,0.0,0.0,0.0,0.0,0.0,0.0,0.0,0.0,0.0,0.0,0.0,0.0,0.0,0.0,0.0,0.0,0.0,0.0,0.0,0.0,0.0,0.0,0.0,0.0,0.0,0.0,0.0,0.0,0.0,0.0,0.0,0.0,0.0,0.0,0.0,0.0,0.0,0.0,0.0,0.0,0.0,0.0,0.0,0.0,0.0,0.0,0.0,0.0,0.0,0.0,0.0,0.0,0.0,0.0,0.0,0.0,0.0,0.0,0.0,0.0,0.0,0.0,0.0,0.0,0.0,0.0,-1.6648,0.0,0.0,0.0,0.0,0.0,0.0,0.0,0.0,0.0,0.0,0.0,0.0,0.0,0.0,0.0,0.0,0.0,0.0,0.0,0.0,0.0,0.0,0.0,0.0,0.0,0.0,0.0,0.0,0.0,0.0,0.0,0.0,0.0,0.0,0.0,0.0,0.0,0.0,0.0,0.0,0.0,0.0,0.0,0.0,0.0,0.0,0.0,0.0,0.0,0.0,0.0,0.0,0.0,0.0,0.0,0.0,0.0,0.0,0.0,0.0,0.0,0.0,0.0,0.0,0.0,0.0,0.0,0.0,0.0,0.0,0.0,0.0,0.0,0.0,0.0,0.0,0.0,0.0,0.0,0.0,0.0,0.0,0.0,0.0,0.0,0.0,0.0,0.0,0.0,0.0,0.0,0.0,0.0,0.0,0.0,0.0,0.0,0.0,0.0,0.0,0.0,0.0,0.0,0.0,0.0,0.0,0.0,0.0,0.0,0.0,-1.6804,-1.6566,-1.6648,-1.673,-1.673,0.0,0.0,0.0,0.0,0.0,0.0,0.0,0.0,0.0,0.0,0.0,0.0,0.0,0.0,0.0,0.0,0.0,0.0,0.0,0.0,0.0,0.0,0.0,0.0,0.0,0.0,0.0,0.0,0.0,0.0,0.0,0.0,0.0,0.0,0.0,0.0,0.0,0.0,0.0,0.0,0.0,0.0,0.0,0.0,0.0,0.0,0.0,0.0,0.0,0.0,0.0,0.0,0.0,0.0,0.0,0.0,0.0,0.0,0.0,0.0,0.0,0.0,0.0,0.0,0.0,0.0,0.0,0.0,0.0,0.0,0.0,0.0,0.0,0.0,0.0,0.0,0.0,0.0,0.0,0.0,0.0,0.0,0.0,0.0,0.0,0.0,0.0,0.0,0.0,0.0,0.0,0.0,0.0,0.0,0.0,0.0,0.0,0.0,0.0,0.0,0.0,0.0,0.0,0.0,0.0,0.0,0.0,0.0,0.0,0.0,0.0,0.0,-1.6648,-1.6738,-1.6902,0.0,0.0,0.0,0.0,0.0,0.0,0.0,0.0,0.0,0.0,0.0,0.0,0.0,0.0,0.0,0.0,0.0,0.0,0.0,0.0,0.0,0.0,0.0,0.0,0.0,0.0,0.0,0.0,0.0,0.0,0.0,0.0,0.0,0.0,0.0,0.0,0.0,0.0,0.0,0.0,0.0,0.0,0.0,0.0,0.0,0.0,0.0,0.0,0.0,0.0,0.0,0.0,0.0,0.0,0.0,0.0,0.0,0.0,0.0,0.0,0.0,0.0,0.0,0.0,0.0,0.0,0.0,0.0,0.0,0.0,0.0,0.0,0.0,0.0,0.0,0.0,0.0,0.0,0.0,0.0,0.0,0.0,0.0,0.0,0.0,0.0,0.0,0.0,0.0,0.0,0.0,0.0,0.0,0.0,0.0,0.0,0.0,0.0,0.0,0.0,0.0,0.0,0.0,0.0,0.0,0.0,0.0,0.0,0.0,0.0,-1.673,-1.6648,-1.673,0.0,-1.731,0.0,0.0,0.0,0.0,0.0,0.0,0.0,0.0,0.0,0.0,0.0,0.0,0.0,0.0,0.0,0.0,0.0,0.0,0.0,0.0,0.0,0.0,0.0,0.0,0.0,0.0,0.0,0.0,0.0,0.0,0.0,0.0,0.0,0.0,0.0,0.0,0.0,0.0,0.0,0.0,0.0,0.0,0.0,0.0,0.0,0.0,0.0,0.0,0.0,0.0,0.0,0.0,0.0,0.0,0.0,0.0,0.0,0.0,0.0,0.0,0.0,0.0,0.0,0.0,0.0,0.0,0.0,0.0,0.0,0.0,0.0,0.0,0.0,0.0,0.0,0.0,0.0,0.0,0.0,0.0,0.0,0.0,0.0,0.0,0.0,0.0,0.0,0.0,0.0,0.0,0.0,0.0,0.0,0.0,0.0,0.0,0.0,0.0,0.0,0.0,0.0,0.0,0.0,0.0,0.0,0.0,0.0,0.0,0.0,0.0,-1.6902,-1.673,-1.6812,-1.7139,0.0,0.0,0.0,0.0,0.0,0.0,0.0,0.0,0.0,0.0,0.0,0.0,0.0,0.0,0.0,0.0,0.0,0.0,0.0,0.0,0.0,0.0,0.0,0.0,0.0,0.0,0.0,0.0,0.0,0.0,0.0,0.0,0.0,0.0,0.0,0.0,0.0,0.0,0.0,0.0,0.0,0.0,0.0,0.0,0.0,0.0,0.0,0.0,0.0,0.0,0.0,0.0,0.0,0.0,0.0,0.0,0.0,0.0,0.0,0.0,0.0,0.0,0.0,0.0,0.0,0.0,0.0,0.0,0.0,0.0,0.0,0.0,0.0,0.0,0.0,0.0,0.0,0.0,0.0,0.0,0.0,0.0,0.0,0.0,0.0,0.0,0.0,0.0,0.0,0.0,0.0,0.0,0.0,0.0,0.0,0.0,0.0,0.0,0.0,0.0,0.0,0.0,0.0,0.0,0.0,0.0,0.0,0.0,0.0,0.0,-1.7131,-1.7057,-1.6902,-1.7139,-1.7375,-1.77,0.0,0.0,0.0,0.0,0.0,0.0,0.0,0.0,0.0,0.0,0.0,0.0,0.0,0.0,0.0,0.0,0.0,0.0,0.0,0.0,0.0,0.0,0.0,0.0,0.0,0.0,0.0,0.0,0.0,0.0,0.0,0.0,0.0,0.0,0.0,0.0,0.0,0.0,0.0,0.0,0.0,0.0,0.0,0.0,0.0,0.0,0.0,0.0,0.0,0.0,0.0,0.0,0.0,0.0,0.0,0.0,0.0,0.0,0.0,0.0,0.0,0.0,0.0,0.0,0.0,0.0,0.0,0.0,0.0,0.0,0.0,0.0,0.0,0.0,0.0,0.0,0.0,0.0,0.0,0.0,0.0,0.0,0.0,0.0,0.0,0.0,0.0,0.0,0.0,0.0,0.0,0.0,0.0,0.0,0.0,0.0,0.0,0.0,0.0,0.0,0.0,0.0,0.0,0.0,0.0,0.0,0.0,0.0,-1.7131,-1.7131,-1.7221,-1.7392,-1.7538,-1.77,0.0,0.0,0.0,0.0,0.0,0.0,0.0,0.0,0.0,0.0,0.0,0.0,0.0,0.0,0.0,0.0,0.0,0.0,0.0,0.0,0.0,0.0,0.0,0.0,0.0,0.0,0.0,0.0,0.0,0.0,0.0,0.0,0.0,0.0,0.0,0.0,0.0,0.0,0.0,0.0,0.0,0.0,0.0,0.0,0.0,0.0,0.0,0.0,0.0,0.0,0.0,0.0,0.0,0.0,0.0,0.0,0.0,0.0,0.0,0.0,0.0,0.0,0.0,0.0,0.0,0.0,0.0,0.0,0.0,0.0,0.0,0.0,0.0,0.0,0.0,0.0,0.0,0.0,0.0,0.0,0.0,0.0,0.0,0.0,0.0,0.0,0.0,0.0,0.0,0.0,0.0,0.0,0.0,0.0,0.0,0.0,0.0,0.0,0.0,0.0,0.0,0.0,0.0,0.0,0.0,0.0,0.0,0.0,0.0,-1.7456,-1.7383,-1.7383,-1.7538,-1.7546,-1.7627,0.0,0.0,0.0,0.0,0.0,0.0,0.0,0.0,0.0,0.0,0.0,0.0,0.0,0.0,0.0,0.0,0.0,0.0,0.0,0.0,0.0,0.0,0.0,0.0,0.0,0.0,0.0,0.0,0.0,0.0,0.0,0.0,0.0,0.0,0.0,0.0,0.0,0.0,0.0,0.0,0.0,0.0,0.0,0.0,0.0,0.0,0.0,0.0,0.0,0.0,0.0,0.0,0.0,0.0,0.0,0.0,0.0,0.0,0.0,0.0,0.0,0.0,0.0,0.0,0.0,0.0,0.0,0.0,0.0,0.0,0.0,0.0,0.0,0.0,0.0,0.0,0.0,0.0,0.0,0.0,0.0,0.0,0.0,0.0,0.0,0.0,0.0,0.0,0.0,0.0,0.0,0.0,0.0,0.0,0.0,0.0,0.0,0.0,0.0,0.0,0.0,0.0,0.0,0.0,0.0,0.0,0.0,0.0,0.0,-1.77,0.0,-1.7635,-1.7861,-1.7797,-1.7887,0.0,0.0,0.0,0.0,0.0,0.0,0.0,0.0,0.0,0.0,0.0,0.0,0.0,0.0,0.0,0.0,0.0,0.0,0.0,0.0,0.0,0.0,0.0,0.0,0.0,0.0,0.0,0.0,0.0,0.0,0.0,0.0,0.0,0.0,0.0,0.0,0.0,0.0,0.0,0.0,0.0,0.0,0.0,0.0,0.0,0.0,0.0,0.0,0.0,0.0,0.0,0.0,0.0,0.0,0.0,0.0,0.0,0.0,0.0,0.0,0.0,0.0,0.0,0.0,0.0,0.0,0.0,0.0,0.0,0.0,0.0,0.0,0.0,0.0,0.0,0.0,0.0,0.0,0.0,0.0,0.0,0.0,0.0,0.0,0.0,0.0,0.0,0.0,0.0,0.0,0.0,0.0,0.0,0.0,0.0,0.0,0.0,0.0,0.0,0.0,0.0,0.0,0.0,0.0,0.0,0.0,0.0,0.0,-1.7716,-1.7708,-1.7725,-1.8002,-1.8379,-1.8388,-1.846,0.0,0.0,0.0,0.0,0.0,0.0,0.0,0.0,0.0,0.0,0.0,0.0,0.0,0.0,0.0,0.0,0.0,0.0,0.0,0.0,0.0,0.0,0.0,0.0,0.0,0.0,0.0,0.0,0.0,0.0,0.0,0.0,0.0,0.0,0.0,0.0,0.0,0.0,0.0,0.0,0.0,0.0,0.0,0.0,0.0,0.0,0.0,0.0,0.0,0.0,0.0,0.0,0.0,0.0,0.0,0.0,0.0,0.0,0.0,0.0,0.0,0.0,0.0,0.0,0.0,0.0,0.0,0.0,0.0,0.0,0.0,0.0,0.0,0.0,0.0,0.0,0.0,0.0,0.0,0.0,0.0,0.0,0.0,0.0,0.0,0.0,0.0,0.0,0.0,0.0,0.0,0.0,0.0,0.0,0.0,0.0,0.0,0.0,0.0,0.0,0.0,0.0,0.0,0.0,0.0,0.0,0.0,0.0,0.0,-1.8343,-1.859,-1.8903,-1.9138,-1.8894,-1.8836,0.0,0.0,0.0,0.0,0.0,0.0,0.0,0.0,0.0,0.0,0.0,0.0,0.0,0.0,0.0,0.0,0.0,0.0,0.0,0.0,0.0,0.0,0.0,0.0,0.0,0.0,0.0,0.0,0.0,0.0,0.0,0.0,0.0,0.0,0.0,0.0,0.0,0.0,0.0,0.0,0.0,0.0,0.0,0.0,0.0,0.0,0.0,0.0,0.0,0.0,0.0,0.0,0.0,0.0,0.0,0.0,0.0,0.0,0.0,0.0,0.0,0.0,0.0,0.0,0.0,0.0,0.0,0.0,0.0,0.0,0.0,0.0,0.0,0.0,0.0,0.0,0.0,0.0,0.0,0.0,0.0,0.0,0.0,0.0,0.0,0.0,0.0,0.0,0.0,0.0,0.0,0.0,0.0,0.0,0.0,0.0,0.0,0.0,0.0,0.0,0.0,0.0,0.0,0.0,0.0,0.0,0.0,0.0,0.0,-1.9373,-1.96,-1.9808,-1.9971,-1.96,-1.949,-1.9731,0.0,0.0,0.0,0.0,0.0,0.0,0.0,0.0,0.0,0.0,0.0,0.0,0.0,0.0,0.0,0.0,0.0,0.0,0.0,0.0,0.0,0.0,0.0,0.0,0.0,0.0,0.0,0.0,0.0,0.0,0.0,0.0,0.0,0.0,0.0,0.0,0.0,0.0,0.0,0.0,0.0,0.0,0.0,0.0,0.0,0.0,0.0,0.0,0.0,0.0,0.0,0.0,0.0,0.0,0.0,0.0,0.0,0.0,0.0,0.0,0.0,0.0,0.0,0.0,0.0,0.0,0.0,0.0,0.0,0.0,0.0,0.0,0.0,0.0,0.0,0.0,0.0,0.0,0.0,0.0,0.0,0.0,0.0,0.0,0.0,0.0,0.0,0.0,0.0,0.0,0.0,0.0,0.0,0.0,0.0,0.0,0.0,0.0,0.0,0.0,0.0,0.0,0.0,0.0,0.0,0.0,0.0,0.0,-2.0561,-2.0615,-2.0703,-2.0806,-2.0454,-2.0322,0.0,0.0,0.0,0.0,0.0,0.0,0.0,0.0,0.0,0.0,0.0,0.0,0.0,0.0,0.0,0.0,0.0,0.0,0.0,0.0,0.0,0.0,0.0,0.0,0.0,0.0,0.0,0.0,0.0,0.0,0.0,0.0,0.0,0.0,0.0,0.0,0.0,0.0,0.0,0.0,0.0,0.0,0.0,0.0,0.0,0.0,0.0,0.0,0.0,0.0,0.0,0.0,0.0,0.0,0.0,0.0,0.0,0.0,0.0,0.0,0.0,0.0,0.0,0.0,0.0,0.0,0.0,0.0,0.0,0.0,0.0,0.0,0.0,0.0,0.0,0.0,0.0,0.0,0.0,0.0,0.0,0.0,0.0,0.0,0.0,0.0,0.0,0.0,0.0,0.0,0.0,0.0,0.0,0.0,0.0,0.0,0.0,0.0,0.0,0.0,0.0,0.0,0.0,0.0,0.0,0.0,0.0,0.0,0.0,-2.1416,-2.1989,-2.1925,-2.1266,-2.113,-2.0971,0.0,0.0,0.0,0.0,0.0,0.0,0.0,0.0,0.0,0.0,0.0,0.0,0.0,0.0,0.0,0.0,0.0,0.0,0.0,0.0,0.0,0.0,0.0,0.0,0.0,0.0,0.0,0.0,0.0,0.0,0.0,0.0,0.0,0.0,0.0,0.0,0.0,0.0,0.0,0.0,0.0,0.0,0.0,0.0,0.0,0.0,0.0,0.0,0.0,0.0,0.0,0.0,0.0,0.0,0.0,0.0,0.0,0.0,0.0,0.0,0.0,0.0,0.0,0.0,0.0,0.0,0.0,0.0,0.0,0.0,0.0,0.0,0.0,0.0,0.0,0.0,0.0,0.0,0.0,0.0,0.0,0.0,0.0,0.0,0.0,0.0,0.0,0.0,0.0,0.0,0.0,0.0,0.0,0.0,0.0,0.0,0.0,0.0,0.0,0.0,0.0,0.0,0.0,0.0,0.0,0.0,0.0,0.0,-2.1557,-2.1731,-2.2621,-2.2732,-2.1916,-2.2153,-2.2032,0.0,0.0,0.0,0.0,0.0,0.0,0.0,0.0,0.0,0.0,0.0,0.0,0.0,0.0,0.0,0.0,0.0,0.0,0.0,0.0,0.0,0.0,0.0,0.0,0.0,0.0,0.0,0.0,0.0,0.0,0.0,0.0,0.0,0.0,0.0,0.0,0.0,0.0,0.0,0.0,0.0,0.0,0.0,0.0,0.0,0.0,0.0,0.0,0.0,0.0,0.0,0.0,0.0,0.0,0.0,0.0,0.0,0.0,0.0,0.0,0.0,0.0,0.0,0.0,0.0,0.0,0.0,0.0,0.0,0.0,0.0,0.0,0.0,0.0,0.0,0.0,0.0,0.0,0.0,0.0,0.0,0.0,0.0,0.0,0.0,0.0,0.0,0.0,0.0,0.0,0.0,0.0,0.0,0.0,0.0,0.0,0.0,0.0,0.0,0.0,0.0,0.0,0.0,0.0,0.0,0.0,0.0,0.0,-2.1355,-2.1731,-2.2741,-2.3056,-2.273,-2.3131,-2.3317,0.0,0.0,0.0,0.0,0.0,0.0,0.0,0.0,0.0,0.0,0.0,0.0,0.0,0.0,0.0,0.0,0.0,0.0,0.0,0.0,0.0,0.0,0.0,0.0,0.0,0.0,0.0,0.0,0.0,0.0,0.0,0.0,0.0,0.0,0.0,0.0,0.0,0.0,0.0,0.0,0.0,0.0,0.0,0.0,0.0,0.0,0.0,0.0,0.0,0.0,0.0,0.0,0.0,0.0,0.0,0.0,0.0,0.0,0.0,0.0,0.0,0.0,0.0,0.0,0.0,0.0,0.0,0.0,0.0,0.0,0.0,0.0,0.0,0.0,0.0,0.0,0.0,0.0,0.0,0.0,0.0,0.0,0.0,0.0,0.0,0.0,0.0,0.0,0.0,0.0,0.0,0.0,0.0,0.0,0.0,0.0,0.0,0.0,0.0,0.0,0.0,0.0,0.0,0.0,0.0,0.0,0.0,0.0,-2.1649,-2.1741,-2.2481,-2.2878,-2.2985,-2.3702,-2.3682,0.0,0.0,0.0,0.0,0.0,0.0,0.0,0.0,0.0,0.0,0.0,0.0,0.0,0.0,0.0,0.0,0.0,0.0,0.0,0.0,0.0,0.0,0.0,0.0,0.0,0.0,0.0,0.0,0.0,0.0,0.0,0.0,0.0,0.0,0.0,0.0,0.0,0.0,0.0,0.0,0.0,0.0,0.0,0.0,0.0,0.0,0.0,0.0,-2.5444,0.0,0.0,0.0,0.0,0.0,0.0,0.0,0.0,0.0,0.0,0.0,0.0,0.0,0.0,0.0,0.0,0.0,0.0,0.0,0.0,0.0,0.0,0.0,0.0,0.0,0.0,0.0,0.0,0.0,0.0,0.0,0.0,0.0,0.0,0.0,0.0,0.0,0.0,0.0,0.0,0.0,0.0,0.0,0.0,0.0,0.0,0.0,0.0,0.0,0.0,0.0,0.0,0.0,0.0,0.0,0.0,0.0,0.0,0.0,-2.1731,-2.1928,-2.2497,-2.2975,-2.3257,-2.3961,-2.3996,0.0,0.0,0.0,0.0,0.0,0.0,0.0,0.0,0.0,0.0,0.0,0.0,0.0,0.0,0.0,0.0,0.0,0.0,0.0,0.0,0.0,0.0,0.0,0.0,0.0,0.0,0.0,0.0,0.0,0.0,0.0,0.0,0.0,0.0,0.0,0.0,0.0,0.0,0.0,0.0,0.0,0.0,0.0,0.0,0.0,0.0,0.0,0.0,0.0,0.0,0.0,0.0,0.0,0.0,0.0,0.0,0.0,0.0,0.0,0.0,0.0,0.0,0.0,0.0,0.0,0.0,0.0,0.0,0.0,0.0,0.0,0.0,0.0,0.0,0.0,0.0,0.0,0.0,0.0,0.0,0.0,0.0,0.0,0.0,0.0,0.0,0.0,0.0,0.0,0.0,0.0,0.0,0.0,0.0,0.0,0.0,0.0,0.0,0.0,0.0,0.0,0.0,0.0,0.0,0.0,0.0,0.0,-2.1255,-2.1854,-2.2106,-2.2702,-2.3152,-2.3332,-2.3851,-2.4023,-2.3603,0.0,0.0,0.0,0.0,0.0,0.0,0.0,0.0,0.0,0.0,0.0,0.0,0.0,0.0,0.0,0.0,0.0,0.0,0.0,0.0,0.0,0.0,0.0,0.0,0.0,0.0,0.0,0.0,0.0,0.0,0.0,0.0,0.0,0.0,0.0,0.0,0.0,0.0,-2.3012,-2.4692,0.0,0.0,0.0,0.0,0.0,0.0,0.0,0.0,-2.7468,0.0,0.0,0.0,0.0,0.0,0.0,0.0,0.0,0.0,0.0,0.0,0.0,0.0,0.0,0.0,0.0,0.0,0.0,0.0,0.0,0.0,0.0,0.0,0.0,0.0,0.0,0.0,0.0,0.0,0.0,0.0,0.0,0.0,0.0,0.0,0.0,0.0,0.0,0.0,0.0,0.0,0.0,0.0,0.0,0.0,0.0,0.0,0.0,0.0,0.0,0.0,0.0,0.0,0.0,0.0,0.0,-2.0866,-2.1323,-2.1811,-2.2344,-2.2685,-2.29,-2.29,-2.3144,-2.3154,-2.2744,0.0,0.0,0.0,0.0,0.0,0.0,0.0,0.0,0.0,0.0,0.0,0.0,0.0,0.0,0.0,0.0,0.0,0.0,0.0,0.0,0.0,0.0,0.0,0.0,0.0,0.0,0.0,0.0,0.0,0.0,0.0,0.0,0.0,0.0,0.0,0.0,0.0,0.0,0.0,-2.5594,-2.612,0.0,0.0,0.0,0.0,0.0,0.0,0.0,0.0,-2.8656,0.0,0.0,0.0,0.0,0.0,0.0,0.0,0.0,0.0,0.0,0.0,0.0,0.0,0.0,0.0,0.0,0.0,0.0,0.0,0.0,0.0,0.0,0.0,0.0,0.0,0.0,0.0,0.0,0.0,0.0,0.0,0.0,0.0,0.0,0.0,0.0,0.0,0.0,0.0,0.0,0.0,0.0,0.0,0.0,0.0,0.0,0.0,0.0,0.0,0.0,0.0,0.0,0.0,0.0,0.0,-2.0857,-2.1428,-2.1929,-2.2599,-2.2706,-2.2882,-2.2969,-2.3047,-2.2939,0.0,0.0,0.0,0.0,0.0,0.0,0.0,0.0,0.0,0.0,0.0,0.0,0.0,0.0,0.0,0.0,0.0,0.0,0.0,0.0,0.0,0.0,0.0,0.0,0.0,0.0,0.0,0.0,0.0,0.0,0.0,0.0,0.0,0.0,0.0,0.0,0.0,0.0,0.0,0.0,-2.6584,-2.7064,-2.7227,0.0,0.0,0.0,0.0,0.0,0.0,-2.9545,-2.9523,0.0,0.0,0.0,0.0,0.0,0.0,0.0,0.0,0.0,0.0,0.0,0.0,0.0,0.0,0.0,0.0,0.0,0.0,0.0,0.0,0.0,0.0,0.0,0.0,0.0,0.0,0.0,0.0,0.0,0.0,0.0,0.0,0.0,0.0,0.0,0.0,0.0,0.0,0.0,0.0,0.0,0.0,0.0,0.0,0.0,0.0,0.0,0.0,0.0,0.0,0.0,0.0,0.0,0.0,0.0,-2.0902,-2.1485,-2.2074,-2.2746,-2.2843,-2.2969,-2.3135,-2.3057,-2.2812,0.0,0.0,0.0,0.0,0.0,0.0,0.0,0.0,0.0,0.0,0.0,0.0,0.0,0.0,0.0,0.0,0.0,0.0,0.0,0.0,0.0,0.0,0.0,0.0,0.0,0.0,0.0,0.0,0.0,0.0,0.0,0.0,0.0,0.0,0.0,0.0,0.0,0.0,0.0,0.0,0.0,-2.7997,-2.8262,-2.8712,0.0,0.0,0.0,0.0,-2.9909,-3.0057,0.0,0.0,0.0,0.0,0.0,0.0,0.0,0.0,0.0,0.0,0.0,0.0,0.0,0.0,0.0,0.0,0.0,0.0,0.0,0.0,0.0,0.0,0.0,0.0,0.0,0.0,0.0,0.0,0.0,0.0,0.0,0.0,0.0,0.0,0.0,0.0,0.0,0.0,0.0,0.0,0.0,0.0,0.0,0.0,0.0,0.0,0.0,0.0,0.0,0.0,0.0,0.0,0.0,0.0,0.0,0.0,-2.0876,-2.138,-2.1897,-2.2493,-2.2862,-2.3047,-2.3135,-2.2783,-2.2383,0.0,0.0,0.0,0.0,0.0,0.0,0.0,0.0,0.0,0.0,0.0,0.0,0.0,0.0,0.0,0.0,0.0,0.0,0.0,0.0,0.0,0.0,0.0,0.0,0.0,0.0,0.0,0.0,0.0,0.0,0.0,0.0,0.0,0.0,0.0,0.0,0.0,0.0,0.0,0.0,0.0,-2.8471,-2.899,-2.9489,-2.9795,0.0,0.0,-2.9909,-3.0125,-3.0216,0.0,0.0,0.0,0.0,0.0,0.0,0.0,0.0,0.0,0.0,0.0,0.0,0.0,0.0,0.0,0.0,0.0,0.0,0.0,0.0,0.0,0.0,0.0,0.0,0.0,0.0,0.0,0.0,0.0,0.0,0.0,0.0,0.0,0.0,0.0,0.0,0.0,0.0,0.0,0.0,0.0,0.0,0.0,0.0,0.0,0.0,0.0,0.0,0.0,0.0,0.0,0.0,0.0,0.0,0.0,-2.0308,-2.088,-2.1477,-2.1997,-2.25,-2.292,-2.3144,-2.3135,-2.2734,-2.2305,0.0,0.0,0.0,0.0,0.0,0.0,0.0,0.0,0.0,0.0,0.0,0.0,0.0,0.0,0.0,0.0,0.0,0.0,0.0,0.0,0.0,0.0,0.0,0.0,0.0,0.0,0.0,0.0,0.0,0.0,0.0,0.0,0.0,0.0,0.0,0.0,0.0,0.0,0.0,0.0,0.0,0.0,-2.9623,-2.992,0.0,0.0,0.0,-3.0125,-3.0227,0.0,0.0,0.0,0.0,0.0,0.0,0.0,0.0,0.0,0.0,0.0,0.0,0.0,0.0,0.0,0.0,0.0,0.0,0.0,0.0,0.0,0.0,0.0,0.0,0.0,0.0,0.0,0.0,0.0,0.0,0.0,0.0,0.0,0.0,0.0,0.0,0.0,0.0,0.0,0.0,0.0,0.0,0.0,0.0,0.0,0.0,0.0,0.0,0.0,0.0,0.0,0.0,0.0,0.0,0.0,0.0,0.0,-2.0816,-2.1413,-2.1924,-2.2344,-2.2764,-2.2988,-2.2978,-2.2578,0.0,0.0,0.0,0.0,0.0,0.0,0.0,0.0,0.0,0.0,0.0,0.0,0.0,0.0,0.0,0.0,0.0,0.0,0.0,0.0,0.0,0.0,0.0,0.0,0.0,0.0,0.0,-2.0823,0.0,0.0,0.0,0.0,0.0,0.0,0.0,0.0,0.0,0.0,0.0,0.0,0.0,0.0,-2.8916,-3.0078,-3.0216,-3.0216,0.0,0.0,-3.0216,-3.0216,-3.0216,-3.0009,0.0,0.0,0.0,0.0,0.0,0.0,0.0,0.0,0.0,0.0,0.0,0.0,0.0,0.0,0.0,0.0,0.0,0.0,0.0,0.0,0.0,0.0,0.0,0.0,0.0,0.0,0.0,0.0,0.0,0.0,0.0,0.0,0.0,0.0,0.0,0.0,0.0,0.0,0.0,0.0,0.0,0.0,0.0,0.0,0.0,0.0,0.0,0.0,0.0,0.0,0.0,0.0,0.0,0.0,0.0,-2.0625,-2.1045,-2.1494,-2.1914,-2.2334,-2.2549,-2.2549,-2.2148,-2.1728,0.0,0.0,0.0,0.0,0.0,0.0,0.0,0.0,0.0,0.0,0.0,0.0,0.0,0.0,0.0,0.0,0.0,0.0,0.0,0.0,0.0,0.0,0.0,0.0,0.0,0.0,0.0,0.0,0.0,0.0,0.0,0.0,0.0,0.0,0.0,0.0,0.0,0.0,0.0,0.0,0.0,-2.9068,-3.0078,-3.0216,-3.0216,0.0,0.0,-3.0216,-3.0216,-3.0216,-2.9883,-2.9178,0.0,0.0,0.0,0.0,0.0,0.0,0.0,0.0,0.0,0.0,0.0,0.0,0.0,0.0,0.0,0.0,0.0,0.0,0.0,0.0,0.0,0.0,0.0,0.0,0.0,0.0,0.0,0.0,0.0,0.0,0.0,0.0,0.0,0.0,0.0,0.0,0.0,0.0,0.0,0.0,0.0,0.0,0.0,0.0,0.0,0.0,0.0,0.0,0.0,0.0,0.0,0.0,0.0,-2.0489,-2.0576,-2.1006,-2.1318,-2.1484,-2.1904,-2.2129,-2.2129,-2.1699,-2.1406,0.0,0.0,0.0,0.0,0.0,0.0,0.0,0.0,0.0,0.0,0.0,0.0,0.0,0.0,0.0,0.0,0.0,0.0,0.0,0.0,0.0,0.0,0.0,0.0,0.0,0.0,0.0,0.0,-2.3205,-2.3598,-2.3948,0.0,0.0,0.0,0.0,0.0,0.0,0.0,0.0,0.0,0.0,-2.9068,-3.0067,-3.0216,0.0,0.0,-3.0216,-3.0216,-3.0216,-3.0042,-2.9781,-2.9344,-2.9307,0.0,0.0,0.0,0.0,0.0,0.0,0.0,0.0,0.0,0.0,0.0,0.0,0.0,0.0,0.0,0.0,0.0,0.0,0.0,0.0,0.0,0.0,0.0,0.0,0.0,0.0,0.0,0.0,0.0,0.0,0.0,0.0,0.0,0.0,0.0,0.0,0.0,0.0,0.0,0.0,0.0,0.0,0.0,0.0,0.0,0.0,0.0,0.0,0.0,0.0,0.0,0.0,-2.0576,-2.0576,-2.0879,-2.1094,-2.124,-2.1533,-2.1689,-2.168,-2.1396,-2.1172,0.0,0.0,0.0,0.0,0.0,0.0,0.0,0.0,0.0,0.0,0.0,0.0,0.0,0.0,0.0,0.0,0.0,0.0,0.0,0.0,0.0,0.0,0.0,0.0,0.0,0.0,0.0,0.0,-2.3682,-2.4043,-2.4189,0.0,0.0,0.0,0.0,0.0,0.0,0.0,0.0,0.0,0.0,-2.9068,-3.0067,-3.0216,-3.0216,-3.0216,-3.0216,-3.0204,-3.0306,-3.0186,-2.9986,-2.9747,0.0,0.0,0.0,0.0,0.0,0.0,0.0,0.0,0.0,0.0,0.0,0.0,0.0,0.0,0.0,0.0,0.0,0.0,0.0,0.0,0.0,0.0,0.0,0.0,0.0,0.0,0.0,0.0,0.0,0.0,0.0,0.0,0.0,0.0,0.0,0.0,0.0,0.0,0.0,0.0,0.0,0.0,0.0,0.0,0.0,0.0,0.0,0.0,0.0,0.0,0.0,0.0,0.0,-2.0576,-2.0576,-2.0586,-2.0791,-2.1211,-2.124,-2.125,-2.124,-2.124,-2.1016,-2.0576,0.0,0.0,0.0,0.0,0.0,0.0,0.0,0.0,0.0,0.0,0.0,0.0,0.0,0.0,0.0,0.0,0.0,0.0,0.0,0.0,0.0,0.0,0.0,0.0,0.0,0.0,-2.3772,-2.4043,-2.42,0.0,0.0,0.0,0.0,0.0,0.0,0.0,0.0,0.0,0.0,-2.8689,-2.9068,-3.0067,-3.0216,-3.0227,-3.0216,-3.0216,-3.0306,-3.0578,-3.0734,-3.0749,0.0,0.0,0.0,0.0,0.0,0.0,0.0,0.0,0.0,0.0,0.0,0.0,0.0,0.0,0.0,0.0,0.0,0.0,0.0,0.0,0.0,0.0,0.0,0.0,0.0,0.0,0.0,-1.9516,-1.9236,0.0,0.0,0.0,0.0,0.0,0.0,0.0,0.0,0.0,0.0,0.0,-1.9934,-1.9934,0.0,0.0,0.0,0.0,0.0,0.0,0.0,0.0,0.0,0.0,0.0,0.0,-2.0576,-2.0576,-2.0576,-2.0635,-2.0791,-2.0801,-2.0791,-2.0791,-2.0791,-2.0449,-1.9736,0.0,0.0,0.0,0.0,0.0,0.0,0.0,0.0,0.0,0.0,0.0,0.0,0.0,0.0,0.0,0.0,0.0,0.0,0.0,0.0,0.0,0.0,0.0,0.0,0.0,-2.2878,0.0,0.0,0.0,0.0,0.0,0.0,0.0,0.0,0.0,0.0,0.0,-2.6561,-2.818,-2.8847,-2.9386,-3.0085,-3.0481,-3.0691,0.0,0.0,0.0,0.0,0.0,0.0,0.0,0.0,0.0,0.0,0.0,0.0,0.0,0.0,-3.0876,-3.0334,-3.0161,-3.0089,-3.0227,0.0,0.0,0.0,0.0,0.0,0.0,0.0,0.0,0.0,0.0,0.0,0.0,0.0,0.0,0.0,0.0,-1.9734,0.0,0.0,0.0,0.0,0.0,0.0,0.0,0.0,-2.0338,-2.0264,-2.0136,-2.0127,-1.9842,0.0,-1.9448,-1.9439,0.0,0.0,0.0,0.0,0.0,0.0,0.0,0.0,-2.0576,-2.0576,-2.0576,-2.0576,-2.0576,-2.0576,-2.0576,-2.0566,-2.042,-2.001,-1.9307,-1.8938,-1.8577,0.0,0.0,0.0,0.0,0.0,0.0,0.0,0.0,0.0,0.0,0.0,0.0,0.0,0.0,0.0,0.0,0.0,0.0,0.0,0.0,0.0,0.0,0.0,-2.2879,0.0,0.0,0.0,0.0,0.0,0.0,0.0,0.0,0.0,-2.5866,-2.624,-2.7003,-2.8457,-2.9011,-2.9569,-3.0102,0.0,0.0,0.0,0.0,0.0,0.0,0.0,-3.1267,-3.1605,-3.1767,-3.1795,-3.1798,-3.1909,-3.2031,-3.2106,0.0,0.0,-3.1261,-3.0976,-3.1042,-3.14,-3.1732,-3.1942,-3.1903,-3.2069,-3.2152,0.0,0.0,0.0,0.0,0.0,0.0,0.0,0.0,-2.0105,-2.0234,0.0,-1.9888,0.0,0.0,0.0,0.0,0.0,0.0,0.0,0.0,-2.1062,-2.0879,-2.053,-2.0493,-2.0072,-1.9347,-1.9705,-1.9687,-1.9311,-1.9292,0.0,0.0,0.0,0.0,0.0,0.0,-2.0576,-2.0576,-2.0576,-2.0576,-2.0576,-2.0576,-2.0557,-2.0527,-2.0117,-1.9687,-1.9277,-1.9041,-1.8696,-1.8289,-1.8607,0.0,0.0,0.0,0.0,0.0,0.0,0.0,0.0,0.0,0.0,0.0,0.0,0.0,0.0,0.0,0.0,0.0,0.0,0.0,0.0,-2.2319,0.0,0.0,0.0,0.0,0.0,0.0,0.0,0.0,0.0,0.0,-2.6387,-2.6996,-2.7866,-2.9042,0.0,0.0,0.0,0.0,-3.0145,-3.0337,-3.0145,-3.0241,-3.0682,-3.0906,-3.1129,-3.1263,0.0,0.0,-3.2359,-3.2901,-3.3285,-3.3493,-3.3006,-3.2522,-3.1971,-3.2101,-3.254,-3.3161,-3.299,-3.2952,-3.3467,-3.3251,-3.3002,-1.7681,0.0,0.0,0.0,0.0,-1.9682,-1.9977,-2.013,-2.0584,-2.0704,-2.0503,-2.0361,0.0,0.0,0.0,0.0,0.0,0.0,-2.0732,-2.108,-2.0814,-2.0631,-2.0503,-2.0228,-1.9815,-1.932,-1.9421,-1.9421,-1.9301,-1.9292,-1.9469,-1.9724,0.0,0.0,0.0,0.0,-2.0576,-2.0576,-2.0576,-2.0576,-2.0576,-2.0576,-2.041,-2.0098,-1.9687,-1.9268,-1.8838,-1.8616,-1.8398,-1.8347,-1.8741,0.0,0.0,0.0,0.0,0.0,0.0,0.0,0.0,0.0,0.0,0.0,0.0,0.0,0.0,0.0,0.0,0.0,0.0,0.0,-2.1815,-2.2386,-2.2937,0.0,0.0,0.0,0.0,0.0,0.0,0.0,0.0,0.0,-2.7496,-2.8231,-2.8973,0.0,0.0,-3.0654,-3.0512,-3.0728,-3.0989,-3.0989,0.0,0.0,0.0,-3.1562,-3.1822,-3.2227,-3.2394,-3.2497,-3.256,-3.2549,-3.2536,-3.261,-3.2475,-3.2272,-3.2268,-3.2359,-3.2544,-3.301,-3.3376,-3.3517,-3.3421,-3.3605,-3.376,-1.7789,-1.8128,-1.8542,-1.9,-1.946,-1.9806,-2.0136,-2.0339,-2.0711,-2.0864,-2.0898,-2.0762,-2.075,-2.0741,-2.0585,0.0,0.0,0.0,-2.0723,-2.1089,-2.0695,-2.0429,-2.0273,-2.0035,-1.9705,-1.9301,-1.9292,-1.9292,-1.9292,-1.9292,-1.9469,-1.9715,0.0,0.0,-2.0411,-2.0566,-2.0576,-2.0576,-2.0576,-2.0576,-2.0566,-2.0391,-2.0176,-1.9912,-1.9336,-1.8906,-1.8713,-1.8497,-1.8405,-1.8472,-1.8942,-1.9208,0.0,0.0,0.0,0.0,0.0,0.0,0.0,0.0,0.0,0.0,0.0,-2.14,-2.16,0.0,0.0,0.0,-2.1612,-2.1632,-2.1947,-2.2336,0.0,0.0,0.0,0.0,0.0,0.0,0.0,-2.5873,-2.6719,-2.7624,-2.8371,-2.9087,-2.977,-3.0325,-3.0757,-3.0938,-3.062,0.0,-3.0985,-3.1077,-3.0985,-3.1064,-3.1381,-3.1551,-3.1708,-3.1935,-3.1782,-3.1688,-3.1748,-3.1622,-3.149,-3.1477,-3.1463,-3.152,-3.1775,-3.1789,-3.2191,-3.3125,-3.3519,-3.3633,-3.362,-3.3803,-3.3747,-1.7898,-1.8415,-1.8617,-1.928,-2.0015,-1.9846,-1.9886,-2.021,-2.0554,-2.0826,-2.0962,-2.1107,-2.1108,-2.108,-2.0732,0.0,0.0,-2.0695,-2.0714,-2.1044,-2.0659,-2.0283,-1.9934,-1.9816,-1.9677,-1.9292,-1.9292,-1.9292,-1.9292,-1.9292,-1.9548,-1.9872,-1.9872,-2.0098,-2.0566,-2.0576,-2.0576,-2.0576,-2.0576,-2.0557,-2.0508,-2.0117,-1.9883,-1.9795,-1.9053,-1.8693,-1.8844,-1.8624,-1.8617,-1.8808,-1.9152,-1.9417,-1.9605,0.0,0.0,0.0,0.0,0.0,0.0,0.0,0.0,0.0,0.0,0.0,0.0,0.0,0.0,0.0,-2.1812,0.0,-2.2162,-2.2213,0.0,0.0,0.0,-2.4214,-2.5264,-2.5746,-2.6037,-2.6427,0.0,0.0,-2.8892,0.0,-3.0056,-3.0314,-3.0417,-3.0443,-3.0568,-3.0379,-3.0392,-3.0556,-3.0467,-3.0454,-3.0768,-3.0917,-3.0921,-3.0967,-3.0465,-3.0292,-3.0444,-3.0486,-3.0432,-3.0486,-3.0418,-3.0556,-3.0868,-3.0991,-3.1488,-3.3294,-3.3353,-3.3326,-3.3705,-3.3452,-3.3115,-1.7694,-1.8422,-1.8527,-1.9102,-2.002,-1.9842,-2.0031,-2.0454,-2.0666,-2.0826,-2.097,-2.102,-2.1108,-2.1099,-2.1016,-2.1016,-2.1089,-2.0704,-2.0567,-2.0631,-2.0255,-2.0026,-1.9916,-1.9604,-1.9402,-1.9301,-1.9292,-1.9292,-1.9292,-1.9292,-1.9539,-1.9863,-1.9872,-2.0098,-2.0566,-2.0576,-2.0576,-2.0576,-2.0576,-2.04,-2.0078,-1.9961,-1.96,-1.8955,-1.8882,-1.8686,-1.8428,-1.859,-1.8808,-1.9008,-1.9341,-1.9605,-1.9802,-2.0129,0.0,0.0,0.0,0.0,0.0,0.0,0.0,0.0,0.0,-2.18,-2.1862,0.0,-2.2123,0.0,-2.1937,-2.1871,-2.1811,-2.2514,0.0,0.0,-2.4443,-2.518,-2.5886,-2.6164,-2.644,-2.6794,-2.7182,-2.7751,-2.8667,-2.8947,-2.925,-2.9874,-3.0178,-3.0236,-2.983,-2.968,-2.9608,-2.9791,-2.9804,-2.981,-3.0064,-3.0237,-3.0338,-3.0331,-3.0335,-3.0336,-3.0405,-3.0405,-3.0405,-3.0405,-3.0528,-3.0637,-3.0799,-3.0989,-3.1302,-3.1898,-3.2019,-3.1963,-3.2103,-3.2033,-3.1935,-1.7701,-1.8408,-1.8268,-1.8839,-1.9834,-1.962,-1.9789,-2.0355,-2.0457,-2.0736,-2.0979,-2.1307,-2.1282,-2.1108,-2.1108,-2.1007,-2.0824,-2.0438,-2.0255,-2.0237,-1.9833,-1.965,-1.9632,-1.9412,-1.9292,-1.9292,-1.9292,-1.9292,-1.9292,-1.9292,-1.9539,-1.9863,-1.9872,-2.0098,-2.0566,-2.0576,-2.0576,-2.0634,-2.0371,-2.0156,-1.9912,-1.9541,-1.9121,-1.8582,-1.8656,-1.8586,-1.8414,-1.8684,-1.8942,-1.9208,-1.9473,-1.9736,-1.9987,-2.0388,-2.0658,0.0,0.0,0.0,0.0,0.0,0.0,0.0,0.0,0.0,0.0,0.0,-2.2197,0.0,-2.2123,-2.2094,-2.2131,-2.2728,-2.3275,-2.3725,-2.4401,-2.5025,-2.5535,-2.5992,-2.6502,-2.704,-2.7323,-2.7826,-2.8594,-2.8584,-2.8652,-2.9053,-2.9305,-2.9528,-2.9588,-2.9544,-2.9557,-2.9614,-2.9614,-2.9684,-2.9894,-2.986,-2.9835,-2.9821,-2.97,-2.9591,-2.9604,-2.9604,-2.9604,-2.9604,-2.9711,-2.9843,-3.0107,-3.0238,-3.0448,-3.0577,-3.0656,-3.0853,-3.1373,-3.1485,-3.1485,-1.7528,-1.8227,-1.803,-1.8499,-1.936,-1.9163,-1.9437,-2.0074,-2.0171,-2.0555,-2.1087,-2.1463,-2.1502,-2.1108,-2.1053,-2.0814,-2.042,-2.0026,-1.9852,-1.9824,-1.9476,-1.9292,-1.9292,-1.9292,-1.9292,-1.9292,-1.9292,-1.9292,-1.9292,-1.9292,-1.946,-1.9863,-1.9863,-2.007,-2.0488,-2.0488,-2.0488,-2.0478,-2.0107,-1.9863,-1.9746,-1.8942,-1.8613,-1.8545,-1.8399,-1.8414,-1.8549,-1.8741,-1.9008,-1.9407,-1.9539,-1.9802,-2.0172,-2.0635,-2.1031,0.0,-2.1498,0.0,0.0,0.0,0.0,0.0,0.0,0.0,0.0,-2.2197,-2.2197,-2.2197,-2.2197,-2.2315,-2.2631,-2.2843,-2.3123,-2.3634,-2.403,-2.4471,-2.4833,-2.5548,-2.6282,-2.7009,-2.7367,-2.7789,-2.8371,-2.8305,-2.8193,-2.8341,-2.8487,-2.8718,-2.9413,-2.9518,-2.9504,-2.9598,-2.9598,-2.9589,-2.9726,-2.9592,-2.9374,-2.9306,-2.9007,-2.86,-2.8655,-2.8655,-2.8627,-2.8692,-2.8876,-2.8963,-2.9099,-2.9331,-2.9519,-2.9638,-2.9715,-3.0024,-3.0881,-3.1134,-3.1246,-1.6814,-1.7394,-1.7514,-1.7845,-1.8185,-1.852,-1.9217,-2.0074,-2.0004,-2.0473,-2.1302,-2.1562,-2.1511,-2.1089,-2.0778,-2.0411,-2.0026,-1.9604,-1.9421,-1.9412,-1.9338,-1.9292,-1.9292,-1.9292,-1.9292,-1.9292,-1.9292,-1.9292,-1.9292,-1.9292,-1.9469,-1.9636,-1.9636,-1.9703,-1.9764,0.0,0.0,0.0,-1.9961,-1.958,-1.8835,-1.865,-1.8407,-1.8144,-1.8319,0.0,-1.8751,-1.9075,-1.9473,-1.9911,-1.9977,0.0,0.0,0.0,0.0,0.0,0.0,0.0,0.0,0.0,0.0,0.0,-2.2123,-2.2185,-2.2197,-2.2197,-2.2197,-2.2197,-2.2197,-2.2234,-2.2342,-2.2766,-2.3311,-2.3675,-2.4275,-2.4808,-2.518,-2.546,-2.5754,-2.6061,-2.6277,-2.6678,-2.7504,-2.7578,-2.7826,-2.836,-2.8509,-2.8603,-2.8754,-2.8638,-2.8492,-2.8584,-2.881,-2.8835,-2.8847,-2.8845,-2.875,-2.8736,-2.8709,-2.8573,-2.8532,-2.8532,-2.8638,-2.8675,-2.8908,-2.9071,-2.9261,-2.9477,-2.947,-2.9588,-2.9588,-2.9687,-2.9912,-2.9968,-2.9954,-1.6549,0.0,-1.7209,-1.7476,0.0,-1.8225,-1.8809,-1.9455,-1.9737,-2.0482,-2.1392,-2.1651,-2.1401,-2.0805,-2.0604,-2.0191,-1.9613,-1.9402,-1.9292,-1.9292,-1.9292,-1.9292,-1.9292,-1.9292,-1.9292,-1.9283,-1.9109,-1.9008,-1.8999,-1.8815,-1.8801,-1.903,-1.904,-1.907,-1.9163,-1.9247,-1.9387,-1.96,-1.9385,-1.9072,-1.8582,-1.8507,-1.835,-1.8154,0.0,0.0,0.0,0.0,0.0,0.0,0.0,0.0,0.0,0.0,0.0,-2.1434,-2.1749,-2.2011,-2.2061,-2.2061,-2.2061,-2.2197,-2.2197,-2.2197,-2.2197,-2.2197,-2.2247,-2.2309,-2.2309,-2.2309,-2.2445,-2.28,-2.3133,-2.3393,-2.3878,-2.4302,-2.4574,-2.4978,-2.5436,-2.5834,-2.606,-2.6472,-2.7296,-2.722,-2.7242,-2.7664,-2.7718,-2.7746,-2.7786,-2.8106,-2.8392,-2.8457,-2.8509,-2.8478,-2.822,-2.8153,-2.803,-2.7813,-2.7718,-2.7732,-2.7718,-2.7767,-2.7816,-2.794,-2.814,-2.8324,-2.8446,-2.8582,-2.8717,-2.8745,-2.8942,-2.9139,-2.9181,-2.9392,-2.9602,-1.6291,-1.6613,-1.6703,-1.7056,-1.761,-1.7819,-1.8272,-1.892,0.0,0.0,0.0,-2.148,-2.1131,-2.0521,-2.0448,-2.0008,-1.9311,-1.9292,-1.9292,-1.9292,-1.9292,-1.9265,-1.9201,-1.9201,-1.9164,-1.9081,-1.877,-1.8605,-1.8605,-1.8284,-1.8193,-1.8332,-1.8332,-1.8369,-1.8514,-1.8667,-1.8856,-1.8981,-1.8779,-1.8594,-1.8516,-1.8389,-1.8337,-1.8337,-1.8808,-1.9075,-1.9142,-1.9407,-1.9802,-2.0172,-2.0237,-2.0431,-2.0955,-2.1273,-2.1549,-2.1698,-2.2011,-2.2197,-2.2197,-2.2197,-2.2197,-2.2197,-2.2197,-2.2197,-2.2197,-2.2197,-2.2247,-2.242,-2.242,-2.2482,-2.2678,-2.2787,-2.2969,-2.3138,-2.3437,-2.37,-2.3929,-2.4445,-2.5096,-2.5664,-2.5874,-2.6323,-2.6983,-2.6823,-2.6714,-2.6809,-2.6932,-2.6823,-2.6932,-2.7637,-2.8166,-2.8166,-2.8112,-2.8058,-2.7691,-2.7556,-2.7352,-2.6999,-2.6891,-2.6823,-2.6823,-2.693,-2.7023,-2.7193,-2.729,-2.7523,-2.7569,-2.7802,-2.7776,-2.7776,-2.8169,-2.8535,-2.8577,-2.8928,-2.9307,-1.5701,-1.5731,-1.5923,-1.6265,-1.6834,-1.7261,-1.8071,-1.9188,-1.992,-2.0564,-2.106,-2.1013,-2.078,-2.0493,-2.0163,-1.9751,-1.9301,-1.9292,-1.9292,0.0,-1.9292,-1.9118,-1.8806,-1.8797,-1.8614,-1.8302,-1.8229,-1.821,-1.8201,-1.8137,-1.8119,-1.8109,-1.8128,-1.8091,-1.7956,-1.775,-1.777,-1.7898,-1.8337,-1.8527,-1.8378,-1.8299,-1.8337,-1.8482,-1.8751,-1.9008,-1.9285,-1.9483,-1.9944,-2.0604,-2.0593,-2.0839,-2.1325,-2.1549,-2.1749,-2.1874,-2.2061,-2.2197,-2.2197,-2.2197,-2.2197,-2.2197,-2.2197,-2.2197,-2.2197,-2.2197,-2.2247,-2.2359,-2.242,-2.2482,-2.2678,-2.2848,-2.303,-2.3343,-2.3509,-2.3747,-2.3995,-2.4281,-2.4562,-2.4811,-2.4918,-2.5347,-2.6018,-2.609,-2.6212,-2.6647,-2.6633,-2.6755,-2.6728,-2.6959,-2.7067,-2.7067,-2.7067,-2.704,-2.6972,-2.6945,-2.6864,-2.685,-2.6742,-2.6674,-2.6674,-2.6767,-2.6946,-2.7189,-2.7284,-2.7443,-2.7633,-2.7776,-2.7664,-2.7636,-2.7776,-2.7902,-2.7917,-2.8057,-2.8422,-1.5319,-1.537,-1.5701,-1.6021,-1.6407,-1.7153,-1.8087,-1.9012,-1.9662,-2.018,-2.0509,-2.0676,-2.0522,-2.0025,-1.9925,-1.9696,-1.9283,-1.9081,-1.8981,-1.8962,-1.876,-1.8577,-1.8403,-1.8403,-1.8302,-1.8109,-1.7889,-1.7789,-1.777,-1.7568,-1.7458,-1.7468,-1.7468,-1.7438,-1.7455,-1.7417,-1.7451,-1.7588,-1.7908,-1.8115,-1.8144,-1.8347,-1.8405,-1.8472,-1.8875,-1.9218,-1.9483,-1.9726,-2.0129,-2.0669,-2.0733,-2.0967,-2.14,-2.1549,-2.1761,-2.1874,-2.2061,-2.2197,-2.2197,-2.2197,-2.2197,-2.2197,-2.2197,-2.2197,-2.2197,-2.2197,-2.2321,-2.2555,-2.2482,-2.2543,-2.286,-2.2909,-2.303,-2.3463,-2.3569,-2.376,-2.4054,-2.4157,-2.4332,-2.4563,-2.4664,-2.4899,-2.5371,-2.5412,-2.548,-2.5792,-2.5846,-2.5846,-2.586,-2.586,-2.609,-2.6613,-2.6823,-2.6674,-2.6402,-2.6307,-2.6185,-2.5914,-2.5846,-2.5833,-2.5846,-2.6021,-2.6222,-2.6323,-2.6509,-2.6651,-2.6778,-2.6764,-2.675,-2.6793,-2.7059,-2.72,-2.727,-2.7509,-2.8099,-1.5039,-1.5077,-1.5458,-1.5933,-1.6407,-1.7246,-1.7994,-1.8727,-1.9123,-1.9519,-1.9817,-2.0297,-2.0162,-1.9606,-1.9579,-1.9396,-1.9146,-1.876,-1.8586,-1.854,-1.8265,-1.8073,-1.799,-1.7981,-1.7935,-1.7834,-1.7523,-1.7358,-1.7321,-1.7055,-1.6908,-1.6908,-1.6908,-1.6978,-1.7097,-1.7107,-1.7245,-1.7392,-1.752,-1.7716,-1.8008,-1.8279,-1.8414,-1.8617,-1.8942,-1.9351,-1.9605,-1.9922,-2.0248,-2.0669,-2.085,-2.1094,-2.1463,-2.1624,-2.1761,-2.1937,-2.2123,-2.2197,-2.2197,-2.2197,-2.2197,-2.2197,-2.2197,-2.2197,-2.2197,-2.2197,-2.2321,-2.2555,-2.2482,-2.2592,-2.2969,-2.2957,-2.309,-2.3497,-2.3616,-2.3747,-2.4054,-2.4099,-2.4287,-2.4563,-2.462,-2.4734,-2.4948,-2.5005,-2.5046,-2.5059,-2.5005,-2.5005,-2.5005,-2.5005,-2.5453,-2.6063,-2.6416,-2.6199,-2.5765,-2.5697,-2.552,-2.5046,-2.5046,-2.5113,-2.517,-2.5298,-2.5522,-2.5647,-2.5758,-2.5951,-2.5936,-2.595,-2.5978,-2.6062,-2.6357,-2.6596,-2.6624,-2.7088,-2.772,-1.4747,-1.4808,-1.5083,-1.5743,-1.6588,-1.7145,-1.7792,-1.8488,-1.8486,-1.8596,-1.8963,-1.9385,-1.964,-1.9516,-1.8849,-1.8679,-1.8742,-1.8357,-1.8183,-1.8174,-1.8146,-1.7926,-1.7578,-1.755,-1.7367,-1.7082,-1.7,-1.7,-1.7,-1.6936,-1.6908,-1.6908,-1.6908,-1.6908,-1.6908,-1.6908,-1.7047,-1.7235,-1.7235,-1.752,-1.794,-1.8008,-1.8269,-1.8741,-1.8808,-1.9075,-1.9539,-1.9802,-2.014,-2.0669,-2.085,-2.1158,-2.1635,-2.171,-2.1824,-2.2123,-2.2197,-2.2197,-2.2197,-2.2197,-2.2197,-2.2197,-2.2197,-2.2197,-2.2197,-2.2197,-2.2247,-2.2359,-2.242,-2.2543,-2.2848,-2.2909,-2.309,-2.3497,-2.3569,-2.376,-2.4054,-2.4203,-2.4363,-2.4563,-2.4664,-2.4835,-2.4948,-2.5005,-2.5005,-2.5005,-2.5005,-2.5005,-2.5005,-2.5005,-2.5032,-2.5208,-2.5208,-2.5236,-2.5141,-2.51,-2.5113,-2.5018,-2.5005,-2.5005,-2.5075,-2.5257,-2.5508,-2.5564,-2.5688,-2.5893,-2.5893,-2.5893,-2.5893,-2.5893,-2.5992,-2.602,-2.6062,-2.6483,-2.7102,-1.46,-1.4688,-1.479,-1.5363,-1.6116,-1.6871,-1.7323,-1.7583,-1.8088,-1.8057,-1.7636,-1.8154,-1.8443,-1.8559,-1.8395,-1.829,-1.8179,-1.7862,-1.7752,-1.7724,-1.7513,-1.7312,-1.7165,-1.7147,-1.7055,-1.6917,-1.6908,-1.6908,-1.6908,-1.6908,-1.6908,-1.6908,-1.6908,-1.6908,-1.6908,-1.6908,-1.6899,-1.7038,-1.7038,-1.7133,-1.735,-1.7746,-1.8212,-1.8617,-1.8741,-1.9075,-1.9539,-1.9857,-2.0259,-2.0669,-2.0914,-2.1285,-2.1698,-2.171,-2.1824,-2.2135,-2.2197,-2.2197,-2.2197,-2.2197,-2.2197,-2.2197,-2.2197,-2.2197,-2.2197,-2.2197,-2.2185,-2.2123,-2.2235,-2.2432,-2.2739,-2.2812,-2.2982,-2.339,-2.3463,-2.3641,-2.4054,-2.4041,-2.4157,-2.4376,-2.4607,-2.4734,-2.4835,-2.4948,-2.5005,-2.5005,-2.5005,-2.5005,-2.5005,-2.5005,-2.5005,-2.5005,-2.5005,-2.5005,-2.5005,-2.5005,-2.5005,-2.5005,-2.5005,-2.5005,-2.5018,-2.5257,-2.5508,-2.5508,-2.5702,-2.5893,-2.5893,-2.5893,-2.5893,-2.5893,-2.5893,-2.5893,-2.5893,-2.609,-2.6399,-1.4394,-1.4592,-1.4688,-1.5166,-1.5825,-1.6411,-1.6714,-1.6911,-1.7374,-1.7173,-1.6754,-1.7008,-1.7195,-1.7363,-1.772,-1.7769,-1.7613,-1.7379,-1.7259,-1.7303,-1.7027,-1.6908,-1.6908,-1.6908,-1.6908,-1.6908,-1.6908,-1.6908,-1.6908,-1.6908,-1.6908,-1.6908,-1.6908,-1.6908,-1.6908,-1.6908,-1.6908,-1.6908,-1.6908,-1.6899,-1.7082,-1.7466,-1.7841,-1.8141,-1.8243,-1.8647,-1.9157,-1.9533,-1.9852,-2.0266,-2.0682,-2.1088,-2.1424,-2.1542,-2.1749,-2.2011,-2.2073,-2.2073,-2.2061,-2.2073,-2.2073,-2.2061,-2.2073,-2.2073,-2.2073,-2.2073,-2.1999,-2.1874,-2.1999,-2.2197,-2.2494,-2.2629,-2.286,-2.3271,-2.333,-2.3582,-2.3865,-2.3878,-2.3995,-2.4203,-2.4492,-2.4677,-2.4835,-2.4948,-2.5005,-2.5005,-2.5005,-2.5005,-2.5005,-2.5005,-2.5005,-2.5005,-2.5005,-2.5005,-2.5005,-2.5005,-2.5005,-2.5005,-2.5005,-2.5005,-2.5005,-2.5257,-2.5439,-2.5494,-2.5702,-2.5853,-2.5893,-2.5893,-2.5893,-2.5893,-2.5893,-2.5893,-2.5893,-2.5907,-2.5907,-1.4298,-1.4394,-1.4885,-1.5356,-1.5805,-1.5817,-1.6232,-1.6696,-1.5963,-1.5922,-1.6498,-1.6102,-1.5926,-1.6235,-1.6594,-1.6908,-1.7126,-1.6847,-1.6815,-1.6963,-1.6927,-1.6908,-1.6908,-1.6908,-1.6908,-1.6908,-1.6908,-1.6908,-1.6908,-1.6908,-1.6908,-1.6908,-1.6908,-1.6908,-1.6908,-1.6908,-1.6908,-1.6908,-1.6908,-1.7079,-1.7288,-1.7044,-1.7012,-1.7246,-1.7312,-1.7656,-1.8246,-1.848,-1.8807,-1.928,-1.9889,-2.0373,-2.0737,-2.1171,-2.1467,-2.1639,-2.1726,-2.1651,-2.1702,-2.1678,-2.1702,-2.1737,-2.169,-2.1749,-2.1761,-2.1773,-2.1761,-2.1698,-2.1761,-2.1886,-2.2137,-2.2469,-2.2787,-2.309,-2.3271,-2.345,-2.3616,-2.376,-2.3949,-2.4112,-2.439,-2.4664,-2.4948,-2.5005,-2.5005,-2.5005,-2.5005,-2.5005,-2.5005,-2.5005,-2.5005,-2.5005,-2.5005,-2.5005,-2.5005,-2.5005,-2.5005,-2.5005,-2.5005,-2.5005,-2.5061,-2.5118,-2.53,-2.5481,-2.5633,-2.5784,-2.5839,-2.5893,-2.5893,-2.5893,-2.5893,-2.5893,-2.5893,-2.5893,-2.5893,-1.4298,-1.4298,-1.4688,-1.4975,-1.5065,-1.5251,-1.5267,-1.5282,-1.5177,-1.502,-1.5048,-1.5239,-1.5314,-1.513,-1.5635,-1.6128,-1.6617,-1.6596,-1.6673,-1.6908,-1.6908,-1.6908,-1.6908,-1.6908,-1.6908,-1.6908,-1.6908,-1.6908,-1.6908,-1.6908,-1.6908,-1.6908,-1.6908,-1.6908,-1.6908,-1.6908,-1.6908,-1.6908,-1.6908,-1.6995,-1.7005,-1.6665,-1.6504,-1.6665,-1.7019,-1.7533,-1.8179,-1.8405,-1.872,-1.9059,-1.9418,-1.9678,-2.0061,-2.0402,-2.0639,-2.0711,-2.0711,-2.0771,-2.0699,-2.0771,-2.0852,-2.1146,-2.1181,-2.1334,-2.1616,-2.171,-2.1635,-2.1526,-2.1624,-2.1643,-2.1495,-2.1969,-2.2555,-2.2909,-2.3017,-2.316,-2.3509,-2.3582,-2.3713,-2.3936,-2.4345,-2.4677,-2.4808,-2.4948,-2.5005,-2.5005,-2.5005,-2.5005,-2.5005,-2.5005,-2.5005,-2.5005,-2.5005,-2.5005,-2.5005,-2.5005,-2.5005,-2.5005,-2.5005,-2.5005,-2.5005,-2.5118,-2.5244,-2.5355,-2.5508,-2.5674,-2.5784,-2.5893,-2.5893,-2.5893,-2.5893,-2.5893,-2.5893,-2.5893,-2.5893,-1.4298,-1.437,-1.4407,-1.4422,-1.4387,-1.4471,-1.4394,-1.4213,-1.4306,-1.4214,-1.4087,-1.4469,-1.4579,-1.4673,-1.5078,-1.5647,-1.614,-1.6403,-1.6612,-1.683,-1.683,-1.6908,-1.6908,-1.6908,-1.6908,-1.6908,-1.6908,-1.6908,-1.6908,-1.6908,-1.6908,-1.6908,-1.6908,-1.6908,-1.6908,-1.6908,-1.6908,-1.6908,-1.6908,-1.6908,-1.6939,-1.6504,-1.6287,-1.6513,-1.6687,-1.7042,-1.7575,-1.7824,-1.8062,-1.8427,-1.8666,-1.9059,-1.9561,-1.9913,-2.003,-2.0041,-2.0053,-2.0041,-2.0041,-2.0041,-2.0182,-2.0486,-2.0544,-2.0708,-2.1046,-2.1082,-2.1008,-2.0935,-2.0935,-2.0895,-2.0828,-2.1151,-2.1717,-2.2149,-2.2268,-2.2446,-2.274,-2.2774,-2.2936,-2.3353,-2.3853,-2.4186,-2.448,-2.4684,-2.4821,-2.4892,-2.4835,-2.4892,-2.4948,-2.4948,-2.4948,-2.5005,-2.5005,-2.5005,-2.5005,-2.4991,-2.4964,-2.4964,-2.5005,-2.5005,-2.5005,-2.5061,-2.5174,-2.523,-2.5342,-2.5564,-2.5674,-2.5784,-2.5893,-2.5893,-2.5893,-2.5893,-2.5893,-2.5893,-2.5893,-1.4286,-1.4208,-1.4013,-1.3888,-1.3835,-1.347,-1.349,-1.3581,-1.324,-1.3355,-1.3722,-1.3719,-1.4038,-1.4497,-1.4784,-1.5221,-1.5788,-1.614,-1.6412,-1.6612,-1.683,-1.6899,-1.6908,-1.6908,-1.6908,-1.6908,-1.6908,-1.6908,-1.6908,-1.6908,-1.6908,-1.6908,-1.6908,-1.6908,-1.6908,-1.6908,-1.6908,-1.6908,-1.6908,-1.7097,-1.7366,-1.6656,-1.6402,-1.6779,-1.6327,-1.6141,-1.6456,-1.6608,-1.6992,-1.7353,-1.7794,-1.8408,-1.9143,-1.9469,-1.9608,-1.9609,-1.9667,-1.9643,-1.9667,-1.9632,-1.9586,-1.9748,-1.9748,-1.9782,-1.992,-1.9909,-1.9909,-1.9932,-1.9897,-1.9853,-1.9936,-2.0112,-2.0392,-2.0737,-2.1137,-2.1321,-2.1304,-2.1387,-2.1741,-2.2393,-2.2991,-2.3392,-2.3734,-2.4086,-2.4383,-2.441,-2.4436,-2.4423,-2.4482,-2.4469,-2.477,-2.4827,-2.4706,-2.4544,-2.4761,-2.4964,-2.4937,-2.491,-2.4978,-2.5005,-2.5005,-2.5061,-2.5061,-2.5174,-2.53,-2.5467,-2.5674,-2.5784,-2.5893,-2.5893,-2.5893,-2.5893,-2.5893,-2.5893,-2.5893,-1.3838,-1.3966,-1.3556,-1.3309,-1.3244,-1.2801,-1.2657,-1.283,-1.2599,-1.2743,-1.3026,-1.3389,-1.371,-1.4072,-1.4505,-1.4927,-1.5417,-1.5788,-1.6202,-1.6542,-1.6682,-1.6751,-1.6899,-1.6908,-1.6908,-1.6908,-1.6908,-1.6908,-1.6908,-1.6908,-1.6908,-1.6908,-1.6908,-1.6908,-1.6908,-1.6908,-1.6908,-1.6908,-1.6908,-1.7047,-1.7179,-1.6581,-1.6357,-1.6495,-1.6068,-1.5788,-1.5914,-1.6353,-1.674,-1.7078,-1.7207,-1.7586,-1.8137,-1.8385,-1.8509,-1.8621,-1.8621,-1.8621,-1.8576,-1.8655,-1.8827,-1.9057,-1.9149,-1.9333,-1.9631,-1.9666,-1.9654,-1.9666,-1.9688,-1.9632,-1.9414,-1.9412,-1.9757,-2.0583,-2.077,-2.088,-2.0969,-2.1275,-2.1592,-2.1869,-2.2354,-2.2732,-2.2921,-2.3269,-2.343,-2.343,-2.3417,-2.3472,-2.3486,-2.3621,-2.3528,-2.3636,-2.3663,-2.3893,-2.4001,-2.4082,-2.4137,-2.4286,-2.4489,-2.4625,-2.4706,-2.4747,-2.4788,-2.4968,-2.5107,-2.5329,-2.5563,-2.5784,-2.5839,-2.5893,-2.5893,-2.5893,-2.5893,-2.5893,-2.5893,-1.3516,-1.3562,-1.3037,-1.2753,-1.2616,-1.2086,-1.1991,-1.2112,-1.2162,-1.2298,-1.2606,-1.3046,-1.3419,-1.379,-1.4289,-1.4705,-1.4991,-1.5434,-1.5929,-1.6333,-1.6542,-1.6682,-1.683,-1.6899,-1.6908,-1.6908,-1.6908,-1.6908,-1.6908,-1.6908,-1.6908,-1.6908,-1.6908,-1.6908,-1.6908,-1.6908,-1.6908,-1.6908,-1.6908,-1.6895,-1.685,-1.644,-1.6218,-1.6158,-1.586,-1.5712,-1.574,-1.6171,-1.657,-1.6842,-1.7067,-1.7357,-1.7656,-1.7822,-1.7963,-1.8084,-1.8096,-1.8107,-1.8084,-1.8141,-1.8199,-1.8552,-1.8609,-1.8736,-1.9046,-1.9114,-1.9114,-1.9126,-1.908,-1.8988,-1.8813,-1.8777,-1.9162,-1.9657,-1.9849,-2.0053,-2.0287,-2.0483,-2.0719,-2.099,-2.1491,-2.1888,-2.2101,-2.2457,-2.2617,-2.263,-2.263,-2.2684,-2.2724,-2.2818,-2.2857,-2.291,-2.3177,-2.3298,-2.3203,-2.3256,-2.3243,-2.3513,-2.3811,-2.3974,-2.4069,-2.4055,-2.4082,-2.4245,-2.4409,-2.4805,-2.5078,-2.5549,-2.5784,-2.5839,-2.5781,-2.5893,-2.5893,-2.5893,-2.5893,-1.3058,-1.2955,-1.2499,-1.2137,-1.1872,-1.1523,-1.1465,-1.1496,-1.1787,-1.2077,-1.2378,-1.2673,-1.3119,-1.3557,-1.4072,-1.4425,-1.4641,-1.515,-1.5576,-1.5921,-1.6263,-1.6542,-1.6691,-1.683,-1.6908,-1.6908,-1.6908,-1.6908,-1.6908,-1.6908,-1.6908,-1.6908,-1.6908,-1.6908,-1.6908,-1.6908,-1.6908,-1.6908,-1.6872,-1.6729,-1.6598,-1.6262,-1.6075,-1.5798,-1.5743,-1.5672,-1.5672,-1.5999,-1.6285,-1.6627,-1.7134,-1.7468,-1.7645,-1.7799,-1.7963,-1.8084,-1.8084,-1.8084,-1.8084,-1.8084,-1.8107,-1.8153,-1.8164,-1.8084,-1.8233,-1.8302,-1.829,-1.8267,-1.8233,-1.8187,-1.8208,-1.8328,-1.846,-1.8457,-1.876,-1.8952,-1.8982,-1.9218,-1.9592,-1.9972,-2.0538,-2.108,-2.1263,-2.1837,-2.2086,-2.2205,-2.2166,-2.2207,-2.226,-2.2234,-2.2485,-2.2551,-2.2469,-2.2519,-2.2409,-2.2409,-2.2461,-2.2593,-2.2945,-2.3175,-2.3485,-2.3553,-2.3513,-2.3648,-2.3809,-2.4202,-2.4555,-2.498,-2.5322,-2.5359,-2.5444,-2.5739,-2.5697,-2.5486,-2.5444,-1.2458,-1.2478,-1.196,-1.1697,-1.1588,-1.1326,-1.126,-1.1403,-1.1484,-1.1781,-1.2077,-1.2378,-1.2746,-1.3266,-1.3564,-1.4065,-1.4569,-1.4935,-1.5292,-1.5576,-1.5991,-1.6482,-1.676,-1.6839,-1.6908,-1.6908,-1.6908,-1.6908,-1.6908,-1.6908,-1.6908,-1.6908,-1.6908,-1.6908,-1.6908,-1.6908,-1.6908,-1.6853,-1.6597,-1.6441,-1.6344,-1.5989,-1.5718,-1.5638,-1.5526,-1.5498,-1.5536,-1.5884,-1.6285,-1.6751,-1.6955,-1.729,-1.7656,-1.7755,-1.7865,-1.8084,-1.8084,-1.8084,-1.8084,-1.8084,-1.8084,-1.8084,-1.8084,-1.8084,-1.8084,-1.8084,-1.8084,-1.8084,-1.8084,-1.8084,-1.8096,-1.815,-1.8205,-1.8205,-1.841,-1.8679,-1.8839,-1.8999,-1.9198,-1.9641,-1.9962,-2.0322,-2.0669,-2.0926,-2.1134,-2.1224,-2.1288,-2.1275,-2.1432,-2.147,-2.1665,-2.1453,-2.1409,-2.1509,-2.1596,-2.1645,-2.1668,-2.1727,-2.1997,-2.2414,-2.2821,-2.3175,-2.3216,-2.3283,-2.3387,-2.3694,-2.3879,-2.4146,-2.4375,-2.4759,-2.4755,-2.484,-2.4709,-2.4526,-2.4596,-1.1809,-1.1999,-1.1605,-1.1307,-1.1341,-1.1184,-1.1186,-1.126,-1.1409,-1.1558,-1.1861,-1.215,-1.2526,-1.2973,-1.3346,-1.3783,-1.4289,-1.4649,-1.4999,-1.5426,-1.5921,-1.6412,-1.6691,-1.683,-1.6908,-1.6908,-1.6908,-1.6908,-1.6908,-1.6908,-1.6908,-1.6908,-1.6908,-1.6908,-1.6908,-1.6908,-1.6807,-1.6652,-1.6413,-1.6184,-1.578,-1.561,-1.5458,-1.5349,-1.5311,-1.5371,-1.5546,-1.5846,-1.6239,-1.6694,-1.6965,-1.7245,-1.7656,-1.7711,-1.7822,-1.8084,-1.8084,-1.8084,-1.8084,-1.8084,-1.8084,-1.8084,-1.8084,-1.8084,-1.8084,-1.8084,-1.8084,-1.8084,-1.8084,-1.8084,-1.8084,-1.8084,-1.8084,-1.8139,-1.8302,-1.8464,-1.8595,-1.8798,-1.904,-1.9291,-1.9604,-1.9862,-2.0195,-2.0347,-2.0511,-2.0638,-2.078,-2.0804,-2.0791,-2.0775,-2.0825,-2.0875,-2.0888,-2.1093,-2.1282,-2.1332,-2.143,-2.1385,-2.151,-2.1857,-2.2142,-2.2607,-2.2512,-2.2563,-2.2828,-2.3053,-2.3206,-2.3432,-2.3895,-2.411,-2.4016,-2.4047,-2.4019,-2.3808,-2.385,-1.1362,-1.1541,-1.1288,-1.1112,-1.1141,-1.1117,-1.1111,-1.1111,-1.126,-1.1477,-1.1706,-1.2077,-1.2338,-1.2551,-1.3013,-1.3484,-1.3655,-1.4135,-1.467,-1.5138,-1.5705,-1.6138,-1.6426,-1.6802,-1.6899,-1.6908,-1.6908,-1.6908,-1.6908,-1.6908,-1.6908,-1.6908,-1.6908,-1.6908,-1.6881,-1.6853,-1.6642,-1.6386,-1.6147,-1.579,-1.5322,-1.5241,-1.5139,-1.5084,-1.5195,-1.5381,-1.5614,-1.5846,-1.6202,-1.6694,-1.6909,-1.72,-1.7601,-1.7711,-1.7822,-1.803,-1.8084,-1.8084,-1.8084,-1.8084,-1.8084,-1.8084,-1.8084,-1.8084,-1.8084,-1.8084,-1.8084,-1.8084,-1.8084,-1.8084,-1.8084,-1.8084,-1.8084,-1.8084,-1.8139,-1.8193,-1.8356,-1.8583,-1.8798,-1.8999,-1.9448,-1.9643,-1.9914,-2.0131,-2.041,-2.0511,-2.0612,-2.0649,-2.0649,-2.0699,-2.0762,-2.0749,-2.0825,-2.0901,-2.1,-2.1086,-2.1184,-2.1256,-2.1353,-2.1537,-2.1572,-2.1803,-2.1627,-2.1654,-2.2097,-2.2387,-2.2501,-2.2862,-2.3331,-2.3417,-2.3301,-2.3547,-2.378,-2.3463,-2.3336,-1.0712,-1.1048,-1.0936,-1.0946,-1.1117,-1.1117,-1.1117,-1.1117,-1.118,-1.131,-1.1471,-1.17,-1.1939,-1.2107,-1.2451,-1.2699,-1.2949,-1.3461,-1.3942,-1.4564,-1.4889,-1.5288,-1.5813,-1.6423,-1.6881,-1.6899,-1.6908,-1.6908,-1.6908,-1.6908,-1.6899,-1.689,-1.6844,-1.689,-1.6835,-1.6551,-1.6422,-1.6221,-1.5725,-1.534,-1.5102,-1.4911,-1.4906,-1.497,-1.5196,-1.543,-1.5672,-1.5856,-1.6087,-1.6431,-1.6761,-1.7088,-1.7545,-1.7711,-1.7822,-1.803,-1.8084,-1.8084,-1.8084,-1.8084,-1.8084,-1.8084,-1.8084,-1.8084,-1.8084,-1.8084,-1.8084,-1.8084,-1.8084,-1.8084,-1.8084,-1.8084,-1.8084,-1.8084,-1.8084,-1.8084,-1.8205,-1.8367,-1.8637,-1.8893,-1.9093,-1.9344,-1.9708,-1.9862,-2.0131,-2.041,-2.0511,-2.0599,-2.0649,-2.0649,-2.0699,-2.0699,-2.0699,-2.0825,-2.0888,-2.0974,-2.1059,-2.1193,-2.1277,-2.1375,-2.1423,-2.141,-2.141,-2.1423,-2.1518,-2.1703,-2.1978,-2.2055,-2.2477,-2.2526,-2.2594,-2.2845,-2.2963,-2.2814,-2.2842,-1.035,-1.064,-1.0627,-1.0812,-1.0962,-1.1037,-1.1117,-1.1081,-1.0972,-1.1004,-1.1192,-1.125,-1.1307,-1.16,-1.1866,-1.2116,-1.2562,-1.3184,-1.3651,-1.4073,-1.4469,-1.4901,-1.5106,-1.5797,-1.6283,-1.666,-1.683,-1.6908,-1.6908,-1.6872,-1.6798,-1.6642,-1.6624,-1.6468,-1.6358,-1.6138,-1.5918,-1.5698,-1.5359,-1.5029,-1.4808,-1.4685,-1.4734,-1.497,-1.5205,-1.5371,-1.5546,-1.5788,-1.6019,-1.6306,-1.6581,-1.6976,-1.7434,-1.7645,-1.781,-1.7975,-1.8084,-1.8084,-1.8084,-1.8084,-1.8084,-1.8084,-1.8084,-1.8084,-1.8084,-1.8084,-1.8084,-1.8084,-1.8084,-1.8084,-1.8084,-1.8084,-1.8084,-1.8084,-1.8084,-1.8084,-1.8139,-1.8302,-1.8464,-1.8732,-1.8881,-1.9093,-1.9356,-1.9604,-1.9811,-2.0131,-2.0296,-2.0385,-2.0562,-2.0612,-2.0649,-2.0649,-2.0699,-2.0712,-2.0775,-2.0875,-2.1023,-2.1095,-2.1229,-2.1326,-2.1375,-2.141,-2.141,-2.1423,-2.1388,-2.1437,-2.1642,-2.1664,-2.1807,-2.2027,-2.2178,-2.218,-2.2273,-2.2442,-2.247,-0.9984,-1.0279,-1.0377,-1.0594,-1.0812,-1.0962,-1.1007,-1.1009,-1.0822,-1.0791,-1.0842,-1.0621,-1.0849,-1.1103,-1.1369,-1.1696,-1.2291,-1.2793,-1.3176,-1.351,-1.3955,-1.4306,-1.4538,-1.492,-1.5464,-1.6309,-1.6428,-1.6506,-1.6506,-1.6638,-1.6306,-1.6191,-1.6154,-1.6092,-1.579,-1.5606,-1.5487,-1.523,-1.5047,-1.4854,-1.4616,-1.4524,-1.4684,-1.4911,-1.5088,-1.5205,-1.5371,-1.5604,-1.5904,-1.6124,-1.6524,-1.6931,-1.7211,-1.7545,-1.7755,-1.7909,-1.803,-1.8084,-1.8084,-1.8084,-1.8084,-1.8084,-1.8084,-1.8084,-1.8084,-1.8084,-1.8084,-1.8084,-1.8084,-1.8084,-1.8084,-1.8084,-1.8084,-1.8084,-1.8084,-1.8084,-1.8139,-1.8247,-1.8356,-1.8464,-1.8679,-1.8893,-1.9093,-1.9344,-1.9604,-1.9798,-2.0016,-2.0182,-2.0347,-2.0511,-2.0562,-2.0599,-2.0649,-2.0699,-2.0762,-2.0838,-2.0974,-2.1059,-2.118,-2.1277,-2.1375,-2.1375,-2.1361,-2.141,-2.1423,-2.1423,-2.1471,-2.1616,-2.1712,-2.1793,-2.1935,-2.2077,-2.2123,-2.217,-2.217,-0.9453,-0.9976,-1.0008,-1.0293,-1.0738,-1.0812,-1.0825,-1.0731,-1.0719,-1.0586,-1.0469,-1.0541,-1.0504,-1.0648,-1.0929,-1.1335,-1.1717,-1.215,-1.2436,-1.2743,-1.3135,-1.3359,-1.3772,-1.4005,-1.4444,-1.4981,-1.5318,-1.5459,-1.5587,-1.5498,-1.5617,-1.5631,-1.5595,-1.5569,-1.5487,-1.5386,-1.5104,-1.4939,-1.4739,-1.4547,-1.4492,-1.4515,-1.4565,-1.4784,-1.4911,-1.5088,-1.5205,-1.5362,-1.5594,-1.5904,-1.6353,-1.6694,-1.6987,-1.7379,-1.77,-1.7854,-1.803,-1.8084,-1.8084,-1.8084,-1.8084,-1.8084,-1.8084,-1.8084,-1.8084,-1.8084,-1.8084,-1.8084,-1.8084,-1.8084,-1.8084,-1.8084,-1.8084,-1.8084,-1.8084,-1.8084,-1.8096,-1.815,-1.8259,-1.8356,-1.8464,-1.8637,-1.8893,-1.9093,-1.9344,-1.9552,-1.9759,-1.9965,-2.0182,-2.0347,-2.0461,-2.0562,-2.0612,-2.0649,-2.0699,-2.0825,-2.0938,-2.0974,-2.1059,-2.118,-2.1277,-2.1361,-2.1361,-2.141,-2.141,-2.141,-2.1458,-2.1568,-2.1664,-2.1793,-2.1935,-2.2077,-2.2123,-2.217,-2.217,-0.9094,-0.9468,-0.9771,-0.9996,-1.0194,-1.0472,-1.0544,-1.0384,-1.0305,-1.0248,-1.0115,-1.0056,-1.006,-1.0145,-1.038,-1.0796,-1.1283,-1.163,-1.1872,-1.2182,-1.2444,-1.2685,-1.3064,-1.326,-1.3522,-1.3844,-1.4093,-1.4652,-1.5145,-1.5207,-1.5112,-1.5024,-1.5052,-1.4962,-1.4835,-1.4637,-1.4556,-1.4493,-1.4436,-1.4396,-1.4396,-1.4455,-1.4556,-1.4666,-1.4784,-1.4911,-1.5088,-1.5303,-1.5536,-1.5846,-1.6249,-1.6534,-1.6864,-1.7211,-1.7545,-1.7689,-1.7909,-1.8018,-1.803,-1.8018,-1.8084,-1.8084,-1.8084,-1.8084,-1.8084,-1.8084,-1.8084,-1.8084,-1.8084,-1.8084,-1.8084,-1.8084,-1.8084,-1.8084,-1.8084,-1.8084,-1.8084,-1.8084,-1.8139,-1.8247,-1.8356,-1.8518,-1.8637,-1.8839,-1.9081,-1.9291,-1.9512,-1.9708,-1.9965,-2.0131,-2.0246,-2.0461,-2.0562,-2.0662,-2.0649,-2.0762,-2.0825,-2.0875,-2.1023,-2.1095,-2.1229,-2.1313,-2.1361,-2.141,-2.141,-2.141,-2.1471,-2.152,-2.1664,-2.1759,-2.1902,-2.203,-2.2123,-2.217,-2.217,-0.8722,-0.8954,-0.943,-0.9601,-0.959,-1.0001,-1.0149,-1.0042,-0.9914,-0.9862,-0.9766,-0.9604,-0.9637,-0.981,-1.0066,-1.0434,-1.0996,-1.131,-1.163,-1.1809,-1.2058,-1.2313,-1.2506,-1.2621,-1.2854,-1.3042,-1.3219,-1.3791,-1.4484,-1.4716,-1.4656,-1.4551,-1.4462,-1.4338,-1.4107,-1.4159,-1.401,-1.407,-1.4139,-1.4267,-1.4267,-1.4327,-1.4437,-1.4538,-1.4597,-1.4666,-1.4902,-1.5137,-1.5362,-1.5662,-1.6066,-1.6436,-1.6599,-1.7,-1.7224,-1.7357,-1.7622,-1.7788,-1.7854,-1.7909,-1.7975,-1.803,-1.8084,-1.8084,-1.8084,-1.8084,-1.8084,-1.8084,-1.8084,-1.8084,-1.8084,-1.8084,-1.8084,-1.8084,-1.8084,-1.8084,-1.8084,-1.8084,-1.8084,-1.8193,-1.8247,-1.8356,-1.8464,-1.8583,-1.8827,-1.904,-1.9251,-1.9408,-1.9604,-1.985,-2.0016,-2.0334,-2.0498,-2.0612,-2.0662,-2.0649,-2.0762,-2.0812,-2.0911,-2.1046,-2.118,-2.1264,-2.1313,-2.141,-2.141,-2.141,-2.1471,-2.152,-2.1616,-2.1712,-2.1855,-2.1996,-2.2137,-2.217,-2.217,-0.8291,-0.8498,-0.8533,-0.8862,-0.9254,-0.939,-0.9541,-0.9732,-0.9673,-0.967,-0.9562,-0.9508,-0.9612,-0.9804,-1.0117,-1.0364,-1.0681,-1.0996,-1.131,-1.156,-1.1747,-1.1934,-1.2189,-1.2313,-1.249,-1.2621,-1.2805,-1.3075,-1.3583,-1.3776,-1.3883,-1.3883,-1.3952,-1.3934,-1.3976,-1.395,-1.401,-1.401,-1.401,-1.401,-1.407,-1.4079,-1.413,-1.4189,-1.4258,-1.4446,-1.4606,-1.4893,-1.5196,-1.5468,-1.5874,-1.5976,-1.5963,-1.6493,-1.6686,-1.683,-1.7191,-1.77,-1.7689,-1.7755,-1.781,-1.792,-1.7909,-1.7975,-1.803,-1.803,-1.803,-1.8084,-1.8084,-1.8084,-1.8084,-1.8084,-1.8084,-1.8084,-1.8084,-1.8084,-1.8084,-1.8084,-1.8084,-1.8084,-1.8193,-1.8247,-1.8356,-1.841,-1.853,-1.8732,-1.8946,-1.9093,-1.9344,-1.9604,-1.9798,-2.0118,-2.0347,-2.0461,-2.0612,-2.0612,-2.0649,-2.0712,-2.0898,-2.1046,-2.1131,-2.1229,-2.1361,-2.141,-2.141,-2.141,-2.141,-2.1471,-2.1568,-2.1664,-2.1807,-2.1996,-2.2184,-2.2184,-2.217,-0.7615,-0.8073,-0.8198,-0.8364,-0.86,-0.8949,-0.9018,-0.9102,-0.9319,-0.945,-0.942,-0.9478,-0.9606,-0.9804,-1.0053,-1.0308,-1.0555,-1.0807,-1.1059,-1.1247,-1.1373,-1.156,-1.1747,-1.1934,-1.2058,-1.2367,-1.2621,-1.2813,-1.305,-1.3285,-1.3467,-1.358,-1.3631,-1.3649,-1.3761,-1.37,-1.37,-1.3761,-1.3821,-1.3941,-1.401,-1.401,-1.401,-1.401,-1.4207,-1.4327,-1.4437,-1.4656,-1.4961,-1.5196,-1.5417,-1.5507,-1.5581,-1.5792,-1.5785,-1.5913,-1.6418,-1.7005,-1.7468,-1.7623,-1.77,-1.7755,-1.781,-1.781,-1.7877,-1.7877,-1.792,-1.7963,-1.7963,-1.8018,-1.8084,-1.8084,-1.8084,-1.8084,-1.803,-1.8084,-1.8084,-1.8084,-1.8084,-1.8084,-1.8084,-1.8193,-1.8247,-1.8356,-1.8422,-1.853,-1.8732,-1.8893,-1.9146,-1.9448,-1.9708,-1.9914,-2.0131,-2.0258,-2.041,-2.0562,-2.0612,-2.0712,-2.0898,-2.0997,-2.1046,-2.118,-2.1313,-2.1361,-2.141,-2.141,-2.141,-2.141,-2.1506,-2.1616,-2.1759,-2.1949,-2.2091,-2.2184,-2.2184,-0.6829,-0.7446,-0.779,-0.7903,-0.7899,-0.8436,-0.8612,-0.8598,-0.8969,-0.9215,-0.9274,-0.9344,-0.9542,-0.974,-0.9862,-1.011,-1.0371,-1.0555,-1.0744,-1.087,-1.0996,-1.1122,-1.1373,-1.1498,-1.1809,-1.212,-1.2367,-1.2621,-1.2805,-1.305,-1.3224,-1.3459,-1.3511,-1.3511,-1.3511,-1.3511,-1.3511,-1.358,-1.364,-1.3761,-1.3821,-1.3821,-1.3881,-1.395,-1.4079,-1.4207,-1.4249,-1.4341,-1.4606,-1.4773,-1.4788,-1.4845,-1.4915,-1.5004,-1.506,-1.5185,-1.5574,-1.6235,-1.6852,-1.7236,-1.7512,-1.7601,-1.7711,-1.7711,-1.7711,-1.7711,-1.7711,-1.7854,-1.7854,-1.792,-1.7975,-1.7975,-1.7975,-1.792,-1.7975,-1.803,-1.8018,-1.803,-1.8084,-1.8084,-1.8084,-1.8084,-1.8193,-1.8247,-1.8313,-1.8313,-1.8476,-1.8679,-1.8934,-1.9251,-1.9448,-1.9656,-1.9862,-2.0042,-2.0195,-2.0347,-2.0461,-2.0662,-2.0848,-2.0997,-2.1046,-2.1131,-2.1264,-2.1361,-2.1361,-2.141,-2.141,-2.141,-2.1458,-2.1602,-2.1746,-2.1841,-2.1983,-2.2091,-2.2184,-0.5911,-0.6519,-0.7047,-0.7377,-0.7559,-0.7942,-0.8203,-0.8415,-0.8753,-0.886,-0.9006,-0.9198,-0.9372,-0.953,-0.9658,-0.9798,-0.9868,-0.9989,-1.0244,-1.0428,-1.0555,-1.0744,-1.0996,-1.131,-1.1567,-1.1747,-1.2058,-1.2367,-1.2621,-1.2805,-1.305,-1.3302,-1.3398,-1.345,-1.3511,-1.3511,-1.3511,-1.3511,-1.3571,-1.3537,-1.3528,-1.352,-1.3511,-1.3562,-1.3717,-1.3881,-1.4034,-1.3987,-1.4033,-1.4194,-1.415,-1.4082,-1.4054,-1.4252,-1.4358,-1.4419,-1.479,-1.5363,-1.5913,-1.6655,-1.7101,-1.7312,-1.749,-1.7656,-1.7656,-1.7645,-1.77,-1.7711,-1.77,-1.7755,-1.7755,-1.7767,-1.7767,-1.7822,-1.7822,-1.7865,-1.792,-1.7909,-1.7963,-1.8084,-1.8084,-1.803,-1.803,-1.8139,-1.8193,-1.8205,-1.8367,-1.8572,-1.8679,-1.8946,-1.9081,-1.9291,-1.9604,-1.9759,-1.9862,-2.008,-2.0296,-2.0549,-2.0749,-2.0848,-2.0997,-2.1131,-2.1264,-2.1313,-2.1361,-2.1361,-2.141,-2.141,-2.1458,-2.1554,-2.1698,-2.1841,-2.1983,-2.2123,-2.217,-0.5421,-0.5712,-0.6212,-0.6786,-0.7335,-0.7591,-0.7777,-0.799,-0.8291,-0.8505,-0.8571,-0.8833,-0.8919,-0.9086,-0.9418,-0.9594,-0.9658,-0.9926,-0.9977,-1.0117,-1.0244,-1.0434,-1.0681,-1.0933,-1.1192,-1.1498,-1.1809,-1.212,-1.2428,-1.256,-1.2744,-1.2989,-1.3224,-1.3407,-1.3459,-1.3511,-1.3511,-1.3502,-1.3476,-1.3417,-1.3194,-1.3168,-1.3074,-1.2834,-1.2998,-1.3055,-1.3134,-1.3327,-1.3488,-1.3534,-1.3487,-1.337,-1.3314,-1.3527,-1.3591,-1.3571,-1.4053,-1.4502,-1.4976,-1.5849,-1.6632,-1.7056,-1.7323,-1.7434,-1.749,-1.7434,-1.749,-1.7545,-1.7601,-1.759,-1.77,-1.7711,-1.7711,-1.7711,-1.7711,-1.77,-1.7755,-1.7799,-1.781,-1.792,-1.792,-1.7865,-1.792,-1.7963,-1.803,-1.8084,-1.8247,-1.841,-1.8583,-1.8691,-1.8827,-1.8975,-1.9291,-1.9552,-1.9656,-1.9914,-2.0182,-2.0398,-2.0599,-2.0749,-2.0898,-2.1082,-2.1215,-2.1264,-2.1313,-2.1361,-2.1361,-2.141,-2.1458,-2.1506,-2.1698,-2.1902,-2.203,-2.2123,-2.217,-0.5003,-0.5157,-0.5582,-0.6212,-0.6949,-0.7208,-0.7385,-0.7516,-0.787,-0.8144,-0.8274,-0.8463,-0.8537,-0.8717,-0.8933,-0.914,-0.9146,-0.94,-0.9586,-0.9686,-0.9787,-1.0034,-1.0308,-1.0561,-1.0877,-1.1247,-1.156,-1.1809,-1.2058,-1.2375,-1.256,-1.2805,-1.2989,-1.3224,-1.3407,-1.3511,-1.3511,-1.3502,-1.3365,-1.3262,-1.3064,-1.2843,-1.274,-1.2466,-1.2578,-1.2633,-1.2654,-1.2795,-1.2797,-1.2833,-1.2816,-1.274,-1.2802,-1.2828,-1.2812,-1.3018,-1.3303,-1.3691,-1.4236,-1.5227,-1.6286,-1.6925,-1.7145,-1.7267,-1.7278,-1.7278,-1.739,-1.7434,-1.7434,-1.7479,-1.7601,-1.7545,-1.7545,-1.749,-1.749,-1.7545,-1.759,-1.7645,-1.77,-1.7767,-1.7755,-1.7755,-1.781,-1.7865,-1.7975,-1.803,-1.8139,-1.8247,-1.8302,-1.8464,-1.8625,-1.8774,-1.8934,-1.9239,-1.9488,-1.9759,-1.9978,-2.0131,-2.0334,-2.0599,-2.0799,-2.0983,-2.118,-2.1229,-2.1277,-2.1361,-2.1361,-2.141,-2.141,-2.141,-2.1602,-2.1855,-2.1983,-2.2123,-2.217,-0.4658,-0.5026,-0.5264,-0.5759,-0.6384,-0.6741,-0.6986,-0.7151,-0.7434,-0.7763,-0.796,-0.808,-0.8156,-0.8286,-0.842,-0.8526,-0.856,-0.8699,-0.8904,-0.9057,-0.9295,-0.9572,-0.9844,-1.0197,-1.0374,-1.071,-1.1066,-1.141,-1.164,-1.205,-1.2297,-1.2528,-1.2687,-1.294,-1.3285,-1.345,-1.3502,-1.3451,-1.3092,-1.2913,-1.2726,-1.2479,-1.2317,-1.2172,-1.2138,-1.2166,-1.2223,-1.2121,-1.2132,-1.2219,-1.2133,-1.2113,-1.2208,-1.233,-1.2471,-1.2646,-1.2861,-1.3224,-1.377,-1.511,-1.6071,-1.6727,-1.6914,-1.7134,-1.7267,-1.7278,-1.7278,-1.7334,-1.7334,-1.7334,-1.7334,-1.7334,-1.7334,-1.739,-1.7379,-1.7379,-1.749,-1.7534,-1.7545,-1.7545,-1.7656,-1.7711,-1.7755,-1.781,-1.792,-1.803,-1.8084,-1.8139,-1.8139,-1.8247,-1.841,-1.8572,-1.8732,-1.8934,-1.9239,-1.9552,-1.9759,-1.9914,-2.0118,-2.0385,-2.0599,-2.0799,-2.0997,-2.1144,-2.1229,-2.1277,-2.1361,-2.141,-2.141,-2.141,-2.1616,-2.1807,-2.1983,-2.2077,-2.2123,-0.4176,-0.4502,-0.473,-0.5133,-0.5739,-0.6329,-0.6652,-0.674,-0.7017,-0.7226,-0.737,-0.7535,-0.7621,-0.7775,-0.7996,-0.8117,-0.821,-0.8297,-0.8508,-0.8526,-0.8763,-0.8926,-0.9211,-0.9497,-0.9773,-1.004,-1.049,-1.0941,-1.1291,-1.1615,-1.1965,-1.222,-1.2245,-1.2595,-1.2901,-1.2972,-1.2789,-1.2781,-1.2496,-1.2195,-1.1977,-1.1827,-1.1659,-1.1511,-1.1503,-1.1511,-1.1625,-1.1455,-1.1533,-1.1679,-1.1595,-1.1737,-1.1828,-1.2017,-1.2175,-1.2323,-1.249,-1.2918,-1.3588,-1.459,-1.5444,-1.6113,-1.6727,-1.6989,-1.7078,-1.7211,-1.7267,-1.7278,-1.7278,-1.7278,-1.7334,-1.7334,-1.7334,-1.7334,-1.7334,-1.7334,-1.739,-1.739,-1.739,-1.739,-1.7445,-1.7534,-1.759,-1.7645,-1.781,-1.7865,-1.792,-1.803,-1.8084,-1.8139,-1.8247,-1.8356,-1.8518,-1.8732,-1.8987,-1.9239,-1.9552,-1.9708,-1.9914,-2.0118,-2.0334,-2.0599,-2.0799,-2.0983,-2.1131,-2.1229,-2.1326,-2.141,-2.141,-2.1458,-2.1616,-2.1759,-2.1902,-2.1996,-2.2091,-0.382,-0.4027,-0.4353,-0.4684,-0.5108,-0.5719,-0.6147,-0.6417,-0.6614,-0.6771,-0.6921,-0.7157,-0.7271,-0.737,-0.7581,-0.772,-0.7788,-0.7935,-0.8074,-0.8091,-0.8305,-0.854,-0.8717,-0.8844,-0.9225,-0.9506,-0.9833,-1.0265,-1.0562,-1.0994,-1.1293,-1.1592,-1.1678,-1.1905,-1.2204,-1.2282,-1.2365,-1.2265,-1.2016,-1.1743,-1.149,-1.1308,-1.1127,-1.1029,-1.0963,-1.0955,-1.093,-1.0972,-1.1074,-1.1167,-1.1267,-1.1427,-1.1578,-1.1769,-1.1918,-1.2126,-1.2351,-1.278,-1.3341,-1.4096,-1.4887,-1.5444,-1.6303,-1.681,-1.6955,-1.7078,-1.7145,-1.7211,-1.7267,-1.7278,-1.7278,-1.7278,-1.7278,-1.7278,-1.7278,-1.7278,-1.7278,-1.7334,-1.7334,-1.7278,-1.7334,-1.7379,-1.7423,-1.7534,-1.7645,-1.77,-1.781,-1.792,-1.803,-1.8084,-1.8139,-1.8247,-1.8367,-1.8572,-1.8732,-1.8934,-1.9239,-1.95,-1.9708,-1.9862,-2.0118,-2.0385,-2.0586,-2.0822,-2.0983,-2.118,-2.1313,-2.141,-2.141,-2.141,-2.1471,-2.1664,-2.1855,-2.1949,-2.2044,-0.3585,-0.3697,-0.4245,-0.446,-0.4577,-0.5163,-0.5707,-0.6182,-0.6332,-0.6598,-0.6885,-0.6895,-0.7025,-0.7106,-0.7171,-0.7198,-0.7242,-0.7359,-0.7526,-0.7711,-0.7868,-0.8126,-0.834,-0.8567,-0.8679,-0.899,-0.9363,-0.9615,-0.9731,-1.0282,-1.0683,-1.0853,-1.1009,-1.1156,-1.1351,-1.1583,-1.175,-1.1701,-1.1543,-1.1284,-1.1153,-1.1017,-1.091,-1.082,-1.0812,-1.0812,-1.082,-1.0871,-1.0871,-1.0913,-1.1023,-1.1167,-1.1267,-1.1427,-1.1728,-1.2026,-1.2323,-1.2567,-1.2958,-1.3691,-1.4337,-1.4917,-1.587,-1.6448,-1.6807,-1.6909,-1.6976,-1.7088,-1.7145,-1.7211,-1.7278,-1.7278,-1.7278,-1.7278,-1.7278,-1.7278,-1.7278,-1.7278,-1.7278,-1.7278,-1.7278,-1.7334,-1.7379,-1.7434,-1.7479,-1.7534,-1.7645,-1.7744,-1.7865,-1.8018,-1.8018,-1.815,-1.8259,-1.8367,-1.8518,-1.8732,-1.8934,-1.9239,-1.9448,-1.9656,-1.9914,-2.0169,-2.0422,-2.0673,-2.0885,-2.1082,-2.1264,-2.1361,-2.141,-2.141,-2.1423,-2.152,-2.1712,-2.1888,-2.1983,-0.3193,-0.3585,-0.3805,-0.4132,-0.4574,-0.5073,-0.5567,-0.6064,-0.6228,-0.644,-0.6766,-0.6879,-0.6928,-0.7079,-0.7139,-0.7085,-0.7112,-0.7144,-0.7231,-0.7356,-0.7494,-0.7589,-0.776,-0.795,-0.8086,-0.8318,-0.8689,-0.9028,-0.9362,-0.9804,-1.0073,-1.0183,-1.0361,-1.0359,-1.0455,-1.0621,-1.0955,-1.1118,-1.0963,-1.0874,-1.0817,-1.0732,-1.0675,-1.0667,-1.0667,-1.0667,-1.0667,-1.0667,-1.0667,-1.0769,-1.082,-1.0922,-1.1175,-1.1276,-1.1528,-1.1918,-1.2126,-1.2292,-1.2575,-1.3237,-1.389,-1.4384,-1.5184,-1.5991,-1.6444,-1.6751,-1.6807,-1.6864,-1.6965,-1.7088,-1.7155,-1.7155,-1.7222,-1.7222,-1.7222,-1.7267,-1.7267,-1.7278,-1.7278,-1.7278,-1.7278,-1.7278,-1.7334,-1.7334,-1.7379,-1.7434,-1.7479,-1.759,-1.7689,-1.7854,-1.7963,-1.8084,-1.815,-1.8259,-1.8367,-1.8518,-1.8732,-1.8987,-1.9198,-1.9448,-1.9747,-2.0016,-2.0271,-2.0536,-2.0822,-2.1019,-2.1215,-2.1264,-2.141,-2.141,-2.141,-2.1471,-2.1568,-2.1746,-2.1888,-0.2795,-0.3174,-0.3278,-0.3649,-0.4177,-0.4608,-0.5031,-0.5474,-0.5936,-0.6277,-0.6495,-0.6603,-0.6761,-0.6923,-0.6977,-0.7036,-0.7036,-0.7095,-0.716,-0.7166,-0.7198,-0.7285,-0.7371,-0.7467,-0.7609,-0.7859,-0.8075,-0.8404,-0.8741,-0.9192,-0.9474,-0.9465,-0.9653,-0.9758,-0.9874,-1.0082,-1.03,-1.0504,-1.0553,-1.0494,-1.047,-1.047,-1.0522,-1.047,-1.047,-1.047,-1.047,-1.047,-1.0565,-1.0624,-1.0675,-1.0777,-1.0972,-1.1167,-1.1368,-1.1719,-1.1877,-1.1977,-1.224,-1.2757,-1.338,-1.4005,-1.4631,-1.5365,-1.6007,-1.642,-1.6534,-1.6648,-1.6807,-1.6909,-1.6976,-1.7032,-1.7043,-1.7099,-1.7155,-1.72,-1.7211,-1.7267,-1.7278,-1.7278,-1.7278,-1.7278,-1.7278,-1.7278,-1.7278,-1.7334,-1.7379,-1.7423,-1.7579,-1.7799,-1.7909,-1.7975,-1.8084,-1.815,-1.8259,-1.8367,-1.8518,-1.8732,-1.8999,-1.9251,-1.954,-1.985,-2.0118,-2.0523,-2.0871,-2.1019,-2.1166,-2.1313,-2.141,-2.141,-2.141,-2.141,-2.1506,-2.1602,-2.1746,-0.2371,-0.2526,-0.2763,-0.3232,-0.3664,-0.3989,-0.4293,-0.455,-0.5461,-0.5959,-0.6131,-0.6322,-0.649,-0.6701,-0.6766,-0.6874,-0.6874,-0.6977,-0.7031,-0.7074,-0.7031,-0.709,-0.7144,-0.7263,-0.7365,-0.7467,-0.7645,-0.7919,-0.8092,-0.8476,-0.8837,-0.8804,-0.9148,-0.9389,-0.9539,-0.9681,-0.9881,-0.9993,-1.02,-1.0368,-1.0411,-1.0462,-1.047,-1.0411,-1.0419,-1.0419,-1.0419,-1.047,-1.0462,-1.0522,-1.0573,-1.0624,-1.0769,-1.0972,-1.1217,-1.1418,-1.1528,-1.1678,-1.1881,-1.231,-1.2887,-1.3518,-1.4172,-1.4799,-1.5377,-1.6056,-1.6249,-1.6363,-1.6524,-1.6637,-1.6705,-1.6807,-1.6874,-1.6931,-1.6987,-1.7032,-1.7043,-1.7155,-1.7211,-1.7267,-1.7278,-1.7278,-1.7278,-1.7278,-1.7278,-1.7278,-1.7334,-1.7368,-1.7479,-1.7689,-1.7799,-1.7909,-1.7963,-1.8084,-1.8139,-1.8247,-1.8367,-1.8518,-1.8786,-1.8999,-1.9239,-1.9592,-2.0003,-2.0422,-2.0772,-2.097,-2.1131,-2.1215,-2.1361,-2.141,-2.141,-2.141,-2.1458,-2.1506,-2.165,-0.2067,-0.2367,-0.2766,-0.3116,-0.3418,-0.3667,-0.3963,-0.4225,-0.4642,-0.5178,-0.5729,-0.5972,-0.6199,-0.6382,-0.6431,-0.6538,-0.6661,-0.6716,-0.6799,-0.6768,-0.6758,-0.6764,-0.6832,-0.6897,-0.7042,-0.7198,-0.7359,-0.7517,-0.7759,-0.8053,-0.8355,-0.8732,-0.8901,-0.9016,-0.9217,-0.9327,-0.9423,-0.9497,-0.9717,-0.9959,-1.0049,-1.0087,-1.011,-1.0162,-1.0162,-1.0162,-1.0162,-1.0162,-1.0154,-1.0154,-1.0146,-1.0205,-1.036,-1.0675,-1.0871,-1.1023,-1.1226,-1.1326,-1.1512,-1.1846,-1.2322,-1.2878,-1.3516,-1.411,-1.4783,-1.5448,-1.5914,-1.6029,-1.6202,-1.6306,-1.6477,-1.6591,-1.6648,-1.6705,-1.6818,-1.6818,-1.6874,-1.6976,-1.7145,-1.7211,-1.7278,-1.7278,-1.7278,-1.7278,-1.7278,-1.7278,-1.7278,-1.7334,-1.7379,-1.7479,-1.7689,-1.7799,-1.7897,-1.7952,-1.8073,-1.8139,-1.8259,-1.8367,-1.8583,-1.8786,-1.904,-1.95,-1.9952,-2.0321,-2.0636,-2.0835,-2.1033,-2.1118,-2.1215,-2.1313,-2.141,-2.141,-2.141,-2.1458,-2.1602,-0.1773,-0.206,-0.2442,-0.268,-0.2871,-0.3203,-0.3443,-0.3646,-0.4034,-0.4405,-0.4857,-0.5323,-0.5684,-0.5944,-0.5991,-0.6115,-0.6266,-0.6339,-0.636,-0.638,-0.6385,-0.638,-0.6406,-0.6494,-0.6478,-0.6659,-0.6819,-0.7059,-0.7378,-0.753,-0.7822,-0.8133,-0.8234,-0.8444,-0.8625,-0.8769,-0.8883,-0.8891,-0.9091,-0.9299,-0.9569,-0.9783,-0.9984,-1.0007,-1.0007,-1.0007,-1.0007,-1.0007,-1.0007,-0.9999,-1.0051,-1.0154,-1.0257,-1.047,-1.0624,-1.0769,-1.0922,-1.0972,-1.1124,-1.1362,-1.1713,-1.2254,-1.2822,-1.3429,-1.399,-1.4657,-1.5245,-1.5371,-1.5846,-1.6019,-1.6077,-1.6134,-1.6192,-1.6306,-1.6488,-1.6658,-1.6761,-1.6864,-1.7032,-1.7078,-1.7145,-1.7211,-1.7211,-1.7278,-1.7278,-1.7278,-1.7278,-1.7278,-1.7334,-1.7323,-1.7534,-1.7689,-1.7788,-1.7843,-1.7952,-1.8084,-1.815,-1.8313,-1.8422,-1.8679,-1.8987,-1.9448,-1.9901,-2.0105,-2.037,-2.0736,-2.0885,-2.0873,-2.1126,-2.1264,-2.1313,-2.141,-2.141,-2.141,-2.152,-0.1484,-0.1658,-0.1979,-0.2158,-0.2245,-0.2647,-0.2876,-0.3027,-0.3481,-0.3718,-0.3929,-0.4586,-0.499,-0.5291,-0.5443,-0.5487,-0.5667,-0.5848,-0.5947,-0.5932,-0.5987,-0.5997,-0.5987,-0.5982,-0.6066,-0.617,-0.6362,-0.6504,-0.6711,-0.6956,-0.7157,-0.7212,-0.744,-0.7739,-0.7773,-0.7943,-0.8153,-0.8228,-0.8407,-0.8545,-0.9011,-0.9503,-0.9739,-0.9909,-0.9947,-0.9947,-0.9947,-0.9947,-0.9947,-0.9947,-0.9895,-0.9999,-1.0102,-1.0162,-1.0308,-1.0462,-1.0514,-1.0616,-1.0769,-1.0938,-1.1266,-1.1665,-1.2175,-1.2767,-1.3332,-1.3875,-1.4446,-1.4843,-1.5254,-1.5614,-1.5614,-1.572,-1.5788,-1.5914,-1.6202,-1.6431,-1.6591,-1.6751,-1.6864,-1.6965,-1.7022,-1.7088,-1.7145,-1.7267,-1.7278,-1.7278,-1.7278,-1.7278,-1.7334,-1.7323,-1.7423,-1.7523,-1.7634,-1.7733,-1.7843,-1.7963,-1.8084,-1.8205,-1.8367,-1.8625,-1.8934,-1.9344,-1.9581,-1.9763,-2.0041,-2.0237,-2.0377,-2.0399,-2.0681,-2.0952,-2.1021,-2.1077,-2.141,-2.141,-2.1471,-0.1435,-0.1614,-0.1794,-0.1975,-0.2199,-0.2373,-0.2593,-0.2868,-0.3024,-0.326,-0.3594,-0.3799,-0.4237,-0.4952,-0.5054,-0.5171,-0.5298,-0.5475,-0.5478,-0.5501,-0.5562,-0.5654,-0.5654,-0.5668,-0.5722,-0.5853,-0.6059,-0.6256,-0.6287,-0.6532,-0.6786,-0.6937,-0.7002,-0.7247,-0.7449,-0.7532,-0.7581,-0.7662,-0.7863,-0.8071,-0.8345,-0.882,-0.9322,-0.9548,-0.9673,-0.9673,-0.9673,-0.9666,-0.9666,-0.9673,-0.9725,-0.9777,-0.9836,-0.9895,-0.9999,-1.0102,-1.0154,-1.0316,-1.047,-1.0573,-1.0861,-1.1194,-1.1764,-1.2315,-1.286,-1.3346,-1.3817,-1.4112,-1.4538,-1.502,-1.5137,-1.5362,-1.5478,-1.5672,-1.5914,-1.6144,-1.6316,-1.642,-1.6534,-1.6751,-1.6909,-1.6965,-1.7067,-1.7134,-1.7278,-1.7278,-1.7278,-1.7278,-1.7278,-1.7334,-1.729,-1.7412,-1.7501,-1.7689,-1.7843,-1.7897,-1.8018,-1.8139,-1.8255,-1.8431,-1.8684,-1.9056,-1.9285,-1.9233,-1.9342,-1.952,-1.9656,-1.9806,-2.0047,-2.0274,-2.0462,-2.0664,-2.105,-2.1185,-2.1084]}]]